     2              OBSERVATION DATA    GPS                 RINEX VERSION / TYPE
teqc 1999Jul19 20000115 03:16:34UTC                         PGM / RUN BY / DATE
                                                            COMMENT
Original Marker Name: OLDD                                  COMMENT
Campaign Name: hector mine                                  COMMENT
4-Character Station Name: OLDD                              COMMENT
6-Character Antenna Code: DMRCHT                            COMMENT
Vertical Measurement Point: BCR                             COMMENT
Vertical Offset to Rinex Ref. Point: 0.0348                 COMMENT
Radial Measurement Point: ECF                               COMMENT
Radial Offset to Rinex Ref. Point: 0.1897                   COMMENT
Antenna Height from Field Measurement: 1.4060 m             COMMENT
Additional Antenna Identification Info.:                    COMMENT
Turborogue and Ashtech Choke Ring                           COMMENT
                                                            COMMENT
Original XYZ: -2341112.0445 -4729761.2654 3571368.8220      COMMENT
New XYZ position is based on association with SCEC monument COMMENT
E1F2H2E1+0011. Position of that monument is believed to be  COMMENT
valid to within 1 m horizontally; vertical accuracy         COMMENT
should be no worse than 3-times this value.                 COMMENT
                                                            COMMENT
Revised Rinex header created by UCSD GPS archive for        COMMENT
GSAC on 10-Mar-2000 (2000:070) 03:24:28 GMT                 COMMENT
For assistance contact dagnew@ucsd.edu or hjohnson@ucsd.edu COMMENT
                                                            COMMENT
OLD 1935                                                    MARKER NAME
MIT USC                                                     OBSERVER / AGENCY
192 ASHTECH Z-XII3 CD00                                     REC # / TYPE / VERS
365 DORNE-MARGOL. TYPE T                                    ANT # / TYPE
 -2367603.0697 -4707875.5746  3582806.6053                  APPROX POSITION XYZ
        1.3583        0.0000        0.0000                  ANTENNA: DELTA H/E/N
     1     1     0                                          WAVELENGTH FACT L1/2
     7    C1    L1    L2    P1    P2    S1    S2            # / TYPES OF OBSERV
     0                                                      INTERVAL
  2000     1     4    19    21    0.000000                  TIME OF FIRST OBS
  2000     1     4    23    59    0.000000                  TIME OF LAST OBS
                                                            END OF HEADER
 00  1  4 19 21  0.0000000  0  7G31G 1G27G 2G13G18G19
  21672095.641      -52605.52449    -37723.63047  21672095.151    21672102.885
       235.000         189.000
  24016047.794      173371.37949    119454.19645  24016047.306    24016058.687
       210.000         146.000
  21336863.922     -225403.33249   -149002.28647  21336863.687    21336871.259
       240.000         206.000
                   -264140.01949   -192582.58343
       230.000          74.000
  21440399.361     -261088.96449   -187177.78147  21440399.740    21440406.066
       240.000         203.000
  20855650.213      106301.17849     77621.84647  20855650.294    20855657.561
       244.000         212.000
  20586314.710     -100695.54749    -71548.01348  20586314.351    20586321.852
       245.000         216.000
 00  1  4 19 21 30.0000000  0  8G 3G31G 1G27G 2G13G18G19
                     45259.68349     27915.77643
       213.000          74.000
  21668844.560      -69688.57349    -51035.13047  21668844.531    21668852.425
       235.000         193.000
  24030121.451      247330.29349    177084.32045  24030120.434    24030133.082
       213.000         152.000
  21322191.165     -302507.69749   -209083.60847  21322191.124    21322198.912
       239.000         207.000
                   -355473.92249    -43306.82146                  22742262.961
       232.000         173.000
  21423435.991     -350232.29749   -256640.09947  21423436.314    21423442.666
       241.000         204.000
  20862865.791      144217.82149    107167.23447  20862865.849    20862873.087
       244.000         212.000
  20580297.055     -132316.72749    -96187.91048  20580297.097    20580304.505
       245.000         216.000
 00  1  4 19 22  0.0000000  0  9G10G 3G31G 1G27G 2G13G18G19
                  -1649757.85149  -1277559.17545                  24129715.709
       214.000         140.000
                  -1436951.83049  -1127054.41445                  24044089.466
       212.000         135.000
  21675578.654    -1609720.89949  -1251060.36347  21675578.499    21675586.445
       234.000         194.000
  24054095.146    -1202107.61949   -952348.02445  24054094.417    24054106.343
       212.000         152.000
  21317412.974    -1903037.03349  -1456249.32547  21317413.152    21317420.736
       239.000         207.000
  22734792.429    -1970109.94049  -1301464.74146  22734790.792    22734800.362
       232.000         186.000
  21416418.706    -1962527.95349  -1512974.36247  21416419.012    21416425.438
       241.000         204.000
  20880035.929    -1340972.59849  -1050124.04547  20880035.862    20880043.211
       244.000         212.000
  20584186.160    -1687299.61549  -1307862.90948  20584186.124    20584193.498
       245.000         216.000
 00  1  4 19 22 30.0000000  0  9G10G 3G31G 1G27G 2G13G18G19
  24126615.005    -1665984.18149  -1290203.08345  24126615.442    24126626.985
       214.000         147.000
  24057687.352    -1365432.78449  -1071325.42645  24057688.299    24057698.904
       213.000         145.000
  21678218.538    -1595848.23849  -1240250.54147  21678218.142    21678226.169
       235.000         194.000
  24073892.980    -1098069.24949   -871279.37245  24073892.801    24073904.930
       212.000         151.000
  21308449.304    -1950141.78949  -1492954.31647  21308449.148    21308456.757
       239.000         207.000
  22723167.743    -2031196.10549  -1349064.32647  22723166.339    22723175.806
       231.000         188.000
  21405269.564    -2021117.08249  -1558628.21147  21405269.670    21405276.426
       241.000         204.000
  20893083.735    -1272405.88849   -996695.48147  20893083.639    20893091.192
       244.000         212.000
  20583905.485    -1688774.89449  -1309012.49448  20583905.669    20583912.987
       245.000         216.000
 00  1  4 19 23  0.0000000  0  9G10G 3G31G 1G27G 2G13G18G19
  24123620.010    -1681729.62149  -1302472.29045  24123620.695    24123631.126
       214.000         148.000
  24071374.687    -1293505.30549  -1015278.19645  24071374.334    24071385.827
       212.000         146.000
  21680973.218    -1581372.54249  -1228970.81647  21680973.085    21680980.536
       234.000         194.000
  24093725.893     -993847.46549   -790067.80045  24093726.290    24093738.457
       210.000         151.000
  21299506.238    -1997137.99349  -1529574.72347  21299506.099    21299513.463
       240.000         207.000
  22711589.387    -2092039.74349  -1396474.93747  22711588.534    22711597.797
       231.000         188.000
  21394197.337    -2079301.95849  -1603967.05647  21394197.525    21394204.232
       241.000         205.000
  20906218.911    -1203380.10649   -942909.19447  20906218.866    20906226.304
       244.000         212.000
  20583666.274    -1690032.02349  -1309992.09548  20583666.164    20583673.535
       245.000         216.000
 00  1  4 19 23 30.0000000  0  9G10G 3G31G 1G27G 2G13G18G19
  24120719.676    -1696972.12649  -1314349.59345  24120719.573    24120730.959
       212.000         148.000
  24085144.728    -1221144.89149   -958893.60045  24085145.181    24085155.666
       212.000         145.000
  21683850.019    -1566255.33449  -1217191.21247  21683849.773    21683857.769
       234.000         193.000
  24113596.413     -889427.66349   -708701.92845  24113597.134    24113607.810
       209.000         149.000
  21290587.601    -2044005.77649  -1566095.05747  21290587.723    21290595.229
       241.000         207.000
  22700057.330    -2152640.59049  -1443696.35347  22700056.148    22700065.947
       231.000         188.000
  21383206.579    -2137058.84549  -1648972.40147  21383207.014    21383213.377
       241.000         205.000
  20919444.254    -1133880.67449   -888753.83047  20919444.300    20919451.941
       244.000         212.000
  20583472.002    -1691053.11949  -1310787.77348  20583471.719    20583479.368
       245.000         216.000
 00  1  4 19 24  0.0000000  0  9G10G 3G31G 1G27G 2G13G18G19
  24117914.450    -1711714.94849  -1325837.52745  24117914.385    24117925.560
       209.000         148.000
  24098991.421    -1148381.10649   -902194.68945  24098991.216    24099002.386
       210.000         144.000
  21686846.842    -1550507.34849  -1204920.09147  21686846.589    21686854.953
       234.000         193.000
  24133496.997     -784849.83849   -627212.92045  24133497.597    24133509.431
       210.000         147.000
  21281690.522    -2090760.58649  -1602527.35647  21281690.482    21281698.049
       240.000         208.000
  22688566.051    -2213027.42149  -1490750.99747  22688565.043    22688574.685
       232.000         189.000
  21372293.753    -2194406.04749  -1693658.52047  21372294.179    21372300.640
       241.000         205.000
  20932755.393    -1063930.31349   -834247.09647  20932755.355    20932763.072
       244.000         212.000
  20583319.054    -1691857.14849  -1311414.30948  20583319.005    20583326.597
       245.000         216.000
 00  1  4 19 24 30.0000000  0  9G10G 3G31G 1G27G 2G13G18G19
  24115206.393    -1725945.36649  -1336926.20045  24115205.910    24115217.448
       213.000         147.000
  24112911.509    -1075231.13949   -845194.87445  24112912.078    24112922.544
       210.000         145.000
  21689963.886    -1534127.52249  -1192156.61747  21689963.411    21689971.792
       234.000         193.000
  24153423.115     -680137.95549   -545619.42645  24153423.723    24153435.843
       210.000         144.000
  21272815.293    -2137400.45449  -1638870.09047  21272815.246    21272822.871
       241.000         208.000
  22677116.340    -2273195.76049  -1537635.38547  22677115.849    22677125.060
       231.000         189.000
  21361462.469    -2251324.72349  -1738010.71547  21361462.887    21361469.343
       241.000         205.000
  20946153.284     -993523.85249   -779384.95647  20946153.140    20946160.701
       243.000         212.000
  20583210.372    -1692428.59949  -1311859.61348  20583210.210    20583217.813
       245.000         216.000
 00  1  4 19 25  0.0000000  0  9G10G 3G31G 1G27G 2G13G18G19
  24112598.847    -1739649.46549  -1347604.74545  24112598.375    24112609.371
       211.000         148.000
  24126907.471    -1001682.15149   -787884.11645  24126908.369    24126918.257
       211.000         145.000
  21693202.852    -1517106.80049  -1178893.75047  21693202.398    21693210.291
       234.000         193.000
  24173373.150     -575300.86649   -463928.37645  24173371.913    24173384.760
       210.000         143.000
  21263967.153    -2183898.20049  -1675102.07847  21263967.262    21263974.511
       241.000         208.000
  22665707.037    -2333151.90049  -1584354.43047  22665706.408    22665715.928
       232.000         189.000
  21350715.470    -2307800.78549  -1782018.01547  21350715.807    21350722.091
       241.000         205.000
  20959638.025     -922660.92549   -724167.13147  20959637.925    20959645.607
       243.000         211.000
  20583145.786    -1692768.15149  -1312124.21648  20583145.875    20583153.306
       246.000         216.000
 00  1  4 19 25 30.0000000  0  9G10G 3G31G 1G27G 2G13G18G19
  24110091.698    -1752824.73549  -1357871.18345  24110091.511    24110102.964
       209.000         148.000
  24140982.271     -927718.98949   -730250.60745  24140982.216    24140993.710
       210.000         146.000
  21696563.323    -1499447.38649  -1165133.19447  21696563.372    21696570.997
       234.000         194.000
  24193347.224     -470336.83449   -382138.42745  24193347.804    24193360.335
       211.000         146.000
  21255150.673    -2230229.40249  -1711204.29447  21255150.725    21255158.011
       242.000         208.000
  22654339.711    -2392887.27149  -1630901.43447  22654338.967    22654348.175
       233.000         189.000
  21340054.106    -2363826.61849  -1825674.48547  21340054.618    21340060.846
       241.000         205.000
  20973211.540     -851331.86349   -668586.08347  20973211.478    20973219.079
       243.000         211.000
  20583127.117    -1692866.42749  -1312200.81048  20583127.108    20583134.714
       246.000         216.000
 00  1  4 19 26  0.0000000  0  9G10G 3G31G 1G27G 2G13G18G19
  24107687.397    -1765460.44949  -1367717.22745  24107686.426    24107698.838
       211.000         147.000
  24155133.971     -853351.77649   -672302.27545  24155134.668    24155145.132
       211.000         147.000
  21700042.682    -1481163.49549  -1150886.02447  21700042.523    21700050.290
       233.000         193.000
  24213350.065     -365222.24249   -300231.15245  24213350.107    24213362.009
       212.000         146.000
  21246364.415    -2276401.69149  -1747182.68247  21246364.438    21246371.691
       242.000         209.000
  22643020.657    -2452369.34149  -1677251.07147  22643019.973    22643029.522
       232.000         190.000
  21329480.981    -2419388.79949  -1868969.66947  21329481.267    21329487.763
       242.000         206.000
  20986874.814     -779530.98949   -612637.39247  20986874.849    20986882.596
       243.000         211.000
  20583159.555    -1692696.12549  -1312068.12248  20583159.515    20583166.838
       246.000         216.000
 00  1  4 19 26 30.0000000  0  9G10G 3G31G 1G27G 2G13G18G19
  24105386.616    -1777554.02949  -1377140.78145  24105384.589    24105396.958
       207.000         147.000
  24169361.355     -778587.18149   -614044.26845  24169361.529    24169373.182
       212.000         149.000
  21703640.878    -1462254.74249  -1136151.95347  21703640.812    21703648.712
       234.000         193.000
  24233386.436     -259931.10649   -218186.32745  24233386.436    24233398.639
       208.000         144.000
  21237607.979    -2322417.22149  -1783038.92347  21237607.860    21237615.267
       242.000         209.000
  22631754.287    -2511574.34049  -1723384.80547  22631753.713    22631762.642
       233.000         190.000
  21318994.800    -2474494.21649  -1911908.93247  21318995.127    21319001.636
       243.000         206.000
  21000627.790     -707258.80749   -556321.44647  21000627.798    21000635.700
       243.000         211.000
  20583246.236    -1692240.83149  -1311713.35848  20583246.245    20583253.701
       245.000         216.000
 00  1  4 19 27  0.0000000  0  9G10G 3G31G 1G27G 2G13G18G19
  24103188.362    -1789104.04649  -1386140.80045  24103187.021    24103199.177
       209.000         147.000
  24183664.572     -703423.81249   -555475.52245  24183665.377    24183676.060
       213.000         150.000
  21707359.066    -1442715.90249  -1120926.89947  21707358.658    21707366.564
       234.000         193.000
  24253458.541     -154452.26349   -135995.21945  24253458.860    24253471.507
       207.000         142.000
  21228879.266    -2368286.99049  -1818781.58647  21228879.073    21228886.702
       241.000         209.000
  22620543.183    -2570489.32349  -1769292.54347  22620542.464    22620551.571
       233.000         190.000
  21308589.999    -2529171.88349  -1954514.88647  21308590.440    21308596.471
       242.000         206.000
  21014470.310     -634516.25049   -499638.97147  21014470.175    21014477.925
       243.000         210.000
  20583386.547    -1691503.67249  -1311138.96048  20583386.578    20583393.935
       246.000         216.000
 00  1  4 19 27 30.0000000  0  9G10G 3G31G 1G27G 2G13G18G19
  24101093.817    -1800110.73049  -1394717.45945  24101093.090    24101105.157
       208.000         147.000
  24198039.955     -627880.94349   -496611.05445  24198040.485    24198052.358
       215.000         151.000
  21711196.733    -1422549.07849  -1105212.50747  21711196.481    21711204.390
       234.000         193.000
  24273564.812      -48793.74449    -53664.11945  24273564.711    24273577.897
       209.000         143.000
  21220172.021    -2414044.03649  -1854436.40647  21220171.871    21220179.410
       242.000         209.000
  22609389.709    -2629101.37349  -1814964.24147  22609389.375    22609398.227
       233.000         191.000
  21298263.082    -2583440.19949  -1996801.86547  21298263.429    21298269.842
       242.000         206.000
  21028401.403     -561307.90649   -442593.54447  21028401.291    21028409.080
       243.000         210.000
  20583578.933    -1690492.85149  -1310351.31648  20583578.865    20583586.317
       245.000         216.000
 00  1  4 19 28  0.0000000  0  9G10G 3G31G 1G27G 2G13G18G19
  24099101.602    -1810579.09949  -1402874.65345  24099100.670    24099111.839
       208.000         147.000
  24212484.584     -551974.37049   -437463.16545  24212484.366    24212496.725
       214.000         152.000
  21715153.796    -1401754.66249  -1089009.08647  21715153.502    21715161.249
       234.000         193.000
  24293702.936       57031.87049     28797.18445  24293703.479    24293715.970
       217.000         152.000
  21211484.225    -2459698.58349  -1890011.36247  21211483.795    21211491.623
       241.000         209.000
  22598292.087    -2687419.85649  -1860407.18247  22598291.328    22598300.702
       233.000         191.000
  21288011.452    -2637312.80549  -2038780.49847  21288011.816    21288018.353
       242.000         206.000
  21042418.719     -487646.42649   -385195.02747  21042418.687    21042426.651
       242.000         210.000
  20583818.387    -1689234.49349  -1309370.78548  20583818.249    20583825.684
       245.000         216.000
 00  1  4 19 28 30.0000000  0  9G10G 3G31G 1G27G 2G13G18G19
  24097208.044    -1820527.07049  -1410626.33045  24097208.200    24097221.099
       209.000         149.000
  24227000.861     -475691.37949   -378021.99345  24227000.856    24227012.658
       215.000         152.000
  21719231.137    -1380328.50149  -1072313.39447  21719230.859    21719238.744
       234.000         193.000
  24313868.820      163003.54649    111372.28045  24313868.899    24313881.680
       215.000         154.000
  21202816.888    -2505245.59349  -1925502.52747  21202816.765    21202824.243
       242.000         209.000
  22587244.113    -2745477.16149  -1905646.60747  22587243.617    22587252.432
       234.000         191.000
  21277832.626    -2690802.92849  -2080461.08947  21277833.023    21277839.308
       242.000         206.000
  21056520.335     -413542.16649   -327451.48947  21056520.474    21056528.100
       242.000         209.000
  20584101.570    -1687746.36349  -1308211.20748  20584101.493    20584109.209
       245.000         216.000
 00  1  4 19 29  0.0000000  0  9G10G 3G31G 1G27G 2G13G18G19
  24095412.215    -1829964.51749  -1417980.20145  24095413.043    24095424.005
       212.000         150.000
  24241589.020     -399030.30249   -318286.20845  24241588.967    24241600.723
       212.000         152.000
  21723426.705    -1358280.82349  -1055133.40147  21723426.305    21723434.479
       234.000         193.000
  24334058.803      269101.68349    194045.91545  24334059.201    24334072.014
       216.000         155.000
  21194169.183    -2550689.51449  -1960913.36747  21194169.072    21194176.644
       242.000         209.000
  22576240.957    -2803299.17549  -1950702.69147  22576240.334    22576249.075
       233.000         192.000
  21267729.854    -2743893.50349  -2121830.34547  21267730.317    21267736.375
       243.000         206.000
  21070705.488     -338998.83349   -269365.81347  21070705.394    21070713.397
       242.000         209.000
  20584423.995    -1686052.25649  -1306891.13148  20584423.860    20584431.421
       245.000         215.000
 00  1  4 19 29 30.0000000  0  9G10G 3G31G 1G27G 2G13G18G19
  24093713.683    -1838893.91849  -1424938.20645  24093712.860    24093724.746
       212.000         149.000
  24256245.355     -322011.10349   -258271.37745  24256246.210    24256257.075
       212.000         152.000
  21727737.768    -1335626.15549  -1037480.43447  21727737.620    21727745.965
       233.000         193.000
  24354271.295      375318.15049    276811.75045  24354271.838    24354283.845
       216.000         154.000
  21185545.215    -2596008.90249  -1996227.17647  21185545.152    21185552.552
       241.000         209.000
  22565278.638    -2860906.40249  -1995591.40547  22565277.643    22565286.619
       233.000         191.000
  21257709.039    -2796553.22649  -2162863.87247  21257709.364    21257715.695
       243.000         207.000
  21084973.861     -264018.30449   -210939.46547  21084974.046    21084981.723
       243.000         209.000
  20584783.053    -1684165.40949  -1305420.86748  20584783.131    20584790.454
       245.000         215.000
 00  1  4 19 30  0.0000000  0  9G10G 3G31G 1G27G 2G13G18G19
  24092111.395    -1847315.28849  -1431500.32945  24092110.409    24092122.620
       213.000         148.000
  24270970.999     -244627.91049   -197972.91245  24270970.397    24270982.696
       211.000         152.000
  21732162.870    -1312372.43549  -1019360.67347  21732162.677    21732170.499
       234.000         193.000
  24374507.564      481659.37749    359674.81545  24374507.829    24374521.227
       213.000         155.000
  21176948.946    -2641182.61449  -2031427.47147  21176948.813    21176956.298
       241.000         209.000
  22554356.751    -2918301.01649  -2040314.44747  22554356.174    22554364.927
       232.000         191.000
  21247774.920    -2848757.42349  -2203542.44947  21247775.321    21247781.544
       243.000         207.000
  21099323.795     -188609.12849   -152179.10547  21099324.002    21099331.916
       243.000         209.000
  20585181.306    -1682072.65649  -1303790.14948  20585181.226    20585188.773
       245.000         215.000
 00  1  4 19 30 30.0000000  0  9G10G 3G31G 1G27G 2G13G18G19
  24090608.656    -1855212.87749  -1437654.31345  24090608.179    24090619.455
       211.000         148.000
  24285766.446     -166877.48849   -137388.29845  24285766.923    24285778.264
       211.000         152.000
  21736701.859    -1288519.86449  -1000774.27647  21736701.655    21736709.549
       233.000         193.000
  24394767.018      588122.28549    442632.65945  24394767.894    24394780.387
       213.000         155.000
  21168382.237    -2686201.03349  -2066506.75647  21168382.184    21168389.541
       242.000         209.000
  22543478.698    -2975465.40249  -2084858.09347  22543477.995    22543486.958
       233.000         192.000
  21237930.899    -2900488.07149  -2243852.02947  21237931.096    21237937.419
       243.000         207.000
  21113754.221     -112777.11549    -93089.26247  21113754.452    21113761.952
       243.000         208.000
  20585622.042    -1679756.79149  -1301985.58148  20585621.980    20585629.462
       245.000         215.000
 00  1  4 19 31  0.0000000  0  9G10G 3G31G 1G27G 2G13G18G19
  24089206.420    -1862581.90349  -1443396.42745  24089206.260    24089217.624
       208.000         148.000
  24300627.900      -88780.80549    -76533.87045  24300627.755    24300639.545
       211.000         151.000
  21741354.573    -1264069.86549   -981722.35947  21741354.194    21741362.166
       234.000         193.000
  24415049.663      694706.71349    525685.20645  24415049.693    24415062.968
       208.000         153.000
  21159848.238    -2731047.56749  -2101452.10747  21159847.842    21159855.590
       242.000         209.000
  22532648.305    -3032379.51549  -2129206.72447  22532647.663    22532656.483
       233.000         192.000
  21228178.436    -2951737.64749  -2283786.75347  21228178.758    21228185.052
       243.000         207.000
  21128265.818      -36518.60349    -33667.08747  21128265.726    21128273.560
       243.000         208.000
  20586104.509    -1677221.58449  -1300010.10048  20586104.317    20586111.830
       245.000         215.000
 00  1  4 19 31 30.0000000  0  9G10G 3G31G 1G27G 2G13G18G19
  24087905.817    -1869416.16449  -1448721.85745  24087904.801    24087916.511
       210.000         148.000
  24315556.510      -10331.18249    -15404.44045  24315557.900    24315568.932
       210.000         151.000
  21746122.738    -1239012.99049   -962197.55047  21746122.693    21746130.327
       233.000         193.000
  24435354.564      801408.80549    608829.40545  24435354.726    24435366.841
       204.000         149.000
  21151349.218    -2775710.32249  -2136254.25847  21151349.176    21151356.354
       242.000         209.000
  22521867.582    -3089032.66149  -2173352.00347  22521867.396    22521875.981
       233.000         193.000
  21218515.743    -3002515.43249  -2323353.84947  21218516.027    21218522.162
       243.000         208.000
  21142858.048       40163.84749     26085.42647  21142858.214    21142865.809
       243.000         208.000
  20586634.608    -1674436.05449  -1297839.56148  20586634.440    20586641.863
       245.000         215.000
 00  1  4 19 32  0.0000000  0  9G10G 3G31G 1G27G 2G13G18G19
  24086707.077    -1875715.24449  -1453630.24345  24086706.140    24086718.241
       208.000         148.000
  24330557.024       68496.91749     46019.88045  24330557.745    24330569.708
       210.000         150.000
  21751008.667    -1213337.69349   -942190.85047  21751008.560    21751016.493
       233.000         193.000
  24455682.770      908232.51449    692068.37945  24455683.113    24455695.295
       204.000         146.000
  21142883.184    -2820199.64449  -2170921.26347  21142882.977    21142890.518
       242.000         209.000
  22511138.832    -3145412.68049  -2217284.46047  22511138.453    22511147.195
       233.000         193.000
  21208941.497    -3052828.49849  -2362558.82747  21208942.035    21208948.032
       243.000         208.000
  21157528.997      117259.72949     86160.09547  21157528.947    21157536.680
       243.000         208.000
  20587217.416    -1671373.30949  -1295453.01348  20587217.146    20587224.794
       245.000         215.000
 00  1  4 19 32 30.0000000  0  9G10G 3G31G 1G27G 2G13G18G19
  24085607.915    -1881491.03949  -1458130.89245  24085606.921    24085619.674
       209.000         147.000
  24345630.004      147705.02649    107740.31445  24345630.381    24345641.897
       210.000         148.000
  21756013.419    -1187037.66949   -921697.34947  21756012.936    21756021.251
       233.000         193.000
  24476033.643     1015176.23549    775400.84045  24476033.295    24476046.121
       201.000         144.000
  21134450.178    -2864515.37549  -2205453.00247  21134449.995    21134457.652
       242.000         210.000
  22500463.783    -3201510.59249  -2260997.09247  22500463.293    22500472.192
       233.000         193.000
  21199454.133    -3102685.05849  -2401408.08447  21199454.413    21199460.794
       243.000         208.000
  21172280.241      194778.08449    146563.96647  21172280.235    21172287.969
       243.000         207.000
  20587851.687    -1668040.11749  -1292855.72948  20587851.537    20587859.122
       245.000         215.000
 00  1  4 19 33  0.0000000  0  9G10G 3G31G 1G27G 2G13G18G19
  24084606.305    -1886754.74049  -1462232.51045  24084604.895    24084617.142
       208.000         147.000
  24360776.316      227298.64049    169761.14945  24360776.645    24360788.491
       210.000         147.000
  21761137.534    -1160110.40149   -900715.08547  21761137.588    21761145.470
       233.000         192.000
  24496409.499     1122251.00849    858835.43245  24496409.379    24496422.580
       206.000         143.000
  21126047.214    -2908673.31349  -2239861.78547  21126047.142    21126054.449
       242.000         210.000
  22489840.086    -3257338.30049  -2304499.17547  22489839.548    22489848.421
       233.000         193.000
  21190053.119    -3152087.72149  -2439903.66147  21190053.461    21190059.808
       243.000         208.000
  21187113.607      272727.62149    207303.81747  21187113.517    21187121.253
       242.000         207.000
  20588538.469    -1664431.12949  -1290043.53948  20588538.631    20588545.819
       245.000         215.000
 00  1  4 19 33 30.0000000  0  9G10G 3G31G 1G27G 2G13G18G19
  24083702.495    -1891504.66549  -1465933.76645  24083701.770    24083713.245
       208.000         147.000
  24375998.576      307291.76749    232093.28645  24375999.777    24376011.219
       207.000         146.000
  21766381.314    -1132554.30749   -879242.83147  21766381.018    21766389.271
       233.000         192.000
  24516811.155     1229461.51849    942375.78945  24516811.964    24516823.767
       205.000         144.000
  21117670.524    -2952693.15849  -2274162.96547  21117670.341    21117677.660
       241.000         210.000
  22479267.742    -3312896.13749  -2347790.97247  22479267.127    22479276.010
       234.000         194.000
  21180738.578    -3201036.15349  -2478045.28547  21180738.790    21180745.127
       243.000         208.000
  21202028.185      351103.93449    268376.21847  21202028.131    21202036.192
       242.000         207.000
  20589278.945    -1660540.07649  -1287011.55948  20589278.729    20589286.334
       245.000         215.000
 00  1  4 19 34  0.0000000  0  9G10G 3G31G 1G27G 2G13G18G19
  24082894.856    -1895748.16749  -1469240.41845  24082894.459    24082905.986
       210.000         147.000
  24391292.982      387663.73249    294720.63545  24391293.599    24391306.300
       205.000         144.000
  21771742.628    -1104380.53049   -857289.25147  21771742.326    21771750.284
       233.000         192.000
  24537239.577     1336812.82649   1026025.83645  24537239.553    24537254.457
       205.000         145.000
  21109316.925    -2996591.68649  -2308369.61147  21109316.834    21109324.235
       241.000         210.000
  22468747.321    -3368181.09249  -2390870.13147  22468746.600    22468755.639
       233.000         193.000
  21171509.868    -3249533.23549  -2515835.21147  21171510.278    21171516.482
       244.000         209.000
  21217023.661      429905.37649    329779.88947  21217023.600    21217031.404
       243.000         207.000
  20590066.588    -1656401.10749  -1283786.40048  20590066.554    20590074.056
       245.000         215.000
 00  1  4 19 34 30.0000000  0  9G10G 3G31G 1G27G 2G13G18G19
  24082183.265    -1899487.37349  -1472154.10345  24082182.782    24082194.269
       209.000         146.000
  24406656.238      468397.47249    357629.87245  24406656.433    24406668.754
       207.000         141.000
  21777219.991    -1075596.86049   -834860.43947  21777219.804    21777228.139
       233.000         192.000
  24557691.996     1444290.16949   1109774.10745  24557692.923    24557706.555
       213.000         145.000
  21100984.886    -3040376.97449  -2342488.01847  21100984.552    21100992.491
       241.000         210.000
  22458275.834    -3423209.01049  -2433749.00647  22458275.330    22458284.188
       234.000         194.000
  21162365.508    -3297587.40249  -2553280.01047  21162365.829    21162372.223
       243.000         209.000
  21232101.155      509137.65949    391519.28247  21232101.452    21232108.974
       242.000         206.000
  20590897.191    -1652036.52549  -1280385.43748  20590897.218    20590904.737
       245.000         215.000
 00  1  4 19 35  0.0000000  0  9G10G 3G31G 1G27G 2G13G18G19
  24081569.208    -1902714.75249  -1474668.94345  24081569.286    24081580.684
       212.000         147.000
  24422085.413      549477.78649    420809.14545  24422085.792    24422098.613
       203.000         139.000
  21782812.522    -1046208.03549   -811960.07247  21782812.193    21782820.125
       233.000         192.000
  24578166.162     1551880.58149   1193610.51345  24578167.129    24578178.209
       206.000         144.000
  21092671.322    -3084065.14949  -2376530.74247  21092671.278    21092678.704
       241.000         210.000
  22447848.068    -3478007.04549  -2476448.74747  22447847.409    22447856.659
       234.000         194.000
  21153307.016    -3345190.08549  -2590373.00347  21153307.270    21153313.651
       243.000         209.000
  21247258.797      588791.54049    453587.18947  21247258.779    21247266.725
       242.000         206.000
  20591769.399    -1647453.17149  -1276814.00148  20591769.495    20591776.890
       245.000         215.000
 00  1  4 19 35 30.0000000  0  8G10G 3G31G27G 2G13G18G19
  24081049.124    -1905448.10449  -1476798.84945  24081049.207    24081060.079
       211.000         147.000
  24437574.509      630873.06849    484233.91945  24437574.509    24437588.547
       205.000         139.000
  21788516.590    -1016233.19349   -788603.07347  21788516.404    21788524.529
       233.000         192.000
  21084375.034    -3127662.66249  -2410502.82347  21084374.941    21084382.245
       241.000         210.000
  22437461.867    -3532587.05249  -2518978.60347  22437461.279    22437470.271
       235.000         195.000
  21144334.650    -3392340.14549  -2627113.30947  21144334.991    21144341.260
       243.000         209.000
  21262493.109      668848.11649    515968.87847  21262493.242    21262500.975
       242.000         206.000
  20592677.769    -1642679.92949  -1273094.61048  20592677.566    20592685.217
       245.000         215.000
 00  1  4 19 36  0.0000000  0  8G10G 3G31G27G 2G13G18G19
  24080622.753    -1907689.01449  -1478545.01445  24080621.313    24080634.035
       208.000         147.000
  24453121.126      712570.50949    547894.13445  24453121.506    24453134.153
       204.000         138.000
  21794329.421     -985686.83349   -764800.73147  21794329.470    21794337.875
       233.000         192.000
  21076099.493    -3171150.86849  -2444389.72147  21076099.350    21076106.632
       242.000         210.000
  22427114.772    -3586961.72549  -2561348.45447  22427114.392    22427123.438
       235.000         195.000
  21135449.920    -3439029.65849  -2663494.74347  21135450.282    21135456.444
       243.000         209.000
  21277802.718      749300.28649    578658.82047  21277802.834    21277810.679
       242.000         206.000
  20593622.056    -1637717.73449  -1269227.97348  20593621.942    20593629.502
       245.000         215.000
 00  1  4 19 36 30.0000000  0  8G10G 3G31G27G 2G13G18G19
  24080293.786    -1909418.00649  -1479892.29045  24080293.280    24080304.411
       206.000         146.000
  24468729.689      794593.19449    611807.78545  24468730.201    24468742.473
       203.000         137.000
  21800254.768     -954549.29949   -740537.73747  21800254.718    21800262.931
       233.000         192.000
  21067854.231    -3214480.05849  -2478152.71247  21067853.948    21067861.490
       241.000         210.000
  22416809.623    -3641115.83149  -2603546.43447  22416809.266    22416817.843
       235.000         195.000
  21126659.094    -3485225.91149  -2699491.81747  21126659.438    21126665.708
       243.000         209.000
  21293189.472      830157.74249    641664.57147  21293189.502    21293197.157
       242.000         206.000
  20594609.202    -1632530.20049  -1265185.74948  20594609.159    20594616.609
       245.000         215.000
 00  1  4 19 37  0.0000000  0  8G10G 3G31G27G 2G13G18G19
  24080064.239    -1910623.07449  -1480831.30445  24080062.709    24080074.573
       210.000         146.000
  24484400.835      876945.34249    675978.15145  24484400.292    24484413.267
       204.000         136.000
  21806295.590     -922805.14549   -715802.04747  21806295.146    21806303.729
       233.000         192.000
  21059644.585    -3257621.90049  -2511769.71947  21059644.312    21059652.099
       242.000         210.000
  22406550.838    -3695026.13649  -2645554.43847  22406550.188    22406558.861
       236.000         195.000
  21117965.946    -3530908.77749  -2735088.85147  21117966.236    21117972.684
       243.000         209.000
  21308653.151      911419.76949    704985.57047  21308653.096    21308661.015
       242.000         205.000
  20595643.546    -1627094.80849  -1260950.38948  20595643.473    20595651.024
       245.000         215.000
 00  1  4 19 37 30.0000000  0  8G10G 3G31G27G 2G13G18G19
  24079936.314    -1911295.25549  -1481355.08345  24079935.687    24079947.839
       208.000         146.000
  24500138.503      959646.29449    740420.30145  24500139.396    24500150.626
       206.000         136.000
  21812453.539     -890444.95349   -690586.33647  21812453.213    21812461.496
       233.000         192.000
  21051477.195    -3300541.76449  -2545213.75647  21051477.335    21051484.683
       241.000         211.000
  22396342.907    -3748668.99649  -2687354.04347  22396342.255    22396351.028
       235.000         196.000
  21109369.532    -3576083.18049  -2770289.67847  21109369.777    21109376.179
       243.000         209.000
  21324193.994      993087.19049    768622.46547  21324193.948    21324201.699
       242.000         205.000
  20596730.947    -1621380.58849  -1256497.76248  20596731.000    20596738.515
       245.000         215.000
 00  1  4 19 38  0.0000000  0  8G10G 3G31G27G 2G13G18G19
  24079912.692    -1911420.14449  -1481452.38945  24079911.764    24079923.182
       205.000         146.000
  24515945.867     1042713.28749    805147.68045  24515945.414    24515958.751
       207.000         136.000
  21818732.024     -857451.22949   -664876.96747  21818731.976    21818739.874
       233.000         192.000
  21043356.008    -3343219.09649  -2578468.79947  21043355.778    21043363.489
       241.000         211.000
  22386186.791    -3802039.57549  -2728941.48047  22386186.396    22386194.868
       235.000         196.000
  21100867.074    -3620764.02349  -2805105.91547  21100867.393    21100873.582
       243.000         210.000
  21339812.059     1075160.33749    832575.50547  21339812.235    21339820.224
       241.000         205.000
  20597877.156    -1615357.17449  -1251804.20748  20597877.166    20597884.595
       245.000         215.000
 00  1  4 19 38 30.0000000  0  8G10G 3G31G27G 2G13G18G19
  24079991.404    -1911005.72749  -1481129.48545  24079991.629    24080002.895
       207.000         147.000
  24531823.150     1126147.75249    870161.39945  24531822.573    24531835.937
       206.000         137.000
  21825132.908     -823814.47549   -638666.53847  21825132.215    21825140.866
       233.000         192.000
  21035276.891    -3385675.03849  -2611551.33347  21035276.701    21035284.167
       242.000         211.000
  22376084.820    -3855125.82749  -2770307.37047  22376084.289    22376093.308
       234.000         196.000
  21092458.935    -3664949.19849  -2839535.91747  21092459.264    21092465.540
       243.000         210.000
  21355510.632     1157656.68749    896858.31347  21355510.688    21355518.592
       241.000         204.000
  20599083.461    -1609018.07849  -1246864.66948  20599083.351    20599090.848
       244.000         215.000
 00  1  4 19 39  0.0000000  0  8G10G 3G31G27G 2G13G18G19
  24080171.202    -1910062.06849  -1480394.17145  24080170.785    24080182.395
       211.000         147.000
  24547769.946     1209948.22649    935460.33645  24547770.542    24547782.748
       208.000         138.000
  21831654.420     -789543.64349   -611962.03147  21831654.260    21831662.369
       232.000         192.000
  21027233.531    -3427943.32149  -2644487.63547  21027233.479    21027240.936
       242.000         211.000
  22366036.055    -3907932.34949  -2811455.28347  22366035.516    22366044.098
       235.000         196.000
  21084144.059    -3708644.37249  -2873584.09647  21084144.401    21084150.635
       243.000         210.000
  21371291.531     1240585.68449    961478.25047  21371291.703    21371299.488
       241.000         204.000
  20600349.759    -1602363.63349  -1241679.40148  20600349.795    20600357.489
       245.000         214.000
 00  1  4 19 39 30.0000000  0  8G10G 3G31G27G 2G13G18G19
  24080449.739    -1908597.84249  -1479253.23145  24080448.962    24080461.249
       208.000         147.000
  24563787.238     1294118.81749   1001047.68745  24563787.584    24563800.086
       208.000         139.000
  21838291.748     -754664.23749   -584783.31547  21838291.575    21838299.679
       232.000         191.000
  21019223.224    -3470037.80949  -2677288.51447  21019222.905    21019230.415
       242.000         211.000
  22356039.928    -3960462.21049  -2852387.61747  22356039.386    22356048.397
       235.000         196.000
  21075920.503    -3751859.57049  -2907258.27047  21075920.674    21075926.914
       243.000         210.000
  21387155.815     1323952.74449   1026439.52147  21387155.790    21387163.649
       241.000         204.000
  20601674.692    -1595401.23049  -1236254.17148  20601674.577    20601682.225
       245.000         214.000
 00  1  4 19 40  0.0000000  0  8G10G 3G31G27G 2G13G18G19
  24080825.935    -1906621.23649  -1477713.03645  24080824.542    24080836.357
       210.000         146.000
  24579872.153     1378644.58149   1066911.77945  24579872.318    24579885.292
       209.000         141.000
  21845041.085     -719196.41149   -557146.09847  21845040.593    21845048.816
       232.000         191.000
  21011241.446    -3511982.20549  -2709972.43947  21011241.500    21011248.967
       242.000         211.000
  22346095.684    -4012719.44549  -2893107.51447  22346095.090    22346103.980
       236.000         197.000
  21067790.577    -3794582.58349  -2940548.92247  21067790.962    21067797.066
       243.000         210.000
  21403104.161     1407761.70249   1091745.13447  21403104.239    21403112.024
       241.000         204.000
  20603052.318    -1588161.95949  -1230613.19848  20603052.304    20603059.831
       245.000         214.000
 00  1  4 19 40 30.0000000  0  8G10G 3G31G27G 2G13G18G19
  24081297.214    -1904144.48249  -1475783.09645  24081295.966    24081309.164
       209.000         147.000
  24596021.195     1463508.17049   1133039.09945  24596020.699    24596034.102
       209.000         141.000
  21851899.612     -683154.74449   -529061.73347  21851899.275    21851907.174
       232.000         191.000
  21003283.491    -3553801.67449  -2742559.01947  21003283.150    21003290.508
       241.000         211.000
  22336203.560    -4064702.86949  -2933614.05247  22336203.048    22336211.656
       236.000         197.000
  21059755.357    -3836807.94649  -2973451.79547  21059755.565    21059761.789
       243.000         210.000
  21419134.456     1492001.18549   1157386.22347  21419134.442    21419142.600
       240.000         204.000
  20604476.497    -1580677.93849  -1224781.50848  20604476.618    20604483.957
       245.000         214.000
 00  1  4 19 41  0.0000000  0  8G10G 3G31G27G 2G13G18G19
  24081863.925    -1901166.46349  -1473462.55845  24081863.263    24081875.250
       211.000         147.000
  24612231.915     1548695.70649   1199418.85345  24612232.546    24612244.811
       209.000         143.000
  21858867.430     -646538.75049   -500529.83847  21858867.381    21858875.680
       232.000         191.000
  20995349.645    -3595493.87049  -2775046.43047  20995349.292    20995356.891
       241.000         211.000
  22326360.672    -4116427.73749  -2973919.12447  22326360.023    22326369.043
       235.000         197.000
  21051811.758    -3878551.86249  -3005979.51147  21051811.994    21051818.226
       243.000         210.000
  21435240.020     1576636.12349   1223335.45147  21435240.102    21435248.021
       241.000         203.000
  20605943.734    -1572967.65949  -1218773.51448  20605943.862    20605951.098
       245.000         214.000
 00  1  4 19 41 30.0000000  0  8G10G 3G31G27G 2G13G18G19
  24082525.636    -1897689.49249  -1470753.25445  24082525.834    24082536.680
       208.000         148.000
  24628501.292     1634191.09549   1266038.49145  24628502.013    24628515.052
       210.000         144.000
  21865945.259     -609344.74449   -471547.55047  21865945.061    21865953.218
       232.000         191.000
  20987440.333    -3637057.62549  -2807433.76047  20987440.197    20987447.730
       242.000         211.000
  22316565.374    -4167902.12349  -3014029.01547  22316564.994    22316573.718
       235.000         197.000
  21043956.659    -3919830.64649  -3038144.78847  21043957.042    21043963.373
       243.000         210.000
  21451415.982     1661640.96949   1289572.92247  21451416.333    21451424.019
       240.000         203.000
  20607449.374    -1565055.62749  -1212608.31348  20607449.450    20607456.913
       245.000         214.000
 00  1  4 19 42  0.0000000  0  8G10G 3G31G27G 2G13G18G19
  24083279.085    -1893730.43949  -1467668.28645  24083278.613    24083291.271
       210.000         147.000
  24644825.094     1719972.30849   1332880.85245  24644825.083    24644837.001
       208.000         144.000
  21873136.538     -571554.46349   -442100.63247  21873136.543    21873144.653
       231.000         191.000
  20979553.439    -3678503.55549  -2839729.27347  20979553.048    20979560.537
       242.000         211.000
  22306814.718    -4219142.24249  -3053956.36347  22306814.124    22306822.663
       236.000         198.000
  21036188.282    -3960653.86549  -3069955.07347  21036188.520    21036194.664
       243.000         210.000
  21467657.022     1746987.84749   1356076.91547  21467657.200    21467665.085
       240.000         203.000
  20608990.806    -1556955.65949  -1206296.65948  20608990.803    20608998.127
       245.000         215.000
 00  1  4 19 42 30.0000000  0  7G10G31G27G 2G13G18G19
  24084129.710    -1889260.17049  -1464184.95445  24084128.615    24084140.708
       209.000         147.000
  21880450.899     -533117.58649   -412149.87747  21880450.519    21880458.636
       232.000         191.000
  20971697.711    -3719785.51149  -2871897.02047  20971697.496    20971705.166
       242.000         211.000
  22297115.547    -4270111.71549  -3093672.81847  22297114.939    22297123.743
       236.000         198.000
  21028511.505    -4000995.44749  -3101390.06147  21028511.914    21028517.918
       243.000         210.000
  21483966.489     1832694.63249   1422861.35447  21483966.569    21483974.571
       240.000         203.000
  20610578.596    -1548611.86249  -1199795.01348  20610578.503    20610586.010
       245.000         215.000
 00  1  4 19 43  0.0000000  0  7G10G31G27G 2G13G18G19
  24085070.795    -1884316.87449  -1460333.04745  24085069.813    24085081.382
       211.000         147.000
  21887878.169     -494087.37849   -381736.78547  21887877.997    21887886.236
       233.000         191.000
  20963869.284    -3760924.19149  -2903953.12147  20963868.985    20963876.676
       242.000         212.000
  22287458.610    -4320859.40849  -3133216.46647  22287458.204    22287466.962
       236.000         198.000
  21020919.328    -4040892.62849  -3132478.76647  21020919.790    21020925.843
       243.000         210.000
  21500338.054     1918727.52849   1489899.89747  21500338.176    21500346.300
       240.000         203.000
  20612209.412    -1540041.93249  -1193117.15848  20612209.494    20612217.012
       245.000         215.000
 00  1  4 19 43 30.0000000  0  7G10G31G27G 2G13G18G19
  24086097.885    -1878921.52749  -1456128.88545  24086097.052    24086108.945
       213.000         148.000
  21895411.508     -454499.63749   -350889.25347  21895411.212    21895419.427
       232.000         191.000
  20956065.279    -3801934.52849  -2935909.21747  20956064.818    20956072.612
       242.000         212.000
  22277839.937    -4371405.79849  -3172603.25547  22277839.273    22277847.895
       237.000         198.000
  21013410.525    -4080351.55149  -3163225.97047  21013410.768    21013417.090
       243.000         211.000
  21516770.596     2005080.69149   1557188.00347  21516770.790    21516778.650
       240.000         202.000
  20613881.951    -1531252.77849  -1186268.47448  20613881.857    20613889.300
       245.000         214.000
 00  1  4 19 44  0.0000000  0  7G10G31G27G 2G13G18G19
  24087214.636    -1873052.56549  -1451555.66945  24087212.490    24087225.291
       205.000         147.000
  21903051.744     -414350.15449   -319603.99047  21903051.063    21903059.576
       232.000         190.000
  20948292.254    -3842782.16849  -2967738.53747  20948291.949    20948299.327
       242.000         212.000
  22268264.884    -4421722.95349  -3211811.41747  22268264.291    22268273.091
       237.000         198.000
  21005994.276    -4119324.11049  -3193594.18447  21005994.802    21006000.814
       243.000         211.000
  21533269.544     2091782.72149   1624747.94947  21533269.748    21533277.684
       240.000         202.000
  20615603.765    -1522204.62149  -1179217.97148  20615603.685    20615611.024
       245.000         214.000
 00  1  4 19 44 30.0000000  0  7G10G31G27G 2G13G18G19
  24088429.325    -1866666.19649  -1446579.29245  24088428.538    24088440.409
       210.000         146.000
  21910800.694     -373629.39849   -287873.57947  21910800.369    21910808.443
       231.000         190.000
  20940557.876    -3883426.63249  -2999409.54847  20940557.724    20940565.085
       242.000         212.000
  22258740.716    -4471772.64649  -3250811.17547  22258740.335    22258748.607
       236.000         199.000
  20998680.022    -4157760.87249  -3223544.89747  20998680.466    20998686.439
       243.000         211.000
  21549845.437     2178889.14949   1692623.00747  21549845.542    21549853.310
       240.000         201.000
  20617382.168    -1512859.09449  -1171935.75648  20617382.233    20617389.803
       245.000         214.000
 00  1  4 19 45  0.0000000  0  7G10G31G27G 2G13G18G19
  24089747.893    -1859737.52049  -1441180.33845  24089746.545    24089759.446
       208.000         146.000
  21918659.083     -332333.54349   -255695.03447  21918658.768    21918667.518
       231.000         190.000
  20932863.433    -3923861.24849  -3030917.03747  20932863.100    20932870.657
       242.000         212.000
  22249268.781    -4521547.78449  -3289596.99247  22249268.392    22249277.138
       236.000         199.000
  20991472.257    -4195638.04549  -3253059.56647  20991472.616    20991478.687
       243.000         211.000
  21566503.575     2266427.82149   1760834.87847  21566503.240    21566511.738
       238.000         201.000
  20619217.952    -1503212.18249  -1164418.69548  20619217.952    20619225.405
       245.000         214.000
 00  1  4 19 45 30.0000000  0  7G10G31G27G 2G13G18G19
  24091169.429    -1852266.24449  -1435358.55745  24091168.581    24091181.021
       204.000         147.000
  21926631.164     -290440.21649   -223050.93747  21926630.849    21926638.983
       231.000         190.000
  20925207.183    -3964095.04149  -3062268.04247  20925206.911    20925214.325
       242.000         212.000
  22239849.574    -4571046.13449  -3328167.12647  22239849.093    22239857.614
       237.000         199.000
  20984373.638    -4232941.43549  -3282127.13647  20984373.980    20984380.087
       243.000         211.000
  21583242.392     2354390.85249   1829377.41547  21583242.272    21583250.692
       238.000         200.000
  20621110.589    -1493266.39549  -1156668.74748  20621110.272    20621117.963
       245.000         214.000
 00  1  4 19 46  0.0000000  0  7G10G31G27G 2G13G18G19
  24092691.845    -1844265.55149  -1429124.25945  24092689.848    24092702.265
       206.000         146.000
  21934719.949     -247933.46949   -189928.83847  21934719.460    21934728.067
       231.000         190.000
  20917587.956    -4004134.39149  -3093467.52847  20917587.625    20917595.149
       242.000         212.000
  22230481.489    -4620275.84649  -3366527.92947  22230481.208    22230489.718
       236.000         199.000
  20977381.325    -4269686.29849  -3310759.48747  20977381.741    20977387.808
       243.000         211.000
  21600060.150     2442768.48249   1898243.01947  21600059.970    21600068.417
       238.000         200.000
  20623057.685    -1483034.60849  -1148695.94548  20623057.514    20623065.147
       245.000         214.000
 00  1  4 19 46 30.0000000  0  7G10G31G27G 2G13G18G19
  24094312.386    -1835750.01649  -1422488.80645  24094311.875    24094323.558
       209.000         146.000
  21942925.404     -204813.91349   -156329.22147  21942925.559    21942933.668
       231.000         190.000
  20910000.716    -4044005.73549  -3124536.10447  20910000.658    20910007.931
       242.000         212.000
  22221158.188    -4669270.16249  -3404705.31347  22221157.663    22221166.298
       237.000         200.000
  20970489.200    -4305904.61949  -3338981.55447  20970489.542    20970495.701
       243.000         211.000
  21616953.146     2531541.65849   1967416.83547  21616953.155    21616961.331
       237.000         199.000
  20625055.327    -1472536.81649  -1140515.87048  20625055.301    20625062.748
       245.000         214.000
 00  1  4 19 47  0.0000000  0  7G10G31G27G 2G13G18G19
  24096027.367    -1826738.77049  -1415467.06445  24096026.928    24096038.859
       207.000         147.000
  21951246.935     -161084.43549   -122254.34247  21951246.718    21951254.680
       232.000         190.000
  20902441.757    -4083728.27749  -3155488.72947  20902441.511    20902448.947
       242.000         212.000
  22211873.402    -4718062.12049  -3442725.01347  22211873.120    22211881.749
       237.000         200.000
  20963694.198    -4341612.71049  -3366806.03847  20963694.506    20963700.641
       243.000         212.000
  21633913.422     2620668.10749   2036865.93447  21633913.643    21633921.891
       237.000         199.000
  20627100.687    -1461788.53249  -1132140.60248  20627100.366    20627108.123
       245.000         214.000
 00  1  4 19 47 30.0000000  0  7G10G31G27G 2G13G18G19
  24097831.854    -1817255.78049  -1408077.73045  24097831.169    24097844.361
       208.000         147.000
  21959682.944     -116752.97349    -87710.39647  21959682.488    21959691.210
       231.000         189.000
  20894909.927    -4123308.25949  -3186330.27147  20894909.675    20894917.136
       242.000         212.000
  22202624.937    -4766663.19449  -3480595.97247  22202624.193    22202633.276
       237.000         200.000
  20956992.065    -4376832.65749  -3394250.14747  20956992.346    20956998.619
       243.000         212.000
  21650936.386     2710124.22049   2106571.91347  21650936.159    21650944.893
       237.000         199.000
  20629191.826    -1450799.53349  -1123577.76348  20629191.868    20629199.356
       245.000         214.000
 00  1  4 19 48  0.0000000  0  7G10G31G27G 2G13G18G19
  24099725.008    -1807307.32849  -1400325.67945  24099724.118    24099736.227
       210.000         147.000
  21968228.256      -71847.14949    -52718.89247  21968227.922    21968236.412
       231.000         189.000
  20887405.734    -4162743.05449  -3217058.68447  20887405.420    20887413.015
       242.000         212.000
  22193415.747    -4815057.52949  -3518305.83147  22193415.348    22193423.866
       237.000         200.000
  20950378.755    -4411585.87649  -3421330.57247  20950379.134    20950385.391
       243.000         212.000
  21668022.745     2799913.32849   2176537.37247  21668022.830    21668031.062
       237.000         198.000
  20631328.688    -1439570.37749  -1114827.78948  20631328.578    20631336.084
       245.000         214.000
 00  1  4 19 48 30.0000000  0  7G10G31G27G 2G13G18G19
  24101709.199    -1796881.34849  -1392201.55045  24101708.504    24101720.480
       208.000         148.000
  21976878.421      -26390.37649    -17298.08847  21976878.763    21976886.998
       231.000         189.000
  20879929.449    -4202031.23949  -3247672.84847  20879929.436    20879936.728
       242.000         212.000
  22184249.117    -4863228.48949  -3555841.63647  22184248.654    22184257.472
       239.000         200.000
  20943856.230    -4445861.99449  -3448039.23447  20943856.490    20943862.737
       243.000         212.000
  21685171.005     2890027.68049   2246756.26147  21685171.168    21685179.507
       237.000         198.000
  20633514.405    -1428084.53449  -1105877.80148  20633514.395    20633522.037
       245.000         214.000
 00  1  4 19 49  0.0000000  0  7G10G31G27G 2G13G18G19
  24103784.832    -1785973.04249  -1383701.55045  24103783.548    24103796.280
       208.000         148.000
  21985632.659       19613.04249     18548.66947  21985632.613    21985640.982
       231.000         189.000
  20872483.438    -4241160.33049  -3278163.04147  20872483.161    20872490.787
       242.000         212.000
  22175131.581    -4911141.48149  -3593176.42747  22175131.006    22175139.918
       239.000         201.000
  20937426.117    -4479652.42049  -3474369.43847  20937426.451    20937432.551
       243.000         212.000
  21702382.129     2980472.34149   2317232.53547  21702382.313    21702390.459
       237.000         198.000
  20635752.796    -1416321.79149  -1096712.04448  20635752.706    20635760.183
       245.000         214.000
 00  1  4 19 49 30.0000000  0  7G10G31G27G 2G13G18G19
  24105953.035    -1774578.87649  -1374823.00245  24105952.906    24105965.042
       207.000         149.000
  21994488.110       66148.40649     54809.92247  21994487.733    21994496.735
       231.000         189.000
  20865070.131    -4280117.60949  -3308519.35047  20865069.923    20865077.358
       242.000         212.000
  22166069.551    -4958762.99449  -3630284.08847  22166069.180    22166077.754
       238.000         201.000
  20931087.396    -4512962.64049  -3500325.45447  20931087.729    20931093.858
       243.000         212.000
  21719660.947     3071272.58949   2387985.89047  21719661.211    21719669.367
       237.000         197.000
  20638046.197    -1404269.87649  -1087320.95648  20638046.058    20638053.654
       245.000         214.000
 00  1  4 19 50  0.0000000  0  7G10G31G27G 2G13G18G19
  24108215.545    -1762689.18049  -1365558.30945  24108214.900    24108227.115
       208.000         149.000
  22003444.139      113212.38249     91483.08047  22003443.943    22003452.634
       231.000         188.000
  20857692.335    -4318888.26849  -3338730.24248  20857691.940    20857699.523
       242.000         213.000
  22157064.308    -5006086.06249  -3667159.20147  22157063.804    22157072.532
       238.000         201.000
  20924843.500    -4545774.73749  -3525893.32347  20924843.832    20924849.998
       243.000         212.000
  21737010.274     3162443.35849   2459027.95947  21737010.501    21737018.712
       236.000         197.000
  20640396.226    -1391920.41449  -1077698.01148  20640396.131    20640403.775
       245.000         214.000
 00  1  4 19 50 30.0000000  0  7G10G31G27G 2G13G18G19
  24110574.004    -1750295.33349  -1355900.75845  24110573.547    24110585.551
       208.000         149.000
  22012505.098      160827.82249    128585.95147  22012504.900    22012512.826
       230.000         188.000
  20850353.846    -4357452.19049  -3368780.04748  20850353.800    20850361.116
       242.000         213.000
  22148111.616    -5053132.86649  -3703819.04247  22148110.952    22148119.705
       238.000         201.000
  20918699.614    -4578061.07849  -3551051.51447  20918700.095    20918706.134
       243.000         212.000
  21754430.860     3253988.88749   2530362.04847  21754430.871    21754439.215
       236.000         197.000
  20642802.820    -1379273.79049  -1067843.51248  20642802.505    20642810.291
       245.000         214.000
 00  1  4 19 51  0.0000000  0  7G10G31G27G 2G13G18G19
  24113027.245    -1737403.74849  -1345855.36545  24113027.618    24113038.195
       210.000         151.000
  22021672.418      209002.31749    166124.44947  22021672.044    22021680.709
       230.000         188.000
  20843058.582    -4395789.07949  -3398652.93648  20843058.381    20843065.720
       242.000         213.000
  22139210.637    -5099907.68649  -3740266.94547  22139210.234    22139219.025
       238.000         201.000
  20912657.104    -4609814.66249  -3575794.56247  20912657.389    20912663.708
       244.000         212.000
  21771925.229     3345922.05749   2601998.19847  21771925.350    21771933.892
       236.000         197.000
  20645264.163    -1366339.49849  -1057764.85948  20645264.041    20645271.568
       245.000         214.000
 00  1  4 19 51 30.0000000  0  7G10G31G27G 2G13G18G19
  24115574.770    -1724016.19749  -1335423.50945  24115574.145    24115586.576
       209.000         149.000
  22030947.923      257745.20149    204105.85347  22030947.502    22030956.110
       230.000         188.000
  20835809.503    -4433883.16049  -3428336.62648  20835809.249    20835816.753
       242.000         213.000
  22130357.920    -5146428.96949  -3776517.29547  22130357.392    22130366.170
       238.000         201.000
  20906718.414    -4641022.78749  -3600112.58647  20906718.650    20906724.898
       244.000         212.000
  21789493.849     3438245.30049   2673938.30147  21789493.548    21789502.521
       236.000         197.000
  20647778.006    -1353129.35549  -1047471.25948  20647778.011    20647785.726
       245.000         214.000
 00  1  4 19 52  0.0000000  0  7G10G31G27G 2G13G18G19
  24118217.819    -1710127.50749  -1324601.15845  24118216.456    24118229.604
       210.000         149.000
  22040336.111      307080.09849    242548.57046  22040335.803    22040344.244
       230.000         187.000
  20828607.411    -4471730.53249  -3457828.06848  20828607.065    20828614.535
       243.000         213.000
  22121549.339    -5192718.27249  -3812586.87747  22121548.711    22121557.464
       238.000         201.000
  20900886.470    -4671669.95149  -3623993.49647  20900886.907    20900893.015
       244.000         212.000
  21807133.401     3530941.46749   2746168.98747  21807133.306    21807141.910
       236.000         196.000
  20650343.718    -1339646.65349  -1036965.27548  20650343.485    20650351.192
       245.000         213.000
 00  1  4 19 52 30.0000000  0  7G10G31G27G 2G13G18G19
  24120954.992    -1695744.32249  -1313393.48445  24120954.371    24120966.715
       208.000         149.000
  22049837.659      357010.85649    281455.60746  22049837.155    22049845.678
       230.000         187.000
  20821449.138    -4509347.53949  -3487140.00648  20821449.071    20821456.350
       243.000         213.000
  22112784.782    -5238776.38449  -3848476.31447  22112784.338    22112792.854
       238.000         202.000
  20895159.689    -4701764.44349  -3647443.75248  20895160.002    20895166.268
       243.000         213.000
  21824839.230     3623985.74049   2818670.92647  21824839.558    21824847.752
       235.000         196.000
  20652961.147    -1325891.83149  -1026247.25248  20652960.973    20652968.737
       244.000         213.000
 00  1  4 19 53  0.0000000  0  7G10G31G27G 2G13G18G19
  24123785.031    -1680871.71149  -1301804.44145  24123784.082    24123796.178
       208.000         149.000
  22059450.487      407526.13549    320818.10546  22059450.240    22059458.816
       230.000         187.000
  20814330.795    -4546754.66049  -3516288.39948  20814330.739    20814338.177
       243.000         213.000
  22104067.334    -5284587.03449  -3884172.92147  22104066.733    22104075.313
       238.000         202.000
  20889535.410    -4731320.27449  -3670474.27348  20889535.865    20889541.929
       244.000         213.000
  21842608.402     3717362.78249   2891432.16447  21842608.767    21842617.295
       235.000         196.000
  20655631.326    -1311859.80749  -1015313.22648  20655631.194    20655638.970
       244.000         213.000
 00  1  4 19 53 30.0000000  0  7G10G31G27G 2G13G18G19
  24126708.196    -1665510.67049  -1289834.79445  24126707.358    24126719.074
       207.000         148.000
  22069173.992      458623.19949    360633.95546  22069173.529    22069182.346
       230.000         187.000
  20807246.734    -4583981.57949  -3545296.37448  20807246.583    20807254.060
       243.000         213.000
  22095394.403    -5330163.43549  -3919686.99147  22095394.037    22095402.808
       238.000         202.000
  20884012.373    -4760344.11049  -3693090.25048  20884012.909    20884018.891
       243.000         213.000
  21860437.391     3811054.38249   2964438.51847  21860437.124    21860446.186
       235.000         195.000
  20658353.780    -1297553.40049  -1004165.39648  20658353.729    20658361.454
       244.000         213.000
 00  1  4 19 54  0.0000000  0  7G10G31G27G 2G13G18G19
  24129721.926    -1649672.57449  -1277493.40845  24129721.651    24129732.879
       207.000         148.000
  22079007.260      510297.27049    400899.40946  22079006.782    22079015.304
       230.000         187.000
  20800193.239    -4621047.97249  -3574179.26848  20800193.036    20800200.543
       243.000         214.000
  22086766.643    -5375502.58549  -3955016.19547  22086766.040    22086774.869
       239.000         202.000
  20878587.207    -4788853.53149  -3715305.38348  20878587.535    20878593.788
       244.000         213.000
  21878321.439     3905035.23449   3037670.25947  21878321.513    21878330.521
       235.000         195.000
  20661127.692    -1282976.52549   -992806.81248  20661127.739    20661135.534
       244.000         213.000
 00  1  4 19 54 30.0000000  0  7G10G31G27G 2G13G18G19
  24132823.696    -1633373.17349  -1264792.60045  24132823.064    24132835.494
       208.000         148.000
  22088946.255      562526.77049    441597.67046  22088946.191    22088955.205
       230.000         186.000
  20793166.690    -4657972.80549  -3602951.85348  20793166.320    20793173.891
       242.000         213.000
  22078184.413    -5420602.54649  -3990159.01247  22078184.001    22078192.556
       238.000         203.000
  20873259.078    -4816853.23049  -3737123.32448  20873259.263    20873265.489
       243.000         213.000
  21896259.331     3999299.19649   3111122.60947  21896259.505    21896268.025
       235.000         195.000
  20663952.072    -1268134.54749   -981241.65348  20663951.874    20663959.721
       244.000         213.000
 00  1  4 19 55  0.0000000  0  8G10G31G27G 2G13G18G19G 7
  24136009.207    -1616633.66349  -1251748.82545  24136008.389    24136019.519
       209.000         149.000
  22098986.216      615286.71049    482709.25146  22098986.300    22098994.869
       230.000         186.000
  20786166.111    -4694760.95049  -3631617.93348  20786165.747    20786173.356
       242.000         213.000
  22069645.308    -5465475.91949  -4025125.26647  22069644.863    22069653.719
       239.000         203.000
  20868026.703    -4844349.43449  -3758548.93648  20868027.165    20868033.278
       243.000         213.000
  21914249.668     4093838.96749   3184789.87447  21914249.930    21914258.278
       235.000         195.000
  20666825.037    -1253037.01549   -969477.36348  20666824.935    20666832.739
       244.000         213.000
  24581572.269    -2175843.93149  -1667310.06545  24581571.662    24581585.183
       215.000         135.000
 00  1  4 19 55 30.0000000  0  8G10G31G27G 2G13G18G19G 7
  24139281.429    -1599438.39249  -1238349.91445  24139280.564    24139292.740
       210.000         150.000
  22109129.305      668588.93349    524243.39046  22109129.028    22109137.757
       228.000         186.000
  20779196.125    -4731388.37849  -3660158.78248  20779195.752    20779203.360
       242.000         213.000
  22061149.916    -5510119.54249  -4059912.50247  22061149.344    22061158.125
       239.000         203.000
  20862894.169    -4871321.06949  -3779565.79048  20862894.359    20862900.616
       243.000         213.000
  21932296.783     4188676.77449   3258689.37447  21932297.197    21932305.799
       235.000         194.000
  20669749.062    -1237671.32749   -957504.12248  20669748.991    20669756.742
       244.000         213.000
  24561379.765    -2281956.40449  -1749995.02245  24561378.541    24561391.727
       213.000         135.000
 00  1  4 19 56  0.0000000  0  8G10G31G27G 2G13G18G19G 7
  24142641.568    -1581780.73749  -1224590.71345  24142641.327    24142652.711
       210.000         151.000
  22119377.531      722443.57649    566207.98146  22119377.404    22119385.837
       230.000         186.000
  20772263.129    -4767821.55249  -3688548.25848  20772262.842    20772270.244
       243.000         213.000
  22052703.515    -5554505.24549  -4094498.74647  22052702.901    22052711.557
       239.000         203.000
  20857866.424    -4897742.14649  -3800153.63248  20857866.839    20857872.973
       243.000         213.000
  21950404.800     4283834.65349   3332838.28147  21950404.961    21950413.604
       235.000         194.000
  20672727.769    -1222018.07849   -945306.81048  20672727.519    20672735.554
       244.000         213.000
  24541181.824    -2388097.93449  -1832702.55745  24541181.494    24541194.231
       211.000         135.000
 00  1  4 19 56 30.0000000  0  8G10G31G27G 2G13G18G19G 7
  24146092.543    -1563645.44049  -1210459.32745  24146091.938    24146103.297
       212.000         152.000
  22129729.642      776843.64349    608597.57546  22129729.687    22129737.936
       229.000         186.000
  20765369.547    -4804047.53449  -3716776.28348  20765369.354    20765376.690
       243.000         213.000
  22044308.401    -5598622.05349  -4128875.46947  22044307.813    22044316.746
       239.000         203.000
  20852947.679    -4923590.29849  -3820295.03748  20852948.084    20852954.146
       244.000         213.000
  21968577.997     4379334.89649   3407253.96447  21968578.230    21968586.750
       235.000         194.000
  20675762.599    -1206070.00249   -932879.76648  20675762.617    20675770.309
       245.000         213.000
  24520984.129    -2494237.67949  -1915408.69545  24520983.007    24520997.297
       208.000         138.000
 00  1  4 19 57  0.0000000  0  8G10G31G27G 2G13G18G19G 7
  24149635.211    -1545027.92349  -1195952.20145  24149634.796    24149646.578
       214.000         151.000
  22140185.686      831790.48449    651413.22446  22140185.608    22140193.829
       229.000         185.000
  20758519.457    -4840045.03449  -3744826.27248  20758519.186    20758526.705
       243.000         213.000
  22035964.451    -5642470.02649  -4163042.70447  22035963.900    22035972.808
       240.000         203.000
  20848137.312    -4948868.94849  -3839992.67748  20848137.585    20848143.764
       244.000         213.000
  21986818.148     4475187.05549   3481943.87347  21986818.262    21986826.773
       234.000         193.000
  20678855.343    -1189817.53349   -920215.53548  20678855.366    20678862.931
       244.000         213.000
  24500794.069    -2600336.65349  -1998083.07045  24500793.364    24500806.588
       203.000         139.000
 00  1  4 19 57 30.0000000  0  8G10G31G27G 2G13G18G19G 7
  24153270.131    -1525926.33849  -1181067.86945  24153269.929    24153281.439
       212.000         152.000
  22150746.392      887287.25549    694657.38746  22150746.517    22150754.968
       229.000         185.000
  20751712.291    -4875816.76449  -3772700.33448  20751712.039    20751719.348
       242.000         214.000
  22027670.536    -5686054.89849  -4197004.92947  22027670.051    22027678.532
       239.000         203.000
  20843434.761    -4973581.02549  -3859248.82848  20843435.070    20843441.178
       244.000         213.000
  22005124.402     4571386.74349   3556904.57547  22005124.729    22005133.249
       235.000         193.000
  20682002.925    -1173277.21149   -907327.00248  20682002.857    20682010.636
       244.000         213.000
  24480613.620    -2706384.77949  -2080717.80745  24480613.104    24480625.335
       200.000         139.000
 00  1  4 19 58  0.0000000  0  8G10G31G27G 2G13G18G19G 7
  24156995.558    -1506349.81549  -1165813.47445  24156994.880    24157006.750
       211.000         153.000
  22161409.981      943324.48349    738322.67946  22161410.105    22161418.362
       228.000         185.000
  20744947.727    -4911364.86249  -3800400.14248  20744947.582    20744954.980
       242.000         214.000
  22019426.785    -5729375.96849  -4230761.58347  22019426.238    22019434.738
       239.000         203.000
  20838839.233    -4997730.66049  -3878066.71648  20838839.582    20838845.694
       244.000         213.000
  22023493.222     4667915.10549   3632121.38947  22023493.253    22023502.334
       235.000         193.000
  20685204.372    -1156453.53249   -894217.67848  20685204.491    20685212.163
       244.000         213.000
  24460443.991    -2812375.95549  -2163308.15745  24460443.188    24460457.825
       200.000         138.000
 00  1  4 19 58 30.0000000  0  8G10G31G27G 2G13G18G19G 7
  24160811.362    -1486297.46049  -1150188.29645  24160810.669    24160823.349
       211.000         153.000
  22172174.863      999894.12349    782402.84146  22172174.813    22172183.733
       228.000         184.000
  20738224.982    -4946693.14549  -3827928.66548  20738224.916    20738232.344
       242.000         214.000
  22011231.532    -5772442.22149  -4264319.67047  22011230.962    22011239.599
       239.000         204.000
  20834348.289    -5021330.65949  -3896456.31248  20834348.750    20834354.638
       244.000         214.000
  22041923.673     4764767.13749   3707590.42347  22041923.834    22041932.742
       235.000         192.000
  20688461.054    -1139339.90649   -880882.41848  20688461.106    20688468.947
       244.000         213.000
  24440283.822    -2918317.59349  -2245859.92745  24440283.254    24440297.007
       201.000         140.000
 00  1  4 19 59  0.0000000  0  8G10G31G27G 2G13G18G19G 7
  24164717.346    -1465771.81249  -1134194.30745  24164717.654    24164728.310
       214.000         153.000
  22183041.713     1056999.56249    826900.51046  22183041.780    22183050.609
       228.000         184.000
  20731544.346    -4981800.15849  -3855284.76748  20731544.131    20731551.526
       242.000         214.000
  22003082.982    -5815262.98049  -4297686.46747  22003082.393    22003091.021
       239.000         204.000
  20829961.923    -5044381.18849  -3914417.74748  20829962.427    20829968.406
       244.000         214.000
  22060415.642     4861942.69249   3783311.54947  22060415.602    22060424.897
       234.000         192.000
  20691772.937    -1121936.07449   -867321.02048  20691772.794    20691780.742
       244.000         213.000
  24420129.537    -3024229.01649  -2328388.14545  24420127.757    24420142.543
       201.000         143.000
 00  1  4 19 59 30.0000000  0  8G10G31G27G 2G13G18G19G 7
  24168714.555    -1444766.82649  -1117826.80145  24168714.157    24168726.232
       214.000         154.000
  22194010.416     1114640.04149    871815.09346  22194010.796    22194018.904
       229.000         184.000
  20724906.091    -5016684.19449  -3882467.12548  20724905.916    20724913.391
       242.000         214.000
  21994981.264    -5857837.84749  -4330861.65347  21994980.922    21994989.525
       240.000         204.000
  20825680.132    -5066882.18949  -3931950.98448  20825680.491    20825686.662
       244.000         214.000
  22078967.310     4959432.35449   3859277.43047  22078967.599    22078976.501
       232.000         191.000
  20695136.820    -1104258.72449   -853546.49148  20695136.795    20695144.478
       244.000         213.000
  24399977.364    -3130128.46149  -2410907.03545  24399976.098    24399989.736
       206.000         146.000
 00  1  4 20  0  0.0000000  0  8G10G31G27G 2G13G18G19G 7
  24172801.963    -1423287.77649  -1101089.89245  24172801.498    24172812.995
       212.000         153.000
  22205080.308     1172812.10249    917143.90646  22205080.183    22205088.406
       228.000         184.000
  20718311.200    -5051340.80549  -3909472.27248  20718310.842    20718318.326
       242.000         214.000
  21986924.505    -5900176.30749  -4363852.62147  21986923.939    21986932.594
       240.000         204.000
  20821501.361    -5088841.85949  -3949062.39948  20821501.744    20821507.821
       244.000         214.000
  22097578.790     5057235.95149   3935487.93247  22097579.254    22097587.408
       232.000         191.000
  20698554.295    -1086299.90949   -839552.64247  20698554.219    20698561.782
       244.000         212.000
  24379826.977    -3236019.43349  -2493419.32645  24379826.297    24379839.620
       209.000         150.000
 00  1  4 20  0 30.0000000  0  8G10G31G27G 2G13G18G19G 7
  24176978.874    -1401338.08949  -1083986.26945  24176978.296    24176989.210
       215.000         153.000
  22216252.084     1231519.57249    962889.92546  22216252.309    22216260.255
       228.000         184.000
  20711758.882    -5085773.47949  -3936302.92948  20711758.608    20711765.999
       242.000         214.000
  21978910.641    -5942289.46649  -4396668.02847  21978910.097    21978918.542
       240.000         205.000
  20817425.538    -5110260.46749  -3965752.21148  20817425.796    20817432.028
       244.000         214.000
  22116251.895     5155363.27849   4011950.69247  22116252.127    22116260.545
       232.000         190.000
  20702023.550    -1068068.92249   -825346.70847  20702023.687    20702031.272
       244.000         212.000
  24359676.091    -3341912.73749  -2575933.40845  24359674.848    24359688.209
       211.000         153.000
 00  1  4 20  1  0.0000000  0  8G10G31G27G 2G13G18G19G 7
  24181244.747    -1378920.60049  -1066518.12045  24181243.803    24181254.916
       212.000         153.000
  22227525.989     1290764.19549   1009054.50046  22227526.034    22227534.868
       228.000         184.000
  20705250.311    -5119976.25549  -3962954.44348  20705250.114    20705257.661
       242.000         214.000
  21970938.215    -5984185.05649  -4429313.89447  21970937.566    21970946.198
       239.000         205.000
  20813451.296    -5131145.29149  -3982026.08948  20813451.717    20813457.715
       244.000         214.000
  22134984.250     5253802.17649   4088656.22847  22134984.299    22134993.217
       232.000         190.000
  20705540.240    -1049588.93849   -810946.74947  20705540.313    20705548.022
       244.000         212.000
  24339526.280    -3447800.17549  -2658442.91445  24339525.947    24339538.166
       212.000         154.000
 00  1  4 20  1 30.0000000  0  8G10G31G27G 2G13G18G19G 7
  24185595.989    -1356055.09849  -1048700.87645  24185595.141    24185608.109
       212.000         154.000
  22238899.710     1350533.41649   1055627.85446  22238899.650    22238907.826
       228.000         184.000
  20698783.871    -5153957.65549  -3989433.45848  20698783.530    20698791.085
       242.000         214.000
  21963005.594    -6025871.03049  -4461796.42147  21963005.118    21963013.422
       239.000         205.000
  20809576.159    -5151509.27149  -3997894.11948  20809576.540    20809582.516
       244.000         214.000
  22153772.906     5352536.73049   4165592.14747  22153773.042    22153781.688
       232.000         190.000
  20709104.821    -1030857.14849   -796350.57947  20709104.755    20709112.412
       244.000         212.000
  24319379.631    -3553670.92549  -2740939.39345  24319378.185    24319391.672
       214.000         155.000
 00  1  4 20  2  0.0000000  0  8G10G31G27G 2G13G18G19G 7
  24190029.515    -1332756.95349  -1030546.52145  24190029.281    24190040.584
       214.000         154.000
  22250371.903     1410819.94149   1102604.30346  22250371.598    22250380.369
       228.000         183.000
  20692356.301    -5187734.68049  -4015753.22148  20692356.130    20692363.540
       242.000         214.000
  21955113.661    -6067343.33349  -4494112.45147  21955112.992    21955121.756
       240.000         205.000
  20805800.689    -5171349.55449  -4013354.07748  20805801.134    20805806.982
       244.000         214.000
  22172617.216     5451563.73449   4242755.94047  22172617.336    22172626.317
       231.000         190.000
  20712721.015    -1011854.11749   -781543.05047  20712721.062    20712728.885
       244.000         212.000
  24299237.391    -3659518.71649  -2823417.95945  24299235.999    24299249.821
       213.000         155.000
 00  1  4 20  2 30.0000000  0  8G10G31G27G 2G13G18G19G 7
  24194545.700    -1309024.08549  -1012053.42745  24194545.475    24194557.818
       212.000         155.000
  22261942.438     1471623.35049   1149983.53146  22261942.478    22261950.711
       228.000         183.000
  20685966.529    -5221313.18649  -4041918.29748  20685966.144    20685973.772
       242.000         214.000
  21947265.038    -6108587.86749  -4526251.00347  21947264.425    21947273.118
       240.000         205.000
  20802127.947    -5190650.01249  -4028393.38948  20802128.196    20802134.363
       244.000         214.000
  22191515.384     5550874.03649   4320140.48747  22191515.683    22191525.143
       231.000         189.000
  20716389.611     -992575.67249   -766520.91647  20716389.562    20716397.366
       244.000         212.000
  24279102.170    -3765329.20349  -2905867.43745  24279101.248    24279113.685
       211.000         153.000
 00  1  4 20  3  0.0000000  0  8G10G31G27G 2G13G18G19G 7
  24199145.161    -1284853.69749   -993219.40045  24199144.741    24199156.761
       213.000         154.000
  22273609.839     1532935.53949   1197759.19846  22273609.441    22273618.116
       227.000         183.000
  20679613.404    -5254699.05349  -4067933.26448  20679613.242    20679620.740
       242.000         214.000
  21939462.469    -6149590.46149  -4558201.02847  21939461.787    21939470.305
       240.000         206.000
  20798558.240    -5209409.03149  -4043010.80548  20798558.448    20798564.596
       244.000         214.000
  22210464.765     5650453.26749   4397734.58147  22210465.025    22210474.089
       231.000         189.000
  20720113.931     -973004.37049   -751270.57747  20720113.944    20720121.731
       244.000         212.000
  24258976.088    -3871091.65449  -2988279.49245  24258975.671    24258987.423
       213.000         150.000
 00  1  4 20  3 30.0000000  0  8G10G31G27G 2G13G18G19G 7
  24203827.896    -1260246.25149   -974044.82145  24203828.338    24203839.322
       215.000         154.000
  22285373.315     1594752.52349   1245928.20246  22285373.027    22285381.744
       227.000         183.000
  20673294.409    -5287905.62849  -4093808.52548  20673294.276    20673301.659
       242.000         214.000
  21931707.285    -6190344.12149  -4589957.08247  21931706.695    21931715.403
       240.000         206.000
  20795095.490    -5227605.73949  -4057190.05548  20795095.935    20795101.974
       244.000         214.000
  22229465.343     5750301.66549   4475538.42047  22229465.781    22229474.913
       231.000         188.000
  20723899.604     -953110.77149   -735769.09147  20723899.453    20723907.506
       244.000         212.000
  24238860.535    -3976798.69849  -3070648.36245  24238859.357    24238872.852
       213.000         148.000
 00  1  4 20  4  0.0000000  0  8G10G31G27G 2G13G18G19G 7
  24208595.940    -1235190.78049   -954521.11945  24208595.848    24208607.003
       212.000         154.000
  22297234.761     1657084.89549   1294498.80446  22297234.286    22297243.170
       226.000         183.000
  20667013.042    -5320914.62249  -4119529.83348  20667012.965    20667020.281
       242.000         214.000
  21924000.520    -6230843.38849  -4621514.91547  21923999.931    21924008.333
       241.000         206.000
  20791743.897    -5245218.53549  -4070914.31248  20791744.075    20791750.261
       244.000         214.000
  22248517.495     5850420.73049   4553553.16947  22248517.592    22248526.492
       231.000         188.000
  20727746.228     -932896.47949   -720017.71247  20727746.180    20727754.305
       244.000         212.000
  24218755.387    -4082451.00049  -3152974.58145  24218753.026    24218767.129
       210.000         145.000
 00  1  4 20  4 30.0000000  0  8G10G31G27G 2G13G18G19G 7
  24213450.979    -1209677.86049   -934640.96345  24213449.608    24213461.916
       210.000         154.000
  22309197.044     1719946.93549   1343482.13046  22309197.444    22309206.359
       227.000         183.000
  20660772.794    -5353707.37249  -4145082.63948  20660772.485    20660780.078
       242.000         214.000
  21916340.252    -6271098.21449  -4652882.27747  21916339.724    21916348.401
       241.000         206.000
  20788504.419    -5262242.10649  -4084179.43548  20788504.728    20788510.844
       244.000         214.000
  22267621.915     5950814.60449   4631782.05547  22267621.956    22267631.315
       231.000         188.000
  20731654.146     -912360.56849   -704015.72347  20731654.035    20731661.945
       244.000         212.000
  24198659.487    -4188054.86349  -3235263.06745  24198657.638    24198671.009
       209.000         145.000
 00  1  4 20  5  0.0000000  0  8G10G31G27G 2G13G18G19G 7
  24218391.407    -1183715.47349   -914410.57845  24218391.327    24218402.584
       213.000         154.000
  22321258.590     1783330.17549   1392871.57746  22321258.634    22321267.312
       227.000         183.000
  20654575.700    -5386273.36649  -4170458.74948  20654575.655    20654583.030
       242.000         214.000
  21908725.722    -6311112.67449  -4684062.34347  21908724.845    21908733.428
       241.000         206.000
  20785374.893    -5278687.89249  -4096994.33348  20785375.254    20785381.299
       244.000         214.000
  22286780.472     6051493.23449   4710232.82347  22286780.403    22286789.433
       231.000         188.000
  20735624.340     -891496.89749   -687758.33347  20735624.246    20735632.018
       244.000         212.000
  24178572.445    -4293612.22649  -3317515.34045  24178571.513    24178583.140
       209.000         144.000
 00  1  4 20  5 30.0000000  0  8G10G31G27G 2G13G18G19G 7
  24223415.789    -1157312.23349   -893836.67245  24223415.548    24223427.922
       211.000         154.000
  22333421.025     1847243.97549   1442674.45446  22333420.675    22333429.735
       227.000         182.000
  20648425.911    -5418590.87349  -4195641.22548  20648425.832    20648433.245
       242.000         214.000
  21901156.705    -6350887.85749  -4715055.96447  21901155.865    21901164.429
       241.000         206.000
  20782355.543    -5294554.67549  -4109358.06648  20782355.864    20782362.034
       244.000         214.000
  22305994.174     6152461.57249   4788909.34446  22305994.521    22306003.756
       230.000         187.000
  20739655.534     -870312.99349   -671251.41047  20739655.525    20739663.289
       244.000         212.000
  24158496.151    -4399112.49749  -3399723.06445  24158495.761    24158507.263
       205.000         146.000
 00  1  4 20  6  0.0000000  0  8G10G31G27G 2G13G18G19G 7
  24228523.501    -1130470.70149   -872921.24345  24228522.303    24228535.079
       211.000         154.000
  22345685.359     1911693.34649   1492894.65146  22345685.004    22345693.935
       226.000         182.000
  20642325.392    -5450649.47049  -4220621.94948  20642325.296    20642332.685
       243.000         214.000
  21893633.128    -6390424.44949  -4745863.67847  21893632.514    21893641.290
       240.000         207.000
  20779442.940    -5309860.71849  -4121284.85948  20779443.321    20779449.351
       244.000         214.000
  22325263.541     6253722.51049   4867813.85946  22325263.771    22325272.253
       230.000         187.000
  20743743.421     -848831.17549   -654512.35247  20743743.345    20743751.289
       243.000         212.000
  24138429.008    -4504564.78649  -3481893.48245  24138427.864    24138441.686
       206.000         149.000
 00  1  4 20  6 30.0000000  0  8G10G31G27G 2G13G18G19G 7
  24233713.090    -1103198.97849   -851670.61045  24233712.970    24233724.099
       213.000         154.000
  22358048.069     1976659.36449   1543517.44046  22358048.085    22358057.275
       226.000         181.000
  20636269.248    -5482474.74749  -4245420.86648  20636269.068    20636276.594
       243.000         214.000
  21886155.778    -6429718.16449  -4776482.14447  21886155.240    21886163.845
       241.000         207.000
  20776633.505    -5324624.37149  -4132789.01448  20776633.786    20776639.876
       244.000         214.000
  22344587.698     6355271.19249   4946942.59846  22344587.584    22344596.457
       230.000         186.000
  20747887.283     -827055.18049   -637544.06347  20747887.316    20747895.159
       244.000         212.000
  24118374.787    -4609949.27549  -3564011.02745  24118373.398    24118385.859
       210.000         150.000
 00  1  4 20  7  0.0000000  0  8G10G31G27G 2G13G18G19G 7
  24238981.782    -1075512.49749   -830096.77345  24238981.972    24238993.941
       211.000         155.000
  22370504.761     2042119.32149   1594525.11446  22370504.792    22370513.466
       227.000         181.000
  20630255.661    -5514076.19349  -4270045.36748  20630255.321    20630262.896
       242.000         214.000
  21878725.928    -6468762.03849  -4806905.92747  21878725.364    21878734.123
       241.000         207.000
  20773927.664    -5338843.64349  -4143868.97548  20773927.919    20773933.994
       244.000         214.000
  22363963.451     6457091.27449   5026282.80346  22363963.830    22363972.952
       229.000         185.000
  20752084.479     -804998.91749   -620357.38147  20752084.531    20752092.305
       244.000         212.000
  24098336.717    -4715249.54849  -3646062.94645  24098335.719    24098347.539
       213.000         152.000
 00  1  4 20  7 30.0000000  0  8G10G31G27G 2G13G18G19G 7
  24244330.302    -1047406.18749   -808195.79845  24244329.010    24244341.342
       210.000         155.000
  22383057.007     2108081.11749   1645923.84846  22383056.502    22383065.582
       226.000         181.000
  20624283.544    -5545459.88549  -4294500.18848  20624283.366    20624290.903
       243.000         215.000
  21871341.532    -6507567.19249  -4837143.69847  21871341.146    21871349.609
       241.000         207.000
  20771326.693    -5352511.83249  -4154519.51948  20771327.069    20771333.102
       244.000         214.000
  22383387.824     6559166.36749   5105821.72646  22383388.283    22383397.015
       230.000         185.000
  20756333.005     -782672.84049   -602960.45847  20756332.950    20756340.749
       244.000         212.000
  24078314.883    -4820464.28249  -3728048.24945  24078314.110    24078326.057
       210.000         151.000
 00  1  4 20  8  0.0000000  0  8G10G31G27G 2G13G18G19G 7
  24249759.453    -1018875.56449   -785964.21345  24249759.331    24249771.734
       214.000         155.000
  22395701.921     2174530.45349   1697702.47646  22395701.089    22395710.757
       225.000         180.000
  20618350.600    -5576637.76449  -4318794.63648  20618350.443    20618357.856
       243.000         215.000
  21864000.155    -6546146.62549  -4867205.57847  21863999.708    21864008.171
       241.000         207.000
  20768832.806    -5365617.44749  -4164731.69948  20768833.186    20768839.245
       244.000         214.000
  22402859.913     6661492.37249   5185556.16046  22402859.893    22402869.532
       229.000         184.000
  20760633.106     -760075.94449   -585352.50947  20760633.113    20760640.995
       244.000         212.000
  24058306.939    -4925605.28049  -3809976.07145  24058305.302    24058318.447
       206.000         149.000
 00  1  4 20  8 30.0000000  0  8G10G31G27G 2G13G18G19G 7
  24255269.126     -989922.43649   -763403.38745  24255268.737    24255280.827
       216.000         156.000
  22408438.562     2241461.68049   1749856.62446  22408438.521    22408447.134
       226.000         180.000
  20612457.238    -5607607.59449  -4342926.96648  20612457.093    20612464.555
       243.000         215.000
  21856703.171    -6584492.47949  -4897085.44947  21856702.520    21856711.169
       241.000         207.000
  20766448.558    -5378146.72149  -4174494.78048  20766448.937    20766455.161
       244.000         214.000
  22422378.645     6764063.47649   5265481.57146  22422379.200    22422388.206
       229.000         183.000
  20764986.606     -737198.37449   -567525.85147  20764986.579    20764994.243
       244.000         212.000
  24038313.262    -5030671.54449  -3891845.67945  24038312.443    24038326.435
       207.000         148.000
 00  1  4 20  9  0.0000000  0  8G10G31G27G 2G13G18G19G 7
  24260860.181     -960542.04249   -740509.61145  24260859.686    24260872.365
       212.000         157.000
  22421270.003     2308890.93049   1802398.83746  22421269.848    22421279.318
       225.000         179.000
  20606608.539    -5638342.81649  -4366876.47648  20606608.322    20606615.718
       243.000         215.000
  21849449.871    -6622608.89849  -4926786.53447  21849449.251    21849457.923
       241.000         208.000
  20764174.179    -5390098.80749  -4183808.10148  20764174.561    20764180.589
       244.000         215.000
  22441945.089     6866885.35249   5345602.40146  22441945.335    22441954.626
       229.000         183.000
  20769394.320     -714036.01649   -549477.28147  20769394.337    20769401.981
       244.000         212.000
  24018329.684    -5135684.23949  -3973673.54945  24018328.157    24018342.054
       209.000         148.000
 00  1  4 20  9 30.0000000  0  8G10G31G27G 2G13G18G19G 7
  24266534.754     -930722.33549   -717273.53645  24266535.207    24266546.917
       214.000         156.000
  22434196.778     2376821.38649   1855331.60346  22434196.329    22434205.736
       225.000         179.000
  20600805.601    -5668837.59049  -4390638.62548  20600805.449    20600812.746
       243.000         215.000
  21842238.813    -6660503.30049  -4956314.61647  21842238.283    21842246.680
       241.000         208.000
  20762008.653    -5401478.75649  -4192675.60448  20762009.010    20762014.970
       244.000         215.000
  22461560.872     6969966.24649   5425925.05446  22461560.845    22461570.007
       229.000         183.000
  20773855.593     -690592.00249   -531209.24647  20773855.639    20773863.383
       244.000         212.000
  23998352.745    -5240662.57449  -4055474.67845  23998351.967    23998364.061
       208.000         149.000
 00  1  4 20 10  0.0000000  0  9G10G31G27G 2G13G 8G18G19G 7
  24272289.961     -900478.75049   -693707.14445  24272289.004    24272301.589
       212.000         155.000
  22447216.328     2445239.40749   1908644.30046  22447216.316    22447225.175
       225.000         179.000
  20595047.719    -5699095.40849  -4414216.13248  20595047.545    20595054.833
       243.000         215.000
  21835072.625    -6698161.73949  -4985658.82547  21835071.954    21835080.580
       243.000         208.000
  20759951.019    -5412291.83749  -4201101.38848  20759951.415    20759957.452
       244.000         215.000
  24366547.938    -5581404.89649  -4050501.65245  24366547.530    24366561.119
       207.000         142.000
  22481227.422     7073314.01749   5506455.66946  22481227.710    22481236.453
       229.000         183.000
  20778371.959     -666858.52249   -512715.65447  20778371.743    20778379.609
       244.000         212.000
  23978381.233    -5345613.15949  -4137254.17345  23978380.782    23978393.523
       212.000         151.000
 00  1  4 20 10 30.0000000  0  9G10G31G27G 2G13G 8G18G19G 7
  24278124.999     -869814.97549   -669813.33145  24278123.895    24278135.684
       210.000         153.000
  22460330.097     2514152.41949   1962342.69046  22460329.178    22460339.014
       225.000         179.000
  20589336.009    -5729110.75649  -4437604.70648  20589335.959    20589343.212
       243.000         215.000
  21827954.732    -6735566.43349  -5014805.30947  21827954.192    21827962.743
       242.000         208.000
  20758000.555    -5422541.75949  -4209088.34948  20758000.815    20758006.957
       244.000         215.000
  24349725.294    -5669808.18349  -4119387.12945  24349724.916    24349736.906
       203.000         145.000
  22500944.569     7176927.82049   5587193.57046  22500944.640    22500954.194
       228.000         183.000
  20782945.749     -642823.07749   -493986.77047  20782945.646    20782953.358
       244.000         212.000
  23958419.066    -5450515.01449  -4218995.70945  23958417.992    23958431.354
       219.000         154.000
 00  1  4 20 11  0.0000000  0  9G10G31G27G 2G13G 8G18G19G 7
  24284042.326     -838720.27049   -645583.75445  24284041.528    24284054.280
       212.000         154.000
  22473537.243     2583556.00049   2016423.34446  22473536.744    22473546.378
       225.000         179.000
  20583671.529    -5758877.83349  -4460799.81748  20583671.321    20583678.516
       243.000         215.000
  21820883.169    -6772727.49149  -5043761.94447  21820882.657    21820891.109
       242.000         208.000
  20756157.662    -5432226.14549  -4216634.63548  20756158.051    20756164.227
       244.000         215.000
  24332899.826    -5758225.32749  -4188283.35445  24332898.825    24332911.637
       209.000         146.000
  22520712.820     7280810.30749   5668140.83346  22520713.165    22520722.617
       229.000         183.000
  20787577.833     -618481.31649   -475019.19947  20787577.829    20787585.492
       244.000         211.000
  23938468.346    -5555356.54549  -4300690.29545  23938468.153    23938480.629
       212.000         157.000
 00  1  4 20 11 30.0000000  0  9G10G31G27G 2G13G 8G18G19G 7
  24290039.376     -807205.79649   -621027.08145  24290038.156    24290051.154
       211.000         154.000
  22486833.579     2653428.76249   2070869.57946  22486833.589    22486842.440
       225.000         178.000
  20578051.021    -5788413.73149  -4483814.79548  20578050.902    20578058.196
       243.000         215.000
  21813858.151    -6809644.11649  -5072528.11147  21813857.771    21813866.211
       242.000         208.000
  20754423.747    -5441338.06449  -4223734.84348  20754424.021    20754430.333
       244.000         215.000
  24316070.930    -5846661.20449  -4257194.21645  24316070.635    24316083.575
       207.000         148.000
  22540530.271     7384951.24649   5749289.49046  22540530.525    22540539.297
       229.000         183.000
  20792270.216     -593822.83049   -455804.82647  20792270.331    20792278.220
       244.000         211.000
  23918531.357    -5660125.53549  -4382328.31045  23918531.085    23918543.445
       217.000         158.000
 00  1  4 20 12  0.0000000  0  9G10G31G27G 2G13G 8G18G19G 7
  24296115.738     -775274.39349   -596145.52445  24296115.100    24296128.246
       211.000         155.000
  22500217.172     2723759.68049   2125672.81546  22500216.774    22500226.012
       224.000         178.000
  20572475.269    -5817714.73649  -4506646.73248  20572475.032    20572482.306
       243.000         215.000
  21806881.754    -6846305.03449  -5101095.02147  21806881.270    21806889.407
       242.000         208.000
  20752797.301    -5449885.13749  -4230394.90948  20752797.647    20752803.732
       244.000         215.000
  24299238.035    -5935118.48649  -4326121.74745  24299237.228    24299249.347
       209.000         149.000
  22560396.144     7489346.69649   5830636.46846  22560396.243    22560406.143
       229.000         183.000
  20797024.545     -568838.81349   -436336.79347  20797024.470    20797032.366
       244.000         211.000
  23898612.113    -5764801.31849  -4463893.71945  23898611.346    23898621.972
       216.000         159.000
 00  1  4 20 12 30.0000000  0  9G10G31G27G 2G13G 8G18G19G 7
  24302274.724     -742909.14449   -570925.91545  24302274.755    24302287.482
       213.000         154.000
  22513686.381     2794540.57649   2180826.68246  22513685.700    22513696.017
       224.000         177.000
  20566947.904    -5846761.12149  -4529280.26748  20566947.578    20566954.845
       243.000         215.000
  21799951.533    -6882723.75749  -5129473.21047  21799951.178    21799959.508
       243.000         208.000
  20751279.082    -5457863.33549  -4236611.69948  20751279.438    20751285.600
       244.000         215.000
  24282398.858    -6023608.88949  -4395075.06445  24282398.425    24282409.804
       209.000         148.000
  22580308.964     7593988.82949   5912175.65246  22580309.357    22580318.640
       229.000         183.000
  20801838.991     -543538.71949   -416622.47047  20801838.957    20801846.929
       244.000         211.000
  23878712.743    -5869372.30149  -4545377.49845  23878711.422    23878721.585
       215.000         159.000
 00  1  4 20 13  0.0000000  0  9G10G31G27G 2G13G 8G18G19G 7
  24308517.287     -710104.26849   -545363.74145  24308516.494    24308528.463
       210.000         153.000
  22527241.172     2865770.93549   2236330.78746  22527240.666    22527249.843
       224.000         177.000
  20561471.492    -5875539.81749  -4551705.20648  20561471.390    20561478.644
       243.000         215.000
  21793066.636    -6918903.98249  -5157665.55847  21793066.144    21793074.347
       243.000         208.000
  20749869.396    -5465271.40249  -4242384.23048  20749869.694    20749875.944
       244.000         215.000
  24265552.828    -6112134.34949  -4464055.74245  24265551.798    24265564.556
       211.000         147.000
  22600270.977     7698889.13249   5993916.01346  22600271.278    22600280.994
       228.000         183.000
  20806713.575     -517922.58649   -396661.88247  20806713.552    20806721.476
       244.000         211.000
  23858831.321    -5973849.45849  -4626788.17445  23858829.906    23858843.395
       216.000         159.000
 00  1  4 20 13 30.0000000  0  9G10G31G27G 2G13G 8G18G19G 7
  24314842.730     -676863.84349   -519462.18945  24314842.235    24314853.895
       210.000         152.000
  22540882.396     2937455.91249   2292189.12946  22540881.942    22540890.792
       224.000         176.000
  20556047.177    -5904044.82549  -4573916.88648  20556046.975    20556054.294
       243.000         215.000
  21786229.141    -6954835.02349  -5185663.73647  21786228.628    21786236.992
       242.000         208.000
  20748568.325    -5472108.64949  -4247711.96748  20748568.775    20748574.735
       244.000         215.000
  24248699.761    -6200697.22549  -4533065.60545  24248699.115    24248710.965
       213.000         147.000
  22620280.258     7804038.11149   6075850.14746  22620280.536    22620289.907
       229.000         182.000
  20811647.905     -491992.81749   -376456.90147  20811648.016    20811655.730
       244.000         211.000
  23838969.524    -6078223.70849  -4708118.67445  23838968.506    23838982.396
       213.000         159.000
 00  1  4 20 14  0.0000000  0  9G10G31G27G 2G13G 8G18G19G 7
  24321251.563     -643185.55049   -493219.41145  24321251.348    24321262.864
       212.000         152.000
  22554612.790     3009609.58049   2348412.69246  22554612.766    22554622.596
       223.000         176.000
  20550678.451    -5932257.73549  -4595900.96248  20550678.351    20550685.624
       243.000         215.000
  21779435.127    -6990537.68449  -5213483.96047  21779434.461    21779442.787
       243.000         209.000
  20747376.953    -5478369.36049  -4252590.45548  20747377.370    20747383.581
       245.000         215.000
  24231837.908    -6289306.00949  -4602111.25545  24231836.479    24231849.077
       212.000         146.000
  22640334.499     7909423.35149   6157968.38946  22640334.583    22640343.932
       227.000         182.000
  20816638.796     -465765.70649   -356020.22547  20816638.721    20816646.610
       244.000         211.000
  23819128.625    -6182487.69449  -4789363.25445  23819127.761    23819137.839
       218.000         159.000
 00  1  4 20 14 30.0000000  0  9G10G31G27G 2G13G 8G18G19G 7
  24327741.743     -609080.21349   -466643.90645  24327740.596    24327752.978
       211.000         151.000
  22568435.916     3082250.45549   2405015.90046  22568436.287    22568444.626
       224.000         175.000
  20545363.116    -5960190.01149  -4617666.36448  20545362.821    20545370.216
       243.000         215.000
  21772680.067    -7026035.87649  -5241144.86147  21772679.628    21772688.001
       243.000         209.000
  20746299.710    -5484030.58949  -4257001.81748  20746300.035    20746306.103
       244.000         215.000
  24214968.326    -6377955.60049  -4671188.70145  24214967.337    24214979.727
       211.000         146.000
  22660430.322     8015026.95449   6240256.77146  22660430.690    22660439.652
       226.000         181.000
  20821689.117     -439226.22949   -335340.14747  20821689.115    20821696.927
       243.000         210.000
  23799308.849    -6286641.11249  -4870521.73245  23799307.462    23799321.043
       215.000         158.000
 00  1  4 20 15  0.0000000  0  9G10G31G27G 2G13G 8G18G19G 7
  24334309.369     -574566.46649   -439750.14645  24334308.539    24334321.374
       209.000         150.000
  22582354.122     3155390.81849   2462008.32846  22582354.211    22582363.008
       224.000         175.000
  20540098.196    -5987857.26849  -4639225.25948  20540097.896    20540105.472
       243.000         215.000
  21765963.301    -7061332.56949  -5268648.75447  21765962.927    21765971.149
       243.000         209.000
  20745335.674    -5489096.66249  -4260949.42048  20745336.023    20745342.120
       244.000         215.000
  24198092.412    -6466638.71449  -4740292.29545  24198092.139    24198103.253
       214.000         146.000
  22680564.609     8120832.68449   6322702.66146  22680564.152    22680574.215
       227.000         180.000
  20826799.440     -412371.22849   -314414.20447  20826799.437    20826807.133
       244.000         210.000
  23779509.241    -6390688.08849  -4951597.22945  23779508.629    23779520.453
       217.000         157.000
 00  1  4 20 15 30.0000000  0  9G10G31G27G 2G13G 8G18G19G 7
  24340952.274     -539657.97149   -412548.79245  24340951.730    24340964.174
       211.000         149.000
  22596367.481     3229031.03449   2519390.24546  22596366.871    22596376.366
       224.000         175.000
  20534882.213    -6015267.37949  -4660583.77948  20534881.957    20534889.306
       243.000         216.000
  21759283.036    -7096437.56449  -5296003.27447  21759282.592    21759290.947
       243.000         209.000
  20744486.368    -5493559.72349  -4264427.14248  20744486.711    20744492.809
       244.000         215.000
  24181210.211    -6555354.83249  -4809421.63345  24181209.297    24181220.941
       211.000         147.000
  22700735.114     8226828.87149   6405296.95046  22700734.578    22700744.976
       225.000         179.000
  20831969.574     -385202.20949   -293243.56847  20831969.598    20831977.692
       243.000         210.000
  23759733.600    -6494609.31449  -5032574.79145  23759733.239    23759743.340
       214.000         157.000
 00  1  4 20 16  0.0000000  0  9G10G31G27G 2G13G 8G18G19G 7
  24347667.556     -504368.96749   -385050.95345  24347667.321    24347680.448
       209.000         149.000
  22610474.718     3303164.67749   2577156.65446  22610474.414    22610483.597
       223.000         175.000
  20529712.786    -6042432.88949  -4681751.70648  20529712.486    20529719.795
       243.000         216.000
  21752637.136    -7131361.96249  -5323217.07547  21752636.373    21752645.058
       243.000         209.000
  20743751.296    -5497422.76949  -4267437.32248  20743751.739    20743757.835
       244.000         215.000
  24164322.157    -6644101.34549  -4878574.62545  24164321.478    24164334.050
       205.000         145.000
  22720942.535     8333019.09549   6488042.44646  22720943.018    22720952.693
       225.000         179.000
  20837201.398     -357709.04449   -271820.35047  20837201.396    20837209.364
       243.000         210.000
  23739981.999    -6598404.22649  -5113453.89745  23739980.693    23739994.617
       214.000         157.000
 00  1  4 20 16 30.0000000  0  9G10G31G27G 2G13G 8G18G19G 7
  24354453.324     -468709.58749   -357264.50045  24354452.673    24354465.280
       210.000         148.000
  22624672.542     3377774.32149   2635293.96746  22624672.435    22624681.726
       223.000         175.000
  20524587.234    -6069367.84249  -4702739.97848  20524586.784    20524594.170
       243.000         216.000
  21746030.155    -7166081.61549  -5350271.34247  21746029.637    21746037.832
       243.000         209.000
  20743126.125    -5500708.10849  -4269997.33948  20743126.522    20743132.758
       244.000         215.000
  24147431.865    -6732859.56549  -4947736.78445  24147431.501    24147442.497
       208.000         143.000
  22741187.578     8439407.00649   6570941.98046  22741188.393    22741197.003
       226.000         178.000
  20842495.453     -329888.61349   -250142.12047  20842495.401    20842503.524
       243.000         210.000
  23720251.702    -6702087.22449  -5194245.80045  23720249.493    23720262.266
       217.000         156.000
 00  1  4 20 17  0.0000000  0  9G10G31G27G 2G13G 8G18G19G 7
  24361308.621     -432685.21349   -329193.62245  24361307.937    24361319.895
       209.000         147.000
  22638956.171     3452835.01149   2693782.75646  22638956.497    22638965.421
       223.000         175.000
  20519507.848    -6096060.22549  -4723539.23848  20519507.580    20519514.938
       243.000         216.000
  21739465.741    -7200577.88449  -5377151.54547  21739465.081    21739473.629
       243.000         209.000
  20742607.413    -5503434.02049  -4272121.44248  20742607.821    20742613.956
       244.000         215.000
  24130539.442    -6821629.51549  -5016908.07145  24130539.095    24130551.817
       206.000         141.000
  22761473.117     8546007.83249   6654007.42846  22761473.550    22761482.732
       226.000         177.000
  20847846.987     -301766.22149   -228228.59247  20847846.966    20847854.932
       243.000         210.000
  23700541.901    -6805662.55849  -5274953.79845  23700541.556    23700554.257
       215.000         156.000
 00  1  4 20 17 30.0000000  0  9G10G31G27G 2G13G 8G18G19G 7
  24368235.163     -396286.69849   -300831.21745  24368234.522    24368248.076
       209.000         148.000
  22653322.947     3528332.48949   2752611.89646  22653322.551    22653332.287
       223.000         175.000
  20514474.117    -6122512.69449  -4744151.55148  20514474.005    20514481.237
       243.000         216.000
  21732945.164    -7234843.56449  -5403852.06847  21732944.655    21732953.060
       243.000         209.000
  20742196.887    -5505591.52649  -4273802.63148  20742197.256    20742203.422
       244.000         215.000
  24113644.489    -6910413.03249  -5086089.97045  24113644.441    24113655.757
       212.000         140.000
  22781800.343     8652827.15849   6737243.12846  22781801.007    22781809.812
       226.000         177.000
  20853254.553     -273349.54749   -206085.74547  20853254.382    20853262.326
       243.000         209.000
  23680852.249    -6909132.47249  -5355579.63445  23680851.847    23680863.233
       213.000         157.000
 00  1  4 20 18  0.0000000  0  9G10G31G27G 2G13G 8G18G19G 7
  24375235.548     -359500.13349   -272166.44645  24375234.556    24375246.442
       207.000         146.000
  22667772.072     3604262.74149   2811778.25246  22667772.248    22667781.536
       223.000         175.000
  20509487.007    -6148720.18049  -4764572.96848  20509486.778    20509493.987
       243.000         216.000
  21726471.378    -7268863.56449  -5430361.14947  21726470.967    21726479.194
       243.000         210.000
  20741892.987    -5507188.65149  -4275047.15948  20741893.386    20741899.454
       245.000         215.000
  24096747.257    -6999208.40549  -5155281.13345  24096745.890    24096758.432
       209.000         141.000
  22802169.368     8759866.39749   6820650.20146  22802168.997    22802179.575
       224.000         177.000
  20858715.965     -244649.48149   -183722.07147  20858715.851    20858723.838
       243.000         209.000
  23661180.320    -7012509.15449  -5436132.82945  23661180.186    23661192.120
       213.000         157.000
 00  1  4 20 18 30.0000000  0  9G10G31G27G 2G13G 8G18G19G 7
  24382311.518     -322315.56049   -243191.53645  24382311.517    24382322.384
       209.000         145.000
  22682304.279     3680629.44149   2871284.69646  22682304.088    22682313.865
       222.000         175.000
  20504550.679    -6174660.80249  -4784786.44248  20504550.395    20504557.817
       243.000         216.000
                  -1380154.28449  -1053202.86146                  21720055.327
       243.000         172.000
  20741699.316    -5508206.61249  -4275840.38948  20741699.660    20741705.741
       244.000         215.000
  24079849.552    -7088005.91749  -5224473.92945  24079847.968    24079861.126
       208.000         142.000
  22822581.956     8867134.87849   6904235.88346  22822582.075    22822590.705
       224.000         176.000
  20864230.990     -215667.99849   -161139.11647  20864230.624    20864238.713
       243.000         209.000
  23641525.725    -7115794.91249  -5516615.11845  23641525.612    23641537.346
       218.000         158.000
 00  1  4 20 19  0.0000000  0  9G10G31G27G 2G13G 8G18G19G 7
  24389463.427     -284731.91349   -213905.63745  24389462.616    24389476.365
       206.000         144.000
  22696919.188     3757431.25049   2931130.17446  22696919.150    22696928.950
       223.000         175.000
  20499663.713    -6200342.08349  -4804797.83248  20499663.538    20499670.854
       243.000         216.000
  21713670.390    -1413666.87649  -1079316.55947  21713669.859    21713678.165
       244.000         205.000
  20741618.120    -5508633.21649  -4276172.82448  20741618.596    20741624.631
       244.000         215.000
  24062947.015    -7176828.96349  -5293686.62345  24062946.239    24062959.117
       207.000         142.000
  22843039.034     8974637.18249   6988003.77746  22843039.373    22843049.428
       224.000         176.000
  20869796.853     -186419.25449   -138347.90247  20869796.810    20869804.869
       243.000         209.000
  23621890.099    -7218980.79049  -5597019.60045  23621890.256    23621902.382
       214.000         160.000
 00  1  4 20 19 30.0000000  0  9G10G31G27G 2G13G 8G18G19G 7
  24396691.324     -246749.43649   -184308.99845  24396690.882    24396704.432
       206.000         144.000
  22711618.570     3834676.62349   2991321.28846  22711618.664    22711628.430
       223.000         175.000
  20494826.388    -6225762.24049  -4824605.74748  20494826.087    20494833.478
       243.000         216.000
  21707336.993    -1446949.01349  -1105250.68047  21707336.414    21707344.746
       244.000         209.000
  20741650.230    -5508464.62849  -4276041.47148  20741650.584    20741656.701
       245.000         215.000
  24046038.182    -7265685.21949  -5362925.18445  24046038.364    24046050.082
       206.000         142.000
  22863538.247     9082360.58349   7071943.95246  22863538.252    22863548.033
       223.000         176.000
  20875415.374     -156893.75249   -115341.03547  20875415.281    20875423.182
       242.000         209.000
  23602274.920    -7322058.82749  -5677340.01945  23602275.735    23602285.963
       218.000         161.000
 00  1  4 20 20  0.0000000  0  9G10G31G27G 2G13G 8G18G19G 7
  24403990.435     -208392.41849   -154420.48545  24403989.420    24404001.850
       207.000         144.000
  22726400.197     3912354.19949   3051849.19046  22726400.590    22726409.262
       223.000         174.000
  20490042.365    -6250902.31649  -4844195.41148  20490042.209    20490049.520
       243.000         216.000
  21701047.084    -1480001.80849  -1131006.08747  21701046.558    21701054.961
       244.000         210.000
  20741792.801    -5507715.58549  -4275457.81648  20741793.255    20741799.304
       244.000         215.000
  24029123.359    -7354572.64049  -5432188.04945  24029122.395    24029134.756
       206.000         143.000
  22884078.977     9190302.25749   7156054.21046  22884079.551    22884088.929
       225.000         176.000
  20881089.134     -127078.01849    -92108.01147  20881088.973    20881097.019
       243.000         209.000
  23582682.973    -7425014.62749  -5757565.15745  23582681.839    23582693.353
       220.000         161.000
 00  1  4 20 20 30.0000000  0  9G10G31G27G 2G13G 8G18G19G 7
  24411358.567     -169673.61249   -124250.07045  24411356.789    24411370.340
       207.000         143.000
  22741264.163     3990464.70749   3112714.43646  22741263.671    22741273.672
       222.000         174.000
  20485311.778    -6275761.60149  -4863566.27748  20485311.544    20485319.060
       243.000         216.000
  21694798.013    -1512841.01049  -1156595.05947  21694797.474    21694805.853
       244.000         210.000
  20742046.296    -5506383.38049  -4274419.74748  20742046.760    20742052.859
       245.000         215.000
  24012204.041    -7443483.72149  -5501469.32445  24012203.248    24012215.548
       206.000         144.000
  22904658.698     9298448.81749   7240324.11546  22904659.134    22904668.990
       222.000         175.000
  20886820.326      -96960.47649    -68639.80947  20886820.495    20886828.427
       242.000         209.000
  23563116.225    -7527837.77049  -5837686.93745  23563114.505    23563126.266
       217.000         162.000
 00  1  4 20 21  0.0000000  0  9G10G31G27G 2G13G 8G18G19G 7
  24418796.492     -130587.08049    -93793.10545  24418795.300    24418808.431
       205.000         141.000
  22756211.348     4069012.48149   3173920.41346  22756210.393    22756220.752
       221.000         173.000
  20480635.024    -6300338.14449  -4882716.81848  20480634.901    20480642.276
       243.000         216.000
  21688588.147    -1545473.92249  -1182023.27947  21688587.693    21688595.907
       244.000         210.000
  20742409.790    -5504473.45049  -4272931.50648  20742410.228    20742416.365
       245.000         216.000
  23995281.265    -7532413.11149  -5570764.85845  23995279.544    23995292.390
       203.000         145.000
  22925273.814     9406781.55749   7324739.08846  22925273.913    22925283.598
       224.000         175.000
  20892610.892      -66530.94749    -44928.50147  20892610.956    20892618.958
       243.000         209.000
  23543578.088    -7630510.95849  -5917691.83746  23543577.630    23543587.691
       220.000         163.000
 00  1  4 20 21 30.0000000  0  9G10G31G27G 2G13G 8G18G19G 7
  24426302.827      -91141.18549    -63056.12145  24426301.264    24426314.993
       208.000         140.000
  22771241.274     4147994.95149   3235465.11646  22771240.728    22771251.033
       221.000         173.000
  20476013.633    -6324623.71949  -4901640.62948  20476013.571    20476020.725
       243.000         216.000
  21682419.686    -1577889.50749  -1207282.15647  21682419.224    21682427.491
       244.000         211.000
  20742882.453    -5501989.56949  -4270996.03248  20742882.881    20742888.862
       244.000         216.000
  23978355.643    -7621356.95549  -5640071.66545  23978355.090    23978367.299
       208.000         146.000
  22945920.966     9515282.76049   7409285.34146  22945920.320    22945931.103
       223.000         174.000
  20898464.696      -35769.31249    -20958.41147  20898464.704    20898472.619
       243.000         209.000
  23524066.641    -7733043.75349  -5997587.34346  23524064.739    23524076.675
       219.000         163.000
 00  1  4 20 22  0.0000000  0  9G10G31G27G 2G13G 8G18G19G 7
  24433880.418      -51320.86549    -32027.36445  24433879.837    24433893.479
       206.000         141.000
  22786355.080     4227418.08749   3297353.19746  22786354.315    22786364.834
       221.000         172.000
  20471445.500    -6348629.60849  -4920346.50248  20471445.423    20471452.450
       243.000         216.000
  21676294.575    -1610077.13349  -1232363.39647  21676294.104    21676302.369
       244.000         211.000
  20743464.282    -5498932.15449  -4268613.64648  20743464.568    20743470.844
       244.000         216.000
  23961428.192    -7710311.38749  -5709386.67245  23961428.029    23961439.921
       212.000         148.000
  22966599.298     9623947.54849   7493959.05146  22966599.404    22966609.195
       225.000         174.000
  20904385.109       -4657.32149      3284.68447  20904385.245    20904393.017
       243.000         209.000
  23504580.918    -7835441.54749  -6077377.64546  23504580.358    23504591.454
       215.000         164.000
 00  1  4 20 22 30.0000000  0  9G10G31G27G 2G13G 8G18G19G 7
  24441531.696      -11113.74049      -697.21745  24441530.630    24441543.483
       205.000         140.000
  22801553.621     4307286.69449   3359588.39046  22801553.313    22801563.243
       221.000         172.000
  20466926.368    -6372377.79349  -4938851.56648  20466926.022    20466933.544
       244.000         216.000
  21670211.639    -1642043.09449  -1257271.91847  21670211.225    21670219.459
       243.000         211.000
  20744156.726    -5495293.52149  -4265778.36448  20744157.119    20744163.290
       245.000         215.000
  23944497.542    -7799281.95849  -5778714.28345  23944496.500    23944508.100
       209.000         147.000
  22987307.585     9732769.78449   7578755.45246  22987308.348    22987318.355
       225.000         174.000
  20910371.595       26801.88949     27798.33747  20910371.591    20910379.630
       243.000         209.000
  23485119.744    -7937709.76649  -6157066.94746  23485118.851    23485131.066
       221.000         165.000
 00  1  4 20 23  0.0000000  0  9G10G31G27G 2G13G 8G18G19G 7
  24449255.379       29473.89949     30929.43445  24449254.603    24449267.195
       202.000         138.000
  22816833.489     4387582.62649   3422156.57246  22816833.825    22816843.424
       220.000         172.000
  20462455.233    -6395873.55549  -4957159.93348  20462455.007    20462462.276
       245.000         216.000
  21664171.483    -1673784.23049  -1282005.24547  21664171.066    21664179.253
       243.000         211.000
  20744958.836    -5491078.38649  -4262493.85748  20744959.274    20744965.368
       245.000         215.000
  23927559.539    -7888291.72649  -5848072.39245  23927559.006    23927571.131
       210.000         150.000
  23008047.195     9841756.57949   7663680.08346  23008047.840    23008057.504
       223.000         174.000
  20916424.304       58609.05949     52583.13147  20916424.401    20916432.155
       243.000         209.000
  23465683.676    -8039846.42649  -6236653.77046  23465682.346    23465694.003
       223.000         165.000
 00  1  4 20 23 30.0000000  0  9G10G31G27G 2G13G 8G18G19G 7
  24457050.712       70439.33749     62850.46845  24457051.995    24457060.742
       203.000         135.000
  22832193.809     4468301.41049   3485054.26946  22832193.511    22832202.329
       220.000         171.000
  20458031.266    -6419121.55049  -4975275.23248  20458031.240    20458038.470
       245.000         216.000
  21658174.543    -1705298.38349  -1306561.70747  21658174.018    21658182.176
       243.000         211.000
  20745870.122    -5486289.57649  -4258762.33148  20745870.463    20745876.642
       245.000         216.000
  23910612.883    -7977346.55149  -5917465.60145  23910611.978    23910624.010
       208.000         150.000
  23028822.023     9950928.49749   7748748.94946  23028822.348    23028832.966
       224.000         174.000
  20922543.909       90767.60149     77641.71947  20922543.914    20922551.813
       242.000         209.000
  23446272.792    -8141850.55149  -6316137.32846  23446270.964    23446283.623
       218.000         165.000
 00  1  4 20 24  0.0000000  0  9G10G31G27G 2G13G 8G18G19G 7
  24464916.896      111776.04249     95060.80545  24464915.761    24464928.413
       203.000         135.000
  22847632.257     4549430.78749   3548271.90146  22847632.553    22847641.824
       221.000         171.000
  20453655.202    -6442117.89149  -4993194.43248  20453654.989    20453662.300
       245.000         216.000
  21652217.052    -1736605.25349  -1330956.64647  21652216.662    21652224.835
       243.000         211.000
  20746890.088    -5480929.78149  -4254585.87848  20746890.477    20746896.770
       244.000         216.000
  23893660.018    -8066433.55749  -5986883.85445  23893659.494    23893671.673
       212.000         153.000
  23049631.846    10060284.09749   7833960.95946  23049632.232    23049641.398
       224.000         174.000
  20928727.456      123262.21049    102962.18147  20928727.493    20928735.501
       242.000         209.000
  23426890.057    -8243706.74649  -6395505.61846  23426889.472    23426901.844
       219.000         165.000
 00  1  4 20 24 30.0000000  0  9G10G31G27G 2G13G 8G18G19G 7
  24472849.073      153459.11949    127541.05545  24472849.739    24472861.963
       205.000         136.000
  22863146.710     4630959.42949   3611800.66246  22863146.603    22863155.982
       220.000         170.000
  20449329.856    -6464847.65449  -5010905.91248  20449329.584    20449336.995
       245.000         216.000
  21646296.913    -1767715.98849  -1355198.75447  21646296.481    21646304.986
       243.000         211.000
  20748018.980    -5474997.49049  -4249963.32748  20748019.375    20748025.496
       245.000         216.000
  23876702.336    -8155546.74349  -6056322.49945  23876701.314    23876713.120
       211.000         153.000
  23070479.339    10169837.70949   7919327.25246  23070479.469    23070489.646
       226.000         174.000
  20934970.921      156071.82349    128528.09547  20934970.941    20934978.868
       243.000         209.000
  23407535.906    -8345412.56749  -6474756.75146  23407534.271    23407546.937
       213.000         165.000
 00  1  4 20 25  0.0000000  0  9G10G31G27G 2G13G 8G18G19G 7
  24480847.752      195492.29249    160294.12045  24480846.583    24480861.269
       203.000         136.000
  22878738.791     4712896.13949   3675647.40446  22878737.909    22878748.040
       220.000         170.000
  20445058.960    -6487291.37249  -5028394.49948  20445058.650    20445066.089
       245.000         216.000
                  -1023257.05749   -776646.60046                  21640424.029
       244.000         172.000
  20749257.330    -5468489.95549  -4244892.53148  20749257.698    20749264.047
       245.000         216.000
  23859742.717    -8244670.10949  -6125769.10045  23859742.144    23859753.870
       213.000         157.000
  23091366.898    10279601.50449   8004857.32346  23091367.509    23091377.910
       224.000         174.000
  20941273.269      189190.52449    154334.85847  20941273.178    20941281.077
       243.000         209.000
  23388209.791    -8446971.74549  -6553893.61746  23388209.080    23388220.488
       215.000         163.000
 00  1  4 20 25 30.0000000  0  9G10G31G27G 2G13G 8G18G19G 7
  24488910.146      237860.40349    193308.15045  24488909.471    24488922.619
       209.000         135.000
  22894407.009     4795232.72049   3739805.73446  22894407.372    22894416.524
       221.000         170.000
  20440841.203    -6509455.88749  -5045665.52948  20440840.810    20440848.059
       245.000         216.000
  21634571.400    -1053970.61049   -800579.22247  21634570.788    21634579.043
       244.000         207.000
  20750604.015    -5461413.33849  -4239378.29148  20750604.306    20750610.570
       245.000         216.000
  23842780.381    -8333807.21749  -6195226.35345  23842779.707    23842791.070
       212.000         155.000
  23112291.054    10389558.08549   8090537.61146  23112291.583    23112302.160
       223.000         174.000
  20947631.310      222602.33249    180370.01847  20947631.357    20947639.333
       243.000         208.000
  23368905.090    -8548417.90149  -6632942.43446  23368905.054    23368915.125
       215.000         163.000
 00  1  4 20 26  0.0000000  0  9G10G31G27G 2G13G 8G18G19G 7
  24497037.463      280569.81449    226588.15645  24497036.874    24497051.406
       208.000         138.000
  22910150.662     4877965.86249   3804273.06346  22910150.283    22910160.222
       220.000         170.000
  20436680.512    -6531320.38849  -5062702.78948  20436680.231    20436687.602
       244.000         216.000
  21628765.541    -1084477.65949   -824350.92847  21628765.187    21628773.546
       243.000         211.000
  20752061.692    -5453753.14949  -4233409.32448  20752062.046    20752068.200
       245.000         216.000
  23825817.273    -8422948.21049  -6264686.69245  23825815.981    23825827.990
       213.000         153.000
  23133249.804    10499696.43849   8176359.54846  23133250.074    23133260.360
       223.000         173.000
  20954044.506      256303.64349    206630.76447  20954044.547    20954052.633
       243.000         208.000
  23349622.060    -8649750.57449  -6711902.82746  23349621.084    23349632.120
       216.000         164.000
 00  1  4 20 26 30.0000000  0  9G10G31G27G 2G13G 8G18G19G 7
  24505232.473      323633.83949    260144.45345  24505232.421    24505245.207
       207.000         138.000
  22925970.994     4961102.16949   3869054.55546  22925970.871    22925980.405
       221.000         170.000
  20432577.676    -6552880.78849  -5079503.08148  20432577.421    20432584.886
       244.000         216.000
  21623004.281    -1114755.02449   -847943.66347  21623003.746    21623012.145
       244.000         212.000
  20753631.853    -5445501.91049  -4226979.79048  20753632.299    20753638.385
       244.000         216.000
  23808853.028    -8512094.43449  -6334151.05445  23808852.704    23808864.471
       214.000         153.000
  23154245.035    10610026.45549   8262330.81346  23154244.120    23154255.830
       221.000         173.000
  20960514.548      290303.84849    233124.41047  20960514.278    20960522.344
       243.000         208.000
  23330362.403    -8750960.09249  -6790767.25346  23330362.116    23330373.357
       222.000         165.000
 00  1  4 20 27  0.0000000  0  9G10G31G27G 2G13G 8G18G19G 7
  24513496.203      367059.55149    293982.62545  24513496.320    24513507.599
       210.000         137.000
  22941866.059     5044630.89349   3934141.81646  22941866.167    22941875.319
       221.000         170.000
  20428532.013    -6574140.95449  -5096069.42848  20428531.782    20428539.144
       244.000         216.000
  21617288.444    -1144792.17449   -871349.21547  21617287.723    21617296.189
       244.000         212.000
  20755314.887    -5436657.56649  -4220088.10348  20755315.304    20755321.345
       244.000         216.000
  23791887.365    -8601248.97649  -6403621.95745  23791886.730    23791898.520
       215.000         154.000
  23175273.147    10720529.44549   8348436.87346  23175273.512    23175284.864
       222.000         172.000
  20967043.612      324614.15449    259859.69047  20967043.578    20967051.747
       243.000         208.000
  23311129.787    -8852027.92249  -6869521.29846  23311128.901    23311140.452
       220.000         166.000
 00  1  4 20 27 30.0000000  0  9G10G31G27G 2G13G 8G18G19G 7
  24521828.930      410847.87349    328103.34245  24521829.231    24521842.026
       211.000         139.000
  22957834.632     5128546.23749   3999530.34146  22957834.072    22957843.443
       221.000         169.000
  20424544.888    -6595093.55049  -5112396.11348  20424544.572    20424552.105
       244.000         216.000
  21611617.968    -1174590.61449   -894568.76047  21611617.568    21611625.661
       244.000         212.000
  20757111.646    -5427215.47949  -4212730.63748  20757111.930    20757118.308
       244.000         215.000
  23774920.052    -8690412.61249  -6473099.94745  23774919.076    23774931.157
       210.000         156.000
  23196332.770    10831197.76949   8434671.77246  23196332.883    23196344.036
       222.000         171.000
  20973632.956      359241.40049    286841.94447  20973632.926    20973640.646
       243.000         208.000
  23291929.070    -8952927.93949  -6948144.56446  23291927.314    23291937.989
       222.000         166.000
 00  1  4 20 28  0.0000000  0 10G10G31G27G11G 2G13G 8G18G19G 7
  24530230.215      454996.26049    362504.61245  24530229.685    24530242.552
       210.000         141.000
  22973876.761     5212847.56449   4065219.63246  22973876.176    22973886.023
       220.000         169.000
  20420615.590    -6615741.99849  -5128485.80348  20420615.312    20420622.852
       244.000         216.000
  24768033.035    -5682842.78249  -4401647.96645  24768032.138    24768043.851
       200.000         135.000
  21605990.709    -1204162.17549   -917611.51547  21605990.224    21605998.330
       244.000         212.000
  20759020.296    -5417185.54849  -4204915.11548  20759020.619    20759026.850
       245.000         215.000
  23757952.651    -8779576.41449  -6542578.08445  23757950.913    23757963.733
       213.000         154.000
  23217423.606    10942030.01049   8521034.39246  23217423.462    23217433.720
       222.000         170.000
  20980282.069      394182.61849    314068.84747  20980281.933    20980290.146
       242.000         208.000
  23272765.258    -9053633.67349  -7026616.45046  23272763.861    23272774.624
       222.000         166.000
 00  1  4 20 28 30.0000000  0 10G10G31G27G11G 2G13G 8G18G19G 7
  24538694.845      499477.52149    397165.25545  24538693.786    24538706.632
       209.000         142.000
  22989993.917     5297543.54949   4131216.43646  22989993.739    22990003.556
       219.000         168.000
  20416739.739    -6636109.56049  -5144356.62648  20416739.445    20416746.771
       244.000         216.000
  24757253.319    -5739489.77849  -4445788.16145  24757253.130    24757266.264
       201.000         137.000
  21600402.142    -1233530.37449   -940495.80747  21600401.403    21600409.863
       244.000         212.000
  20761036.472    -5406590.51149  -4196659.25148  20761036.783    20761043.130
       245.000         215.000
  23740983.060    -8868750.99149  -6612064.59445  23740982.030    23740993.946
       208.000         152.000
  23238543.687    11053015.96549   8607516.77946  23238544.321    23238554.308
       225.000         170.000
  20986990.318      429434.60949    341537.91147  20986990.029    20986997.949
       242.000         208.000
  23253638.581    -9154144.48549  -7104936.46846  23253637.881    23253649.940
       220.000         167.000
 00  1  4 20 29  0.0000000  0 10G10G31G27G11G 2G13G 8G18G19G 7
  24547223.476      544295.46449    432088.24045  24547222.941    24547236.395
       208.000         143.000
  23006190.517     5382657.02249   4197538.57046  23006190.116    23006199.413
       219.000         167.000
  20412922.519    -6656169.07849  -5159987.41548  20412922.338    20412929.932
       244.000         216.000
  24746506.471    -5795964.51649  -4489794.12445  24746505.271    24746519.036
       203.000         140.000
  21594852.474    -1262694.07949   -963220.74647  21594852.065    21594860.220
       244.000         212.000
  20763161.450    -5395423.67349  -4187957.82648  20763161.922    20763168.072
       244.000         215.000
  23724012.577    -8957930.55249  -6681555.02345  23724011.439    23724022.896
       210.000         151.000
  23259692.546    11164153.19749   8694117.06246  23259693.509    23259703.470
       225.000         170.000
  20993762.262      465021.38949    369267.84847  20993762.281    20993770.297
       242.000         208.000
  23234548.560    -9254462.86549  -7183106.51246  23234547.487    23234558.370
       221.000         168.000
 00  1  4 20 29 30.0000000  0 10G10G31G27G11G 2G13G 8G18G19G 7
  24555815.628      589447.59249    467271.63145  24555815.982    24555827.537
       210.000         145.000
  23022466.149     5468186.00349   4264184.47546  23022465.879    23022475.864
       219.000         166.000
  20409164.771    -6675916.18349  -5175374.77048  20409164.589    20409171.867
       245.000         216.000
  24735794.526    -5852255.57449  -4533656.95145  24735793.327    24735806.354
       202.000         142.000
  21589337.782    -1291673.80949   -985802.32947  21589337.143    21589345.365
       244.000         212.000
  20765394.112    -5383691.17849  -4178815.63148  20765394.357    20765400.818
       244.000         215.000
  23707039.265    -9047124.76549  -6751056.86945  23707038.629    23707050.024
       209.000         151.000
  23280868.500    11275432.72749   8780828.22346  23280868.630    23280879.438
       223.000         170.000
  21000596.578      500935.96349    397253.21147  21000596.530    21000604.530
       242.000         207.000
  23215490.419    -9354613.74749  -7261146.04246  23215489.891    23215500.773
       226.000         169.000
 00  1  4 20 30  0.0000000  0 10G10G31G27G11G 2G13G 8G18G19G 7
  24564469.382      634922.49649    502706.54245  24564468.922    24564481.645
       212.000         146.000
  23038819.968     5554125.60249   4331150.33846  23038820.007    23038829.871
       220.000         166.000
  20405465.845    -6695354.24549  -5190521.31748  20405465.570    20405472.851
       244.000         216.000
  24725120.214    -5908348.44849  -4577365.34445  24725118.886    24725131.950
       205.000         143.000
  21583857.847    -1320471.24249  -1008241.86848  21583857.147    21583865.220
       244.000         213.000
  20767732.638    -5371402.11149  -4169239.74648  20767733.068    20767739.197
       244.000         215.000
  23690062.785    -9136336.28949  -6820572.25745  23690063.001    23690073.938
       211.000         151.000
  23302067.154    11386831.71749   8867632.45346  23302068.094    23302078.220
       225.000         170.000
  21007493.813      537180.99849    425496.07547  21007493.705    21007501.878
       242.000         207.000
  23196462.447    -9454606.37249  -7339062.26946  23196461.464    23196472.341
       220.000         169.000
 00  1  4 20 30 30.0000000  0 10G10G31G27G11G 2G13G 8G18G19G 7
  24573183.327      680714.18149    538388.28445  24573182.929    24573195.193
       213.000         147.000
  23055250.650     5640468.83549   4398430.72946  23055250.342    23055260.289
       220.000         166.000
  20401827.024    -6714476.34549  -5205421.65648  20401826.779    20401834.145
       245.000         216.000
  24714485.324    -5964233.83549  -4620912.07945  24714484.438    24714497.555
       205.000         144.000
  21578415.042    -1349073.07049  -1030528.98348  21578414.475    21578422.660
       244.000         213.000
  20770178.213    -5358550.73249  -4159225.69548  20770178.535    20770184.792
       245.000         215.000
  23673080.863    -9225576.45249  -6890109.91945  23673080.148    23673092.114
       210.000         150.000
  23323284.670    11498329.72049   8954513.86346  23323284.526    23323295.189
       220.000         169.000
  21014452.984      573751.68549    453992.69947  21014452.727    21014460.866
       242.000         207.000
  23177463.791    -9554444.87649  -7416858.34946  23177461.877    23177474.271
       226.000         170.000
 00  1  4 20 31  0.0000000  0 10G10G31G27G11G 2G13G 8G18G19G 7
  24581961.982      726845.82849    574334.95545  24581961.782    24581975.261
       213.000         148.000
  23071752.937     5727188.64949   4466004.55946  23071752.208    23071761.921
       220.000         166.000
  20398249.655    -6733275.62349  -5220070.44948  20398249.296    20398256.725
       244.000         216.000
  24703892.816    -6019896.87449  -4664285.56445  24703892.081    24703905.239
       206.000         146.000
  21573013.000    -1377460.96649  -1052649.39248  21573012.484    21573020.750
       244.000         213.000
  20772735.615    -5345111.48349  -4148753.56748  20772735.974    20772742.171
       244.000         215.000
  23656094.290    -9314841.01149  -6959666.61245  23656092.828    23656104.538
       209.000         150.000
  23344522.034    11609932.29549   9041476.73146  23344522.333    23344532.811
       224.000         168.000
  21021473.193      610642.96749    482739.13347  21021473.177    21021481.114
       242.000         207.000
  23158495.985    -9654120.86349  -7494527.82246  23158494.698    23158506.358
       220.000         170.000
 00  1  4 20 31 30.0000000  0 10G10G31G27G11G 2G13G 8G18G19G 7
  24590805.457      773318.31349    610547.19945  24590805.180    24590818.957
       210.000         149.000
  23088326.570     5814284.00249   4533871.01846  23088326.654    23088334.949
       220.000         166.000
  20394729.284    -6751775.24649  -5234485.74748  20394729.133    20394736.438
       244.000         216.000
  24693341.050    -6075346.38549  -4707492.69645  24693339.657    24693352.519
       208.000         147.000
  21567655.579    -1405614.22749  -1074586.97048  21567655.103    21567663.326
       244.000         213.000
  20775408.683    -5331064.43549  -4137807.82848  20775408.954    20775415.480
       244.000         215.000
  23639107.009    -9404109.43749  -7029226.30645  23639106.107    23639118.147
       213.000         151.000
  23365783.354    11721660.72749   9128537.69346  23365783.315    23365794.310
       223.000         167.000
  21028552.318      647843.97349    511726.91247  21028552.206    21028560.442
       242.000         207.000
  23139564.435    -9753605.96749  -7572048.50646  23139562.534    23139574.744
       222.000         170.000
 00  1  4 20 32  0.0000000  0 11G10G26G31G27G11G 2G13G 8G18G19G 7
  24599707.190      820096.68549    646997.79445  24599707.307    24599720.462
       214.000         150.000
  24626871.077    -5696796.65749  -3760623.96745  24626871.472    24626883.362
       211.000         149.000
  23104968.119     5901735.07049   4602014.66146  23104967.834    23104977.789
       221.000         167.000
  20391257.204    -6770021.22749  -5248703.40348  20391256.937    20391264.389
       244.000         216.000
  24682826.036    -6130601.99149  -4750548.76645  24682825.575    24682837.616
       211.000         148.000
  21562342.310    -1433535.56349  -1096343.82948  21562341.522    21562349.884
       244.000         213.000
  20778193.229    -5316431.39749  -4126405.47848  20778193.636    20778199.881
       244.000         215.000
  23622114.900    -9493402.88249  -7098805.51645  23622113.931    23622126.200
       210.000         151.000
  23387067.063    11833507.11649   9215690.57646  23387067.350    23387077.750
       219.000         166.000
  21035685.589      685329.30849    540936.23847  21035685.438    21035693.511
       242.000         207.000
  23120668.157    -9852905.56449  -7649424.65746  23120667.035    23120679.392
       222.000         171.000
 00  1  4 20 32 30.0000000  0 11G10G26G31G27G11G 2G13G 8G18G19G 7
  24608670.976      867201.24049    683702.57445  24608671.401    24608683.723
       213.000         150.000
  24609282.118    -5789227.24649  -3832647.61545  24609281.809    24609294.264
       211.000         150.000
  23121679.526     5989553.65949   4670444.67846  23121679.135    23121689.041
       219.000         167.000
  20387834.613    -6788007.13949  -5262718.40248  20387834.356    20387841.692
       244.000         216.000
  24672348.723    -6185659.82749  -4793450.77045  24672348.189    24672361.023
       211.000         149.000
  21557076.427    -1461207.84649  -1117906.61648  21557075.757    21557084.105
       244.000         213.000
  20781094.963    -5301182.78349  -4114523.45748  20781095.237    20781101.607
       245.000         215.000
  23605120.764    -9582707.19749  -7168393.17445  23605120.615    23605131.593
       212.000         152.000
  23408382.763    11945520.93549   9302973.89846  23408383.074    23408393.948
       220.000         166.000
  21042876.882      723119.80949    570383.36047  21042876.889    21042885.155
       242.000         206.000
  23101809.404    -9952008.51549  -7726647.58946  23101808.950    23101820.012
       218.000         171.000
 00  1  4 20 33  0.0000000  0 11G10G26G31G27G11G 2G13G 8G18G19G 7
  24617697.544      914635.70849    720664.43045  24617697.193    24617708.113
       213.000         149.000
  24591736.091    -5881431.30049  -3904494.75145  24591736.395    24591748.313
       211.000         147.000
  23138460.125     6077735.98449   4739158.11646  23138459.808    23138470.246
       218.000         166.000
  20384461.307    -6805734.01049  -5276531.55148  20384461.061    20384468.365
       244.000         216.000
  24661906.600    -6240532.81449  -4836208.76245  24661905.998    24661917.937
       210.000         149.000
  21551856.815    -1488636.81849  -1139279.81548  21551856.160    21551864.260
       244.000         213.000
  20784112.739    -5285324.45249  -4102166.33548  20784113.188    20784119.470
       244.000         215.000
  23588127.997    -9672004.82449  -7237975.64545  23588127.509    23588137.713
       212.000         152.000
  23429734.623    12057725.00749   9390405.48246  23429734.442    23429745.909
       221.000         165.000
  21050128.865      761228.99449    600078.80347  21050128.899    21050136.967
       242.000         206.000
  23082988.445   -10050912.82849  -7803715.72846  23082987.440    23082999.139
       222.000         172.000
 00  1  4 20 33 30.0000000  0 11G10G26G31G27G11G 2G13G 8G18G19G 7
  24626780.181      962365.09149    757856.09345  24626779.705    24626792.258
       212.000         148.000
  24574233.615    -5973406.54849  -3976163.58645  24574233.222    24574246.057
       209.000         146.000
  23155309.982     6166282.51449   4808155.33846  23155309.583    23155319.438
       219.000         166.000
  20381139.999    -6823187.60049  -5290131.75048  20381139.900    20381147.039
       244.000         216.000
  24651496.832    -6295235.55349  -4878834.13045  24651495.855    24651508.312
       211.000         148.000
  21546678.250    -1515850.32949  -1160485.12048  21546677.546    21546685.851
       244.000         213.000
  20787241.989    -5268880.11749  -4089352.58948  20787242.392    20787248.767
       244.000         215.000
  23571136.547    -9761295.00449  -7307552.30345  23571136.022    23571146.823
       214.000         152.000
  23451121.097    12170110.95549   9477978.76346  23451121.426    23451132.224
       222.000         165.000
  21057441.201      799655.26449    630021.31547  21057441.197    21057449.117
       241.000         206.000
  23064201.933   -10149636.03849  -7880642.76146  23064201.216    23064212.169
       220.000         172.000
 00  1  4 20 34  0.0000000  0 11G10G26G31G27G11G 2G13G 8G18G19G 7
  24635919.522     1010392.00949    795279.58845  24635918.848    24635931.902
       213.000         148.000
  24556775.623    -6065148.00149  -4047650.24945  24556774.958    24556787.828
       208.000         144.000
  23172225.039     6255171.46849   4877419.38746  23172224.743    23172234.671
       217.000         166.000
  20377877.114    -6840334.32149  -5303492.82848  20377876.869    20377884.189
       245.000         216.000
  24641118.995    -6349770.59649  -4921328.86045  24641118.509    24641130.716
       211.000         148.000
  21541535.033    -1542877.83249  -1181545.48948  21541534.456    21541542.548
       244.000         213.000
  20790481.299    -5251857.54049  -4076088.26548  20790481.649    20790487.946
       244.000         215.000
  23554145.822    -9850581.63749  -7377126.20345  23554145.225    23554156.048
       217.000         153.000
  23472539.322    12282663.83649   9565682.14446  23472539.799    23472550.907
       219.000         165.000
  21064816.338      838411.79649    660221.16947  21064816.331    21064824.285
       241.000         206.000
  23045447.210   -10248192.08949  -7957439.53846  23045446.679    23045457.286
       222.000         173.000
 00  1  4 20 34 30.0000000  0 11G10G26G31G27G11G 2G13G 8G18G19G 7
  24645116.397     1058721.88849    832939.13945  24645115.402    24645129.044
       212.000         149.000
  24539363.949    -6156645.91849  -4118947.13845  24539364.601    24539376.095
       213.000         142.000
  23189205.002     6344401.79749   4946949.42246  23189204.808    23189214.222
       217.000         166.000
  20374679.638    -6857137.12249  -5316585.91348  20374679.463    20374686.847
       244.000         216.000
  24630770.659    -6404150.36049  -4963702.65545  24630769.703    24630782.644
       213.000         149.000
  21536424.297    -1569735.02949  -1202473.15048  21536423.864    21536431.988
       244.000         213.000
  20793829.545    -5234262.52549  -4062377.88448  20793830.031    20793836.305
       244.000         215.000
  23537159.737    -9939843.98949  -7446681.16045  23537158.744    23537170.327
       217.000         155.000
  23493985.757    12395364.73749   9653500.86046  23493986.022    23493997.554
       219.000         165.000
  21072256.234      877508.72949    690686.27647  21072256.251    21072264.224
       241.000         206.000
  23026725.993   -10346572.31249  -8034099.31246  23026725.210    23026735.364
       224.000         174.000
 00  1  4 20 35  0.0000000  0 11G10G26G31G27G11G 2G13G 8G18G19G 7
  24654370.933     1107354.50549    870834.60045  24654370.474    24654384.089
       212.000         150.000
  24521996.236    -6247913.34549  -4190064.43645  24521995.945    24522006.706
       203.000         141.000
  23206250.971     6433978.46149   5016749.32046  23206250.737    23206260.539
       216.000         165.000
  20371551.854    -6873573.77449  -5329393.68948  20371551.578    20371559.144
       244.000         216.000
  24620456.581    -6458350.80949  -5005936.77845  24620456.453    24620468.891
       213.000         149.000
  21531345.458    -1596424.33749  -1223269.98648  21531344.840    21531353.272
       244.000         213.000
  20797286.236    -5216097.59949  -4048223.41848  20797286.668    20797292.980
       245.000         215.000
  23520180.801   -10029068.71049  -7516206.78645  23520179.728    23520191.356
       216.000         158.000
  23515455.092    12508186.37749   9741413.64446  23515455.389    23515466.428
       221.000         164.000
  21079759.833      916939.91449    721411.82847  21079759.726    21079767.858
       241.000         205.000
  23008043.585   -10444748.90449  -8110600.43546  23008042.264    23008053.417
       224.000         175.000
 00  1  4 20 35 30.0000000  0 11G10G26G31G27G11G 2G13G 8G18G19G 7
  24663684.831     1156298.87649    908972.98345  24663683.707    24663695.790
       207.000         148.000
  24504671.655    -6338954.11049  -4261005.11545  24504671.689    24504683.153
       206.000         138.000
  23223364.634     6523911.19749   5086826.67846  23223364.120    23223375.322
       216.000         165.000
  20368494.825    -6889638.55249  -5341911.69548  20368494.595    20368502.017
       245.000         216.000
  24610181.415    -6512347.15149  -5048011.89045  24610180.976    24610193.447
       213.000         148.000
  21526299.073    -1622943.14849  -1243933.97248  21526298.614    21526306.835
       244.000         213.000
  20800853.435    -5197351.83649  -4033616.35248  20800853.839    20800860.217
       245.000         215.000
  23503207.429   -10118264.24949  -7585709.66045  23503206.649    23503217.443
       217.000         157.000
  23536942.806    12621104.49849   9829401.61846  23536942.144    23536954.225
       217.000         164.000
  21087327.915      956710.24049    752401.64447  21087328.107    21087335.821
       241.000         205.000
  22989402.631   -10542707.46349  -8186931.67146  22989401.618    22989412.657
       227.000         176.000
 00  1  4 20 36  0.0000000  0 11G10G26G31G27G11G 2G13G 8G18G19G 7
  24673061.424     1205573.81249    947368.92945  24673061.335    24673073.204
       207.000         147.000
  24487392.589    -6429754.98549  -4331758.83145  24487392.191    24487403.650
       199.000         135.000
  23240546.403     6614201.85549   5157182.91546  23240546.994    23240556.169
       214.000         163.000
  20365504.350    -6905353.60849  -5354157.19248  20365504.195    20365511.558
       245.000         216.000
  24599946.807    -6566130.35149  -5089920.90645  24599946.451    24599959.029
       213.000         148.000
  21521288.230    -1649275.42849  -1264452.61448  21521287.583    21521295.836
       244.000         213.000
  20804530.178    -5178030.61949  -4018560.88648  20804530.673    20804536.896
       245.000         215.000
  23486238.611   -10207435.47249  -7655193.59345  23486237.856    23486249.507
       217.000         158.000
  23558446.105    12734104.68249   9917453.52046  23558446.407    23558456.823
       220.000         164.000
  21094962.886      996832.01549    783665.32147  21094962.801    21094971.042
       241.000         205.000
  22970806.672   -10640429.40249  -8263078.56046  22970806.212    22970816.723
       225.000         175.000
 00  1  4 20 36 30.0000000  0 11G10G26G31G27G11G 2G13G 8G18G19G 7
  24682499.476     1255170.50649    986015.60345  24682500.151    24682512.102
       206.000         146.000
  24470158.963    -6520316.75149  -4402326.25145  24470158.832    24470170.614
       201.000         133.000
  23257797.360     6704856.24949   5227822.58846  23257797.172    23257807.389
       215.000         163.000
  20362576.609    -6920738.91449  -5366145.74248  20362576.542    20362583.830
       244.000         216.000
  24589755.156    -6619687.66249  -5131653.89245  24589754.137    24589766.586
       212.000         147.000
  21516315.069    -1675409.45349  -1284816.77348  21516314.505    21516322.754
       244.000         213.000
  20808313.561    -5158149.13849  -4003068.84248  20808314.024    20808320.258
       245.000         215.000
  23469272.237   -10296594.06049  -7724667.67945  23469271.102    23469282.453
       216.000         158.000
  23579962.744    12847174.79549  10005559.91446  23579963.291    23579974.546
       217.000         165.000
  21102663.003     1037296.20449    815195.82047  21102662.970    21102670.995
       241.000         205.000
  22952256.385   -10737911.54649  -8339038.58246  22952255.384    22952266.477
       227.000         174.000
 00  1  4 20 37  0.0000000  0 11G10G26G31G27G11G 2G13G 8G18G19G 7
  24691996.923     1305080.11049   1024906.09645  24691996.137    24692010.483
       207.000         146.000
  24452971.157    -6610638.75949  -4472706.88445  24452970.891    24452982.627
       204.000         134.000
  23275114.200     6795856.51149   5298731.76345  23275113.754    23275125.116
       215.000         162.000
  20359708.558    -6935810.81449  -5377890.08148  20359708.337    20359715.881
       244.000         216.000
  24579608.035    -6673010.46649  -5173204.15245  24579607.842    24579619.993
       212.000         146.000
  21511381.316    -1701336.24949  -1305019.45648  21511380.701    21511388.934
       244.000         213.000
  20812204.963    -5137699.76249  -3987134.28448  20812205.360    20812211.607
       245.000         215.000
  23452305.624   -10385753.67249  -7794142.54245  23452304.917    23452315.965
       215.000         159.000
  23601493.719    12960319.85349  10093724.69546  23601494.355    23601505.033
       222.000         166.000
  21110427.328     1078098.06149    846989.43047  21110427.235    21110435.454
       241.000         205.000
  22933748.144   -10835172.61549  -8414826.41646  22933748.446    22933757.873
       221.000         174.000
 00  1  4 20 37 30.0000000  0 11G10G26G31G27G11G 2G13G 8G18G19G 7
  24701552.352     1355293.58949   1064033.39545  24701551.931    24701563.682
       209.000         145.000
  24435834.690    -6700691.28449  -4542877.50845  24435835.323    24435847.096
       205.000         138.000
  23292495.218     6887193.74349   5369903.50845  23292495.391    23292505.378
       215.000         162.000
  20356896.936    -6950585.90349  -5389403.13948  20356896.794    20356904.264
       245.000         216.000
  24569502.495    -6726115.68749  -5214584.83645  24569501.868    24569515.081
       212.000         145.000
  21506488.921    -1727045.91049  -1325052.94848  21506488.508    21506496.554
       244.000         213.000
  20816203.021    -5116689.84849  -3970762.94148  20816203.362    20816209.919
       244.000         215.000
  23435338.426   -10474916.15749  -7863619.65245  23435337.384    23435348.480
       216.000         159.000
  23623041.857    13073555.33249  10181959.95046  23623041.968    23623053.056
       219.000         166.000
  21118257.916     1119247.92549    879054.21247  21118257.964    21118266.003
       241.000         205.000
  22915278.798   -10932229.14549  -8490454.81046  22915278.473    22915288.676
       222.000         174.000
 00  1  4 20 38  0.0000000  0 11G10G26G31G27G11G 2G13G 8G18G19G 7
  24711161.508     1405789.77749   1103381.00045  24711161.299    24711173.304
       204.000         143.000
  24418749.673    -6790472.13949  -4612836.46545  24418749.731    24418761.727
       203.000         138.000
  23309939.211     6978862.05149   5441333.23345  23309938.665    23309949.267
       216.000         162.000
  20354141.669    -6965065.04749  -5400685.59648  20354141.521    20354148.901
       244.000         216.000
  24559437.177    -6779009.50749  -5255800.78345  24559437.085    24559449.565
       212.000         144.000
  21501637.659    -1752539.52949  -1344918.09748  21501637.176    21501645.299
       244.000         213.000
  20820307.279    -5095121.83649  -3953956.71548  20820307.611    20820313.955
       244.000         215.000
  23418371.619   -10564076.83249  -7933095.33945  23418370.659    23418381.350
       216.000         160.000
  23644610.580    13186898.98249  10270279.48946  23644610.357    23644622.012
       214.000         166.000
  21126152.798     1160735.57549    911382.21147  21126152.789    21126160.901
       241.000         205.000
  22896845.666   -11029095.54549  -8565935.07446  22896844.744    22896855.790
       227.000         174.000
 00  1  4 20 38 30.0000000  0 11G10G26G31G27G11G 2G13G 8G18G19G 7
  24720822.687     1456559.57249   1142941.76845  24720821.691    24720835.021
       203.000         143.000
  24401714.468    -6879991.95749  -4682591.98745  24401712.586    24401726.286
       205.000         139.000
  23327446.357     7070862.35549   5513021.65345  23327446.155    23327456.285
       216.000         162.000
  20351443.537    -6979243.89749  -5411734.05748  20351443.359    20351450.742
       245.000         216.000
  24549412.373    -6831689.91149  -5296850.40345  24549412.385    24549424.562
       209.000         143.000
  21496828.694    -1777810.85149  -1364610.02548  21496828.116    21496836.294
       244.000         213.000
  20824521.652    -5072975.13349  -3936699.55948  20824521.973    20824528.242
       244.000         215.000
  23401406.389   -10653229.47549  -8002564.79045  23401405.344    23401415.947
       215.000         159.000
  23666200.378    13300353.52749  10358685.43646  23666200.480    23666212.152
       216.000         166.000
  21134107.323     1202536.67149    943954.45947  21134107.302    21134115.500
       241.000         205.000
  22878446.761   -11125782.16549  -8641275.29346  22878446.331    22878456.454
       223.000         175.000
 00  1  4 20 39  0.0000000  0 11G10G26G31G27G11G 2G13G 8G18G19G 7
  24730536.192     1507603.76949   1182716.38445  24730534.577    24730548.295
       203.000         143.000
  24384731.818    -6969236.33549  -4752132.89545  24384731.262    24384744.020
       206.000         142.000
  23345018.236     7163202.69349   5584975.03545  23345018.310    23345028.638
       217.000         162.000
  20348802.047    -6993125.15049  -5422550.63048  20348801.948    20348809.176
       245.000         216.000
  24539427.544    -6884160.56649  -5337736.56245  24539427.528    24539440.024
       211.000         142.000
  21492062.865    -1802855.40449  -1384125.25448  21492062.405    21492070.423
       244.000         213.000
  20828848.887    -5050235.32249  -3918980.24048  20828849.418    20828855.626
       245.000         215.000
  23384443.675   -10742367.96749  -8072023.19045  23384443.237    23384453.502
       214.000         159.000
  23687813.159    13413928.62549  10447185.32246  23687812.099    23687824.932
       215.000         165.000
  21142120.086     1244643.85249    976765.22247  21142120.095    21142128.199
       241.000         205.000
  22860082.538   -11222286.56449  -8716473.51346  22860082.035    22860092.996
       223.000         175.000
 00  1  4 20 39 30.0000000  0 11G10G26G31G27G11G 2G13G 8G18G19G 7
  24740302.550     1558925.93649   1222707.57145  24740303.254    24740314.522
       206.000         141.000
  24367801.611    -7058205.02049  -4821459.02345  24367801.982    24367812.978
       206.000         143.000
  23362657.614     7255897.96949   5657205.00245  23362657.888    23362668.019
       218.000         162.000
  20346217.281    -7006708.27849  -5433134.90248  20346217.227    20346224.560
       243.000         216.000
  24529485.127    -6936408.05749  -5378448.82545  24529485.181    24529496.401
       209.000         140.000
  21487338.611    -1827681.57149  -1403470.31548  21487337.975    21487346.142
       244.000         213.000
  20833288.332    -5026906.04949  -3900801.59748  20833288.714    20833295.143
       244.000         215.000
  23367481.027   -10831506.67049  -8141481.74945  23367480.410    23367490.389
       214.000         160.000
  23709448.147    13527620.36649  10535776.10746  23709447.851    23709458.450
       217.000         164.000
  21150188.595     1287043.98949   1009804.25747  21150188.529    21150196.622
       241.000         204.000
  22841754.451   -11318601.39949  -8791524.01946  22841753.713    22841764.065
       224.000         175.000
 00  1  4 20 40  0.0000000  0 11G10G26G31G27G11G 2G13G 8G18G19G 7
  24750123.633     1610535.35849   1262922.61845  24750123.736    24750134.819
       199.000         141.000
  24350920.069    -7146917.44849  -4890585.43245  24350919.739    24350931.277
       206.000         144.000
  23380363.842     7348944.32949   5729708.55945  23380363.151    23380373.646
       218.000         161.000
  20343692.619    -7019975.49549  -5443473.00548  20343692.375    20343699.746
       243.000         216.000
  24519588.200    -6988416.03149  -5418974.41945  24519587.593    24519598.635
       207.000         138.000
  21482653.089    -1852303.99649  -1422656.61148  21482652.459    21482660.629
       244.000         214.000
  20837841.137    -5002981.02549  -3882158.72948  20837841.602    20837847.920
       245.000         215.000
  23350516.951   -10920652.73649  -8210946.04845  23350515.964    23350526.571
       215.000         160.000
  23731102.869    13641415.70349  10624447.59946  23731102.610    23731114.648
       221.000         164.000
  21158311.148     1329728.11749   1043064.58547  21158310.986    21158319.191
       240.000         204.000
  22823462.631   -11414725.09149  -8866425.59946  22823462.356    22823472.621
       224.000         176.000
 00  1  4 20 40 30.0000000  0 11G10G26G31G27G11G 2G13G 8G18G19G 7
  24759999.886     1662435.85149   1303364.47145  24759997.970    24760012.421
       199.000         139.000
  24334086.572    -7235377.32149  -4959515.01645  24334086.572    24334098.504
       207.000         147.000
  23398135.025     7442331.93849   5802478.03145  23398134.668    23398145.653
       219.000         161.000
  20341230.720    -7032912.95949  -5453554.15748  20341230.539    20341237.842
       243.000         216.000
  24509738.723    -7040174.91649  -5459305.91645  24509739.231    24509749.508
       207.000         138.000
  21478005.984    -1876724.79549  -1441685.80248  21478005.556    21478013.672
       244.000         214.000
  20842505.626    -4978469.20749  -3863058.61848  20842505.953    20842512.520
       245.000         215.000
  23333550.801   -11009809.68649  -8280418.83645  23333549.540    23333560.097
       213.000         159.000
  23752776.450    13755310.57149  10713196.66345  23752776.975    23752788.967
       219.000         162.000
  21166490.288     1372709.73349   1076556.73547  21166490.464    21166498.269
       241.000         204.000
  22805209.773   -11510643.90349  -8941167.52046  22805208.802    22805220.307
       224.000         176.000
 00  1  4 20 41  0.0000000  0 11G10G26G31G27G11G 2G13G 8G18G19G 7
  24769929.609     1714616.87649   1344024.90345  24769928.355    24769942.653
       202.000         137.000
  24317302.348    -7323578.49149  -5028243.03245  24317302.122    24317314.369
       209.000         148.000
  23415969.360     7536051.35949   5875506.05145  23415969.022    23415979.717
       218.000         161.000
  20338835.065    -7045502.28149  -5463364.03548  20338834.838    20338842.089
       243.000         216.000
  24499935.935    -7091688.85449  -5499446.53145  24499935.268    24499948.543
       206.000         138.000
  21473394.937    -1900956.05049  -1460567.28948  21473394.268    21473402.584
       244.000         214.000
  20847276.955    -4953395.75549  -3843520.87548  20847277.360    20847283.626
       245.000         215.000
  23316581.725   -11098982.02049  -8349903.62245  23316581.317    23316591.578
       214.000         159.000
  23774469.907    13869310.09149  10802027.27145  23774470.527    23774481.417
       219.000         160.000
  21174731.717     1416018.63049   1110303.90747  21174731.788    21174740.012
       240.000         204.000
  22787000.275   -11606335.67649  -9015732.52746  22786999.888    22787010.515
       224.000         178.000
 00  1  4 20 41 30.0000000  0 11G10G26G31G27G11G 2G13G 8G18G19G 7
  24779909.681     1767061.88549   1384891.02145  24779909.526    24779921.635
       202.000         136.000
  24300566.028    -7411527.64549  -5096774.69645  24300566.238    24300577.496
       209.000         149.000
  23433864.691     7630091.20749   5948783.76445  23433864.503    23433874.743
       217.000         160.000
  20336508.695    -7057727.56349  -5472890.23748  20336508.598    20336516.000
       243.000         216.000
  24490179.725    -7142957.64949  -5539396.12045  24490180.321    24490190.110
       208.000         137.000
  21468817.214    -1925011.97649  -1479312.15548  21468816.737    21468824.881
       244.000         214.000
  20852154.092    -4927766.34849  -3823549.91648  20852154.564    20852160.844
       245.000         215.000
  23299611.283   -11188161.80249  -8419394.19845  23299610.905    23299621.051
       214.000         159.000
  23796182.094    13983407.70549  10890934.31745  23796183.235    23796194.568
       217.000         157.000
  21183038.025     1459668.25549   1144316.58547  21183037.928    21183046.230
       241.000         204.000
  22768836.287   -11701788.25449  -9090111.11846  22768835.493    22768846.307
       228.000         180.000
 00  1  4 20 42  0.0000000  0 10G26G31G27G11G 2G13G 8G18G19G 7
  24283877.792    -7499224.24149  -5165109.56345  24283877.421    24283889.156
       211.000         149.000
  23451819.482     7724443.90549   6022305.26645  23451819.163    23451830.120
       217.000         159.000
  20334253.100    -7069580.92749  -5482126.62748  20334252.990    20334260.202
       243.000         216.000
  24480468.677    -7193989.50149  -5579161.11145  24480468.095    24480479.654
       206.000         137.000
  21464273.662    -1948888.67349  -1497917.35348  21464273.083    21464281.311
       244.000         214.000
  20857136.605    -4901583.27249  -3803147.52348  20857136.995    20857143.165
       245.000         215.000
  23282643.938   -11277324.95049  -8488871.82945  23282642.442    23282653.731
       214.000         159.000
  23817911.504    14097596.14649  10979912.15245  23817911.593    23817924.593
       210.000         155.000
  21191412.971     1503679.03249   1178610.68247  21191412.900    21191420.843
       240.000         204.000
  22750719.615   -11796991.74049  -9164295.62846  22750719.455    22750729.758
       226.000         181.000
 00  1  4 20 42 30.0000000  0 10G26G31G27G11G 2G13G 8G18G19G 7
  24267245.849    -7586625.46549  -5233214.28445  24267245.955    24267257.626
       210.000         150.000
  23469838.448     7819133.64249   6096089.39945  23469838.309    23469849.225
       217.000         157.000
  20332069.714    -7081054.70049  -5491067.22848  20332069.571    20332076.836
       243.000         216.000
  24470805.289    -7244770.15149  -5618730.32945  24470805.514    24470817.436
       206.000         137.000
  21459770.165    -1972554.59849  -1516358.31248  21459769.571    21459777.534
       245.000         214.000
  20862228.006    -4874827.91049  -3782299.19748  20862228.340    20862234.575
       245.000         215.000
  23265686.776   -11366434.80149  -8558307.94545  23265685.671    23265695.946
       213.000         159.000
  23839661.800    14211894.94849  11068975.94945  23839663.394    23839673.500
       214.000         152.000
  21199860.628     1548071.63049   1213202.29947  21199860.572    21199868.781
       240.000         204.000
  22732655.319   -11891920.26149  -9238265.85746  22732655.040    22732665.565
       226.000         181.000
 00  1  4 20 43  0.0000000  0 10G26G31G27G11G 2G13G 8G18G19G 7
  24250667.135    -7673746.96249  -5301101.02245  24250666.623    24250678.399
       209.000         150.000
  23487916.672     7914134.88049   6170116.26845  23487915.974    23487926.416
       215.000         156.000
  20329949.694    -7092195.43049  -5499748.30648  20329949.379    20329956.819
       243.000         216.000
  24461184.997    -7295324.96649  -5658123.59845  24461185.174    24461196.103
       207.000         138.000
  21455300.720    -1996041.70549  -1534659.92648  21455300.205    21455308.186
       245.000         214.000
  20867425.371    -4847515.66849  -3761016.93948  20867425.602    20867432.165
       245.000         215.000
  23248735.357   -11455514.40449  -8627720.49545  23248734.356    23248744.837
       214.000         158.000
  23861426.140    14326266.51349  11158096.45445  23861427.308    23861437.225
       214.000         152.000
  21208372.744     1592802.74249   1248057.69147  21208372.759    21208380.866
       240.000         203.000
  22714635.814   -11986613.16249  -9312052.45646  22714635.025    22714646.282
       227.000         181.000
 00  1  4 20 43 30.0000000  0 10G26G31G27G11G 2G13G 8G18G19G 7
  24234140.688    -7760593.38449  -5368773.41645  24234140.773    24234152.333
       210.000         152.000
  23506052.632     8009440.13649   6244380.02345  23506051.409    23506062.907
       214.000         156.000
  20327891.319    -7103012.36249  -5508177.07148  20327891.004    20327898.500
       243.000         216.000
  24451610.103    -7345641.04349  -5697330.83645  24451609.773    24451621.127
       204.000         138.000
  21450865.822    -2019347.15249  -1552819.98648  21450865.165    21450873.244
       245.000         214.000
  20872733.904    -4819619.19649  -3739279.44048  20872734.297    20872740.587
       245.000         215.000
  23231790.966   -11544556.94549  -8697104.16045  23231790.356    23231801.388
       215.000         159.000
  23883203.403    14440706.03749  11247269.92745  23883203.782    23883215.192
       212.000         153.000
  21216946.314     1637857.03849   1283164.91547  21216946.254    21216954.335
       240.000         203.000
  22696656.778   -12081093.36149  -9385673.31446  22696656.292    22696666.700
       227.000         181.000
 00  1  4 20 44  0.0000000  0 10G26G31G27G11G 2G13G 8G18G19G 7
  24217667.898    -7847157.68749  -5436225.98345  24217667.777    24217678.828
       209.000         151.000
  23524243.416     8105033.34049   6318868.15045  23524242.816    23524253.895
       213.000         155.000
  20325894.687    -7113504.64349  -5516352.85848  20325894.476    20325901.750
       243.000         216.000
  24442082.870    -7395706.42849  -5736342.71145  24442081.439    24442094.214
       203.000         138.000
  21446470.796    -2042443.15249  -1570816.83948  21446470.268    21446478.371
       245.000         214.000
  20878153.623    -4791138.39949  -3717086.62348  20878154.035    20878160.240
       245.000         215.000
  23214854.813   -11633556.78449  -8766454.55445  23214854.151    23214864.091
       216.000         159.000
  23904993.749    14555214.35249  11336496.97345  23904994.077    23905006.093
       215.000         154.000
  21225581.880     1683237.13349   1318526.00847  21225581.776    21225590.123
       240.000         203.000
  22678717.183   -12175366.38649  -9459132.73846  22678716.231    22678727.258
       228.000         181.000
 00  1  4 20 44 30.0000000  0 10G26G31G27G11G 2G13G 8G18G19G 7
  24201250.705    -7933430.07949  -5503451.10445  24201250.453    24201261.871
       212.000         151.000
  23542489.354     8200916.09749   6393581.90545  23542488.964    23542499.692
       213.000         155.000
  20323959.482    -7123674.31949  -5524277.26048  20323959.286    20323966.470
       243.000         216.000
  24432606.233    -7445505.66649  -5775147.17845  24432605.989    24432617.361
       205.000         138.000
  21442116.063    -2065327.28249  -1588648.59648  21442115.422    21442123.621
       245.000         214.000
  20883684.774    -4762072.09249  -3694437.56548  20883685.176    20883691.527
       245.000         215.000
  23197925.191   -11722522.40349  -8835778.30145  23197924.541    23197935.132
       215.000         160.000
  23926798.476    14669798.17849  11425782.88645  23926798.942    23926811.097
       212.000         156.000
  21234277.506     1728932.91449   1354133.08547  21234277.406    21234285.579
       240.000         203.000
  22660819.743   -12269417.82949  -9532419.47646  22660819.821    22660829.294
       225.000         181.000
 00  1  4 20 45  0.0000000  0 10G26G31G27G11G 2G13G 8G18G19G 7
  24184887.519    -8019418.33049  -5570454.79045  24184887.721    24184898.553
       210.000         152.000
  23560789.974     8297086.27649   6468519.60845  23560790.304    23560800.836
       214.000         155.000
  20322087.483    -7133511.87149  -5531942.86148  20322087.172    20322094.628
       243.000         216.000
  24423180.196    -7495039.13949  -5813744.60645  24423178.835    24423191.996
       203.000         139.000
  21437799.649    -2088010.13649  -1606323.51548  21437799.011    21437807.232
       245.000         215.000
  20889326.797    -4732423.28249  -3671334.61148  20889327.270    20889333.466
       245.000         215.000
  23180999.703   -11811465.93249  -8905084.84245  23180999.188    23181009.656
       217.000         160.000
  23948617.709    14784457.88149  11515127.90445  23948618.916    23948630.925
       215.000         158.000
  21243033.727     1774947.21749   1389988.35947  21243033.744    21243041.664
       240.000         203.000
  22642965.460   -12363242.56649  -9605529.53646  22642964.272    22642975.235
       230.000         181.000
 00  1  4 20 45 30.0000000  0 10G26G31G27G11G 2G13G 8G18G19G 7
  24168579.264    -8105118.02049  -5637233.63745  24168579.610    24168590.218
       211.000         151.000
  23579144.372     8393538.93449   6543677.42645  23579144.588    23579154.661
       212.000         156.000
  20320280.767    -7143006.03149  -5539340.88448  20320280.413    20320287.654
       243.000         216.000
  24413803.681    -7544312.00249  -5852138.94845  24413803.635    24413815.757
       204.000         140.000
  21433521.757    -2110490.51949  -1623840.66548  21433521.422    21433529.369
       245.000         215.000
  20895076.653    -4702207.69649  -3647790.01248  20895076.959    20895083.196
       245.000         215.000
  23164079.129   -11900383.67749  -8974371.27045  23164078.422    23164089.040
       216.000         161.000
  23970450.965    14899191.70649  11604530.68445  23970451.212    23970464.146
       218.000         159.000
  21251851.338     1821283.93049   1426094.86547  21251851.389    21251859.594
       240.000         203.000
  22625159.563   -12456812.86449  -9678441.33746  22625158.729    22625169.162
       226.000         181.000
 00  1  4 20 46  0.0000000  0 10G26G31G27G11G 2G13G 8G18G19G 7
  24152327.939    -8190519.10749  -5703779.80145  24152327.951    24152339.183
       208.000         149.000
  23597553.599     8490279.76049   6619059.77445  23597553.254    23597564.381
       213.000         156.000
  20318539.429    -7152156.83849  -5546471.35948  20318539.188    20318546.625
       243.000         216.000
  24404478.185    -7593317.68749  -5890325.11745  24404477.212    24404488.538
       205.000         140.000
  21429279.936    -2132781.36249  -1641210.12448  21429279.269    21429287.399
       245.000         215.000
  20900928.582    -4671455.47949  -3623827.26048  20900929.058    20900935.190
       245.000         215.000
  23147163.412   -11989276.32449  -9043638.16745  23147162.453    23147172.686
       215.000         161.000
  23992295.462    15013984.27249  11693979.25045  23992295.499    23992307.476
       212.000         161.000
  21260729.356     1867938.01449   1462448.66547  21260729.353    21260737.636
       239.000         203.000
  22607407.236   -12550101.97449  -9751134.02546  22607406.488    22607417.290
       227.000         181.000
 00  1  4 20 46 30.0000000  0 10G26G31G27G11G 2G13G 8G18G19G 7
  24136132.106    -8275628.68649  -5770098.80845  24136131.454    24136142.536
       208.000         148.000
  23616020.564     8587323.81949   6694678.39845  23616020.499    23616030.684
       215.000         156.000
  20316862.050    -7160971.50049  -5553339.90648  20316861.819    20316869.010
       243.000         216.000
  24395202.245    -7642062.74749  -5928308.16445  24395201.933    24395213.823
       207.000         142.000
  21425067.653    -2154917.01749  -1658458.65848  21425066.915    21425075.241
       245.000         215.000
  20906881.351    -4640173.57349  -3599451.76848  20906881.737    20906888.048
       245.000         215.000
  23130250.867   -12078151.57449  -9112891.49945  23130250.711    23130259.762
       219.000         162.000
  24014150.339    15128831.54549  11783470.41945  24014151.749    24014162.419
       221.000         162.000
  21269666.465     1914902.73049   1499044.51347  21269666.436    21269674.688
       239.000         202.000
  22589708.341   -12643110.00449  -9823607.68846  22589707.611    22589717.297
       226.000         181.000
 00  1  4 20 47  0.0000000  0 10G26G31G27G11G 2G13G 8G18G19G 7
  24119989.564    -8360457.15749  -5836198.75045  24119988.949    24119999.946
       206.000         145.000
  23634541.052     8684648.84449   6770515.95745  23634540.718    23634551.529
       213.000         156.000
  20315248.459    -7169450.88549  -5559947.19948  20315248.246    20315255.325
       243.000         216.000
  24385973.896    -7690557.84249  -5966096.43045  24385973.062    24385985.282
       206.000         144.000
  21420881.673    -2176914.47249  -1675599.51148  21420881.183    21420889.175
       245.000         215.000
  20912933.500    -4608369.40349  -3574669.31448  20912933.737    20912940.172
       245.000         214.000
  23113343.029   -12167002.28849  -9182125.72146  23113342.416    23113352.857
       217.000         163.000
  24036013.341    15243721.78749  11872995.08646  24036015.703    24036026.452
       221.000         163.000
  21278663.784     1962183.76849   1535886.83947  21278663.748    21278672.015
       239.000         202.000
  22572059.947   -12735852.57049  -9895874.49546  22572059.458    22572069.507
       226.000         182.000
 00  1  4 20 47 30.0000000  0 10G26G31G27G11G 2G13G 8G18G19G 7
  24103899.663    -8445009.83849  -5902083.82745  24103900.137    24103911.423
       210.000         146.000
  23653112.407     8782241.06849   6846561.72645  23653113.190    23653123.309
       213.000         156.000
  20313699.068    -7177592.95549  -5566291.64948  20313698.709    20313706.118
       243.000         216.000
  24376795.253    -7738791.58249  -6003681.01045  24376794.556    24376806.735
       210.000         146.000
  21416724.098    -2198762.63749  -1692624.04148  21416723.541    21416731.668
       245.000         215.000
  20919084.304    -4576046.69049  -3549482.80448  20919084.579    20919091.079
       245.000         214.000
  23096440.341   -12255825.96349  -9251338.87646  23096440.387    23096450.320
       219.000         164.000
  24057881.458    15358638.86249  11962540.66845  24057881.215    24057895.110
       216.000         162.000
  21287720.781     2009778.43249   1572973.55047  21287720.838    21287729.286
       239.000         202.000
  22554462.557   -12828326.90449  -9967932.28746  22554462.091    22554471.634
       228.000         182.000
 00  1  4 20 48  0.0000000  0 10G26G31G27G11G 2G13G 8G18G19G 7
  24087860.784    -8529294.48349  -5967760.03545  24087861.121    24087871.912
       209.000         147.000
  23671735.274     8880104.27649   6922818.64345  23671735.309    23671745.957
       213.000         156.000
  20312213.775    -7185398.12449  -5572373.57448  20312213.417    20312220.634
       243.000         216.000
  24367668.473    -7786753.16349  -6041053.51245  24367668.274    24367679.546
       211.000         148.000
  21412597.339    -2220448.93349  -1709522.43748  21412596.688    21412604.952
       245.000         215.000
  20925335.853    -4543194.72449  -3523883.88748  20925336.331    20925342.533
       245.000         214.000
  23079541.317   -12344630.96849  -9320537.45346  23079540.427    23079551.518
       217.000         164.000
  24079754.032    15473578.87449  12052104.09645  24079754.103    24079765.995
       215.000         162.000
  21296840.498     2057702.91049   1610317.26047  21296840.224    21296848.815
       239.000         202.000
  22536912.119   -12920554.66349 -10039797.93946  22536911.071    22536921.562
       229.000         182.000
 00  1  4 20 48 30.0000000  0 10G26G31G27G11G 2G13G 8G18G19G 7
  24071874.118    -8613304.03449  -6033221.86445  24071873.729    24071884.559
       207.000         145.000
  23690410.640     8978243.58449   6999290.70845  23690410.670    23690420.969
       213.000         156.000
  20310792.470    -7192867.10549  -5578193.54048  20310792.311    20310799.419
       243.000         216.000
  24358591.995    -7834450.14649  -6078219.83345  24358591.398    24358603.104
       211.000         149.000
  21408506.395    -2241946.91449  -1726274.09548  21408505.870    21408513.806
       245.000         215.000
  20931692.620    -4509789.76849  -3497854.07448  20931693.100    20931699.270
       245.000         214.000
  23062645.637   -12433417.71149  -9389721.81146  23062644.034    23062655.313
       219.000         165.000
  24101633.882    15588557.03549  12141697.27345  24101635.745    24101647.796
       217.000         160.000
  21306026.304     2105974.77449   1647931.65047  21306026.165    21306034.347
       239.000         201.000
  22519407.128   -13012543.34249 -10111477.30046  22519406.130    22519416.668
       228.000         182.000
 00  1  4 20 49  0.0000000  0 10G26G31G27G11G 2G13G 8G18G19G 7
  24055942.398    -8697025.29749  -6098459.06545  24055942.757    24055953.509
       208.000         146.000
  23709138.546     9076658.48949   7075977.52945  23709138.075    23709148.743
       214.000         157.000
  20309436.522    -7199992.50149  -5583745.77948  20309436.260    20309443.493
       243.000         216.000
  24349567.094    -7881875.99449  -6115174.88145  24349566.836    24349578.344
       213.000         151.000
  21404456.243    -2263230.46449  -1742858.66748  21404455.824    21404463.960
       245.000         215.000
  20938158.114    -4475813.49449  -3471379.07848  20938158.634    20938164.880
       245.000         214.000
  23045753.590   -12522185.60749  -9458891.48446  23045752.228    23045762.666
       220.000         164.000
  24123518.948    15703563.22449  12231312.25545  24123518.676    24123531.561
       212.000         157.000
  21315278.205     2154593.58549   1685816.39847  21315278.120    21315286.512
       239.000         201.000
  22501948.840   -13104286.80449 -10182965.59046  22501947.656    22501957.954
       228.000         183.000
 00  1  4 20 49 30.0000000  0 10G26G31G27G11G 2G13G 8G18G19G 7
  24040069.330    -8780438.83749  -6163456.48445  24040069.676    24040079.750
       210.000         147.000
  23727922.754     9175369.57549   7152895.14345  23727922.111    23727932.902
       216.000         158.000
  20308147.718    -7206765.23249  -5589023.21348  20308147.422    20308154.766
       243.000         216.000
  24340596.266    -7929017.57649  -6151908.41045  24340595.756    24340607.489
       213.000         151.000
  21400451.769    -2284274.12249  -1759256.30548  21400451.196    21400459.202
       245.000         215.000
  20944733.773    -4441258.23049  -3444452.91948  20944734.132    20944740.527
       245.000         214.000
  23028864.770   -12610936.71749  -9528048.08446  23028863.809    23028874.549
       217.000         165.000
  24145409.869    15818599.98149  12320951.05145  24145410.180    24145423.633
       209.000         155.000
  21324596.660     2203562.41249   1723973.88047  21324596.509    21324604.873
       238.000         201.000
  22484539.353   -13195773.89049 -10254254.10546  22484538.108    22484548.955
       230.000         183.000
 00  1  4 20 50  0.0000000  0 10G26G31G27G11G 2G13G 8G18G19G 7
  24024258.144    -8863526.84849  -6228200.23745  24024257.962    24024269.303
       209.000         147.000
  23746765.493     9274388.92649   7230052.97345  23746765.776    23746776.069
       216.000         158.000
  20306926.402    -7213183.18349  -5594024.19948  20306926.218    20306933.332
       244.000         216.000
  24331679.373    -7975876.17249  -6188421.44045  24331678.879    24331690.818
       214.000         153.000
  21396490.699    -2305089.55549  -1775476.10448  21396490.038    21396498.268
       245.000         215.000
  20951419.923    -4406122.33349  -3417074.32048  20951420.254    20951426.607
       245.000         214.000
  23011982.042   -12699655.54149  -9597179.52046  23011980.877    23011992.088
       217.000         165.000
  24167309.422    15933681.38749  12410624.64245  24167308.460    24167321.463
       211.000         153.000
  21333981.993     2252882.44549   1762405.02847  21333982.171    21333990.689
       238.000         201.000
  22467177.829   -13287008.43249 -10325345.85446  22467176.947    22467187.057
       228.000         184.000
 00  1  4 20 50 30.0000000  0 10G26G31G27G11G 2G13G 8G18G19G 7
  24008510.777    -8946278.97049  -6292682.26545  24008510.314    24008521.476
       212.000         147.000
  23765665.643     9373709.46549   7307445.47345  23765665.052    23765676.127
       214.000         158.000
  20305774.679    -7219235.38549  -5598740.18648  20305774.415    20305781.563
       243.000         216.000
  24322816.176    -8022451.75649  -6224713.92845  24322814.916    24322827.662
       212.000         154.000
  21392569.034    -2325697.80549  -1791534.45948  21392568.483    21392576.435
       245.000         215.000
  20958216.041    -4370408.60349  -3389245.46148  20958216.459    20958222.779
       245.000         214.000
  22995107.507   -12788331.35049  -9666277.42546  22995107.149    22995116.437
       216.000         164.000
  24189216.915    16048805.30949  12500331.37545  24189217.503    24189229.842
       213.000         151.000
  21343429.842     2302530.95049   1801092.13247  21343429.711    21343437.864
       239.000         201.000
  22449866.695   -13377978.57949 -10396231.56146  22449866.091    22449875.928
       229.000         185.000
 00  1  4 20 51  0.0000000  0 10G26G31G27G11G 2G13G 8G18G19G 7
  23992827.656    -9028693.59949  -6356901.30445  23992826.972    23992839.229
       209.000         148.000
  23784620.431     9473317.04449   7385061.66045  23784620.540    23784631.317
       214.000         157.000
  20304694.653    -7224911.07749  -5603162.79148  20304694.233    20304701.568
       243.000         216.000
  24314009.519    -8068730.35649  -6260775.00445  24314009.052    24314021.396
       215.000         154.000
  21388683.314    -2346117.44349  -1807445.83948  21388682.663    21388690.877
       245.000         215.000
  20965118.993    -4334133.17249  -3360978.91448  20965119.420    20965126.004
       245.000         214.000
  22978243.372   -12876952.20049  -9735332.50846  22978242.684    22978253.494
       217.000         165.000
  24211130.345    16163960.44449  12590062.43145  24211130.713    24211145.284
       208.000         149.000
  21352938.478     2352498.87049   1840028.12147  21352938.588    21352947.075
       238.000         201.000
  22432606.480   -13468681.17349 -10466908.79646  22432605.750    22432616.056
       231.000         185.000
 00  1  4 20 51 30.0000000  0 10G26G31G27G11G 2G13G 8G18G19G 7
  23977208.535    -9110772.32449  -6420858.61745  23977208.144    23977218.927
       210.000         149.000
  23803627.970     9573201.82649   7462893.83845  23803627.981    23803638.939
       215.000         157.000
  20303685.942    -7230211.68449  -5607293.12648  20303685.851    20303692.968
       243.000         216.000
  24305260.042    -8114708.50949  -6296601.98745  24305259.579    24305271.166
       213.000         154.000
  21384829.195    -2366370.67249  -1823227.54648  21384828.561    21384836.800
       245.000         215.000
  20972126.158    -4297310.45649  -3332285.91048  20972126.469    20972133.084
       245.000         213.000
  22961390.373   -12965515.01349  -9804342.38746  22961390.180    22961400.204
       217.000         166.000
  24233051.197    16279154.93149  12679824.14645  24233054.086    24233064.061
       210.000         146.000
  21362508.128     2402787.31849   1879213.87947  21362507.993    21362516.626
       238.000         201.000
  22415397.241   -13559116.11149 -10537377.48046  22415396.524    22415406.648
       230.000         186.000
 00  1  4 20 52  0.0000000  0 10G26G31G27G11G 2G13G 8G18G19G 7
  23961650.067    -9192532.08049  -6484567.37345  23961649.635    23961661.100
       212.000         150.000
  23822686.054     9673352.04349   7540932.83745  23822685.848    23822696.579
       213.000         156.000
  20302747.544    -7235143.09449  -5611135.77248  20302747.291    20302754.531
       243.000         216.000
  24296567.339    -8160388.41349  -6332196.58445  24296566.977    24296578.698
       214.000         154.000
  21381002.721    -2386478.83749  -1838896.20948  21381002.130    21381010.295
       245.000         215.000
  20979237.795    -4259938.62649  -3303165.02348  20979238.146    20979244.771
       244.000         213.000
  22944547.624   -13054024.04049  -9873310.34946  22944547.001    22944556.375
       217.000         166.000
  24254980.646    16394394.42849  12769620.94445  24254981.176    24254993.383
       208.000         144.000
  21372136.158     2453382.76249   1918638.85947  21372136.278    21372144.845
       238.000         200.000
  22398238.688   -13649284.83949 -10607638.71646  22398238.142    22398247.704
       232.000         187.000
 00  1  4 20 52 30.0000000  0 10G26G31G27G11G 2G13G 8G18G19G 7
  23946150.280    -9273983.75049  -6548036.08345  23946149.556    23946160.755
       212.000         152.000
  23841791.132     9773749.08349   7619164.17645  23841791.411    23841801.190
       213.000         154.000
  20301878.172    -7239711.61149  -5614695.64548  20301878.012    20301885.034
       243.000         216.000
  24287930.277    -8205776.26849  -6367563.61045  24287929.656    24287941.082
       214.000         155.000
  21377204.314    -2406439.65649  -1854450.05348  21377203.640    21377211.739
       245.000         215.000
  20986455.574    -4222008.87249  -3273609.39148  20986456.009    20986462.518
       244.000         213.000
  22927712.244   -13142493.80649  -9942247.72746  22927711.646    22927721.375
       219.000         166.000
  24276918.683    16509678.72349  12859452.63245  24276918.309    24276930.921
       212.000         142.000
  21381823.422     2504289.55249   1958306.44847  21381823.532    21381831.990
       238.000         200.000
  22381131.257   -13739184.58849 -10677690.35447  22381130.276    22381140.316
       232.000         188.000
 00  1  4 20 53  0.0000000  0 10G26G31G27G11G 2G13G 8G18G19G 7
  23930709.296    -9355125.84349  -6611263.53945  23930709.255    23930719.812
       214.000         153.000
  23860941.931     9874386.90949   7697583.13045  23860942.153    23860952.784
       212.000         152.000
  20301076.401    -7243924.86449  -5617978.69348  20301076.157    20301083.346
       243.000         216.000
  24279348.783    -8250871.73349  -6402702.81945  24279348.667    24279359.779
       215.000         156.000
  21373435.361    -2426245.49249  -1869883.12748  21373434.769    21373442.931
       245.000         216.000
  20993779.837    -4183519.81049  -3243617.93648  20993780.298    20993786.521
       244.000         213.000
  22910883.796   -13230927.25749 -10011156.80246  22910883.186    22910893.147
       219.000         167.000
  24298865.530    16625008.73449  12949319.96945  24298867.104    24298878.597
       212.000         142.000
  21391572.902     2555523.00649   1998228.58147  21391572.752    21391581.014
       238.000         200.000
  22364075.463   -13828812.93649 -10747530.51747  22364074.663    22364084.655
       232.000         188.000
 00  1  4 20 53 30.0000000  0 10G26G31G27G11G 2G13G 8G18G19G 7
  23915327.073    -9435959.61949  -6674250.78245  23915326.634    23915337.483
       215.000         156.000
  23880138.701     9975266.26849   7776190.29245  23880138.194    23880149.141
       211.000         150.000
  20300341.802    -7247785.13549  -5620986.68748  20300341.546    20300348.796
       243.000         216.000
  24270820.865    -8295685.91749  -6437622.85845  24270820.021    24270832.008
       214.000         156.000
  21369696.728    -2445891.96849  -1885192.02448  21369695.997    21369704.009
       245.000         215.000
  21001212.229    -4144462.36249  -3213183.57848  21001212.633    21001219.160
       245.000         213.000
  22894061.019   -13319331.28449 -10080042.96746  22894059.972    22894070.374
       219.000         168.000
  24320822.418    16740391.80849  13039228.63845  24320823.095    24320835.387
       212.000         143.000
  21401385.279     2607087.36749   2038408.56647  21401385.319    21401393.723
       238.000         200.000
  22347071.656   -13918168.27149 -10817157.93147  22347071.304    22347080.922
       230.000         189.000
 00  1  4 20 54  0.0000000  0 10G26G31G27G11G 2G13G 8G18G19G 7
  23900003.299    -9516485.88149  -6736998.39545  23900003.282    23900013.448
       214.000         155.000
  23899380.735    10076383.82749   7854983.06945  23899380.703    23899392.354
       209.000         148.000
  20299675.644    -7251285.85349  -5623714.51548  20299675.437    20299682.536
       243.000         216.000
  24262345.344    -8340224.55249  -6472328.20345  24262344.528    24262356.470
       213.000         155.000
  21365991.303    -2465364.08549  -1900365.06048  21365990.772    21365998.788
       245.000         215.000
  21008751.819    -4104841.65349  -3182310.31648  21008752.174    21008758.795
       245.000         213.000
  22877243.612   -13407706.97749 -10148907.04846  22877242.874    22877253.885
       219.000         169.000
  24342789.591    16855829.17749  13129179.63245  24342789.667    24342801.897
       211.000         147.000
  21411262.748     2658993.49349   2078854.86447  21411263.121    21411271.316
       238.000         200.000
  22330120.636   -14007246.21349 -10886569.19947  22330120.050    22330129.648
       229.000         189.000
 00  1  4 20 54 30.0000000  0 10G26G31G27G11G 2G13G 8G18G19G 7
  23884743.686    -9596675.17149  -6799483.44345  23884743.696    23884754.373
       216.000         156.000
  23918666.423    10177730.24549   7933954.16345  23918666.712    23918676.437
       209.000         146.000
  20299080.237    -7254414.66949  -5626152.55248  20299079.959    20299087.093
       243.000         216.000
  24253922.699    -8384485.50549  -6506817.17545  24253922.309    24253933.524
       213.000         155.000
  21362321.247    -2484650.19849  -1915393.15348  21362320.593    21362328.577
       245.000         215.000
  21016396.056    -4064671.05149  -3151008.56448  21016396.491    21016402.951
       244.000         213.000
  22860434.095   -13496041.39749 -10217738.98246  22860433.481    22860442.834
       220.000         169.000
  24364762.778    16971298.02949  13219155.14345  24364763.735    24364776.131
       217.000         150.000
  21421208.322     2711257.72149   2119580.20547  21421208.346    21421216.531
       238.000         199.000
  22313223.956   -14096038.45549 -10955757.83347  22313223.657    22313233.522
       230.000         189.000
 00  1  4 20 55  0.0000000  0 10G26G31G27G11G 2G13G 8G18G19G 7
  23869551.916    -9676508.56749  -6861691.17645  23869551.653    23869561.970
       214.000         157.000
  23937997.876    10279317.09149   8013112.61945  23937998.109    23938008.076
       209.000         146.000
  20298559.262    -7257152.39449  -5628285.84348  20298559.010    20298566.203
       243.000         216.000
  24245555.500    -8428454.91049  -6541078.96845  24245554.892    24245567.003
       213.000         155.000
  21358687.242    -2503747.06649  -1930273.78648  21358686.569    21358694.585
       244.000         216.000
  21024140.356    -4023974.61549  -3119297.07548  21024140.730    21024147.235
       244.000         213.000
  22843633.412   -13584329.46649 -10286534.78546  22843632.902    22843642.883
       220.000         170.000
  24386739.601    17086785.82949  13309145.43245  24386739.751    24386752.067
       218.000         153.000
  21431221.747     2763878.55349   2160583.42547  21431221.654    21431230.251
       237.000         199.000
  22296382.873   -14184538.40249 -11024718.69647  22296381.766    22296392.137
       230.000         189.000
 00  1  4 20 55 30.0000000  0 10G26G31G27G11G 2G13G 8G18G19G 7
  23854428.531    -9755981.82849  -6923618.27445  23854428.563    23854439.032
       215.000         158.000
  23957375.198    10381144.52349   8092458.52845  23957374.715    23957385.239
       209.000         145.000
  20298114.940    -7259487.21449  -5630105.18248  20298115.047    20298122.049
       243.000         216.000
  24237246.170    -8472120.35349  -6575103.93545  24237245.964    24237257.328
       213.000         154.000
  21355090.155    -2522649.83149  -1945003.17548  21355089.569    21355097.423
       245.000         216.000
  21031984.281    -3982754.61849  -3087177.61548  21031984.650    21031991.346
       244.000         213.000
  22826843.901   -13672558.91649 -10355284.91846  22826843.775    22826853.358
       221.000         170.000
  24408718.917    17202287.10849  13399146.23845  24408720.295    24408734.431
       219.000         156.000
  21441301.040     2816845.59049   2201856.41147  21441300.886    21441309.463
       237.000         199.000
  22279596.235   -14272752.44449 -11093456.77547  22279595.337    22279605.330
       230.000         190.000
 00  1  4 20 56  0.0000000  0 10G26G31G27G11G 2G13G 8G18G19G 7
  23839375.098    -9835087.70149  -6985259.10745  23839374.754    23839385.368
       213.000         157.000
  23976796.595    10483203.82249   8171985.11745  23976796.289    23976808.071
       209.000         145.000
  20297749.078    -7261410.04249  -5631603.48648  20297748.821    20297756.133
       243.000         216.000
  24229000.204    -8515452.85549  -6608869.44045  24228999.213    24229010.919
       212.000         154.000
  21351531.608    -2541350.01449  -1959574.71248  21351530.823    21351538.742
       245.000         216.000
  21039927.379    -3941013.41049  -3054652.01848  21039927.801    21039934.238
       245.000         213.000
  22810067.716   -13760718.20449 -10423980.37146  22810067.209    22810077.082
       221.000         170.000
  24430699.231    17317793.59649  13489151.10745  24430699.968    24430712.907
       215.000         157.000
  21451444.928     2870151.87549   2243393.75147  21451444.964    21451453.035
       237.000         199.000
  22262863.194   -14360684.27649 -11161974.95047  22262862.751    22262871.959
       232.000         190.000
 00  1  4 20 56 30.0000000  0 10G26G31G27G11G 2G13G 8G18G19G 7
  23824391.596    -9913826.04749  -7046613.54745  23824391.997    23824402.054
       215.000         157.000
  23996263.470    10585502.55449   8251698.26445  23996263.283    23996274.748
       208.000         145.000
  20297460.432    -7262926.91249  -5632785.45948  20297460.181    20297467.396
       243.000         216.000
  24220820.931    -8558434.86049  -6642361.82245  24220820.395    24220832.053
       213.000         154.000
  21348012.560    -2559842.52649  -1973984.42948  21348011.829    21348019.838
       245.000         216.000
  21047971.295    -3898742.41449  -3021713.60047  21047971.742    21047978.214
       245.000         212.000
  22793308.042   -13848790.60049 -10492608.12046  22793307.791    22793316.719
       221.000         169.000
  24452676.431    17433283.77949  13579143.23845  24452677.154    24452690.636
       217.000         156.000
  21461650.530     2923782.73549   2285184.00747  21461650.439    21461658.879
       238.000         199.000
  22246184.580   -14448330.14149 -11230270.29147  22246183.678    22246193.736
       232.000         190.000
 00  1  4 20 57  0.0000000  0 10G26G31G27G11G 2G13G 8G18G19G 7
  23809472.784    -9992224.35449  -7107703.01345  23809472.165    23809483.716
       211.000         157.000
  24015777.684    10688049.91549   8331605.15545  24015778.153    24015788.942
       206.000         145.000
  20297244.507    -7264061.62749  -5633669.64948  20297244.240    20297251.433
       243.000         216.000
  24212711.976    -8601047.77949  -6675566.61245  24212711.129    24212722.454
       213.000         153.000
  21344532.760    -2578128.83449  -1988233.47948  21344532.198    21344540.116
       245.000         216.000
  21056116.914    -3855937.03449  -2988358.77947  21056117.403    21056123.901
       244.000         212.000
  22776565.445   -13936773.20049 -10561165.89146  22776564.712    22776574.505
       222.000         169.000
  24474652.642    17548768.32349  13669131.04245  24474653.110    24474665.056
       205.000         154.000
  21471917.042     2977733.40149   2327223.46247  21471917.371    21471925.533
       237.000         199.000
  22229560.746   -14535688.49049 -11298341.59147  22229559.886    22229570.203
       234.000         190.000
 00  1  4 20 57 30.0000000  0 10G26G31G27G11G 2G13G 8G18G19G 7
  23794614.574   -10070304.12349  -7168544.26945  23794614.631    23794625.215
       213.000         156.000
  24035336.296    10790830.90549   8411694.09845  24035336.823    24035346.780
       209.000         147.000
  20297095.006    -7264847.31649  -5634281.87648  20297094.824    20297101.849
       243.000         216.000
  24204671.796    -8643298.42549  -6708489.09745  24204671.804    24204682.850
       213.000         153.000
  21341090.721    -2596216.78549  -2002327.96948  21341090.011    21341098.069
       245.000         216.000
  21064366.129    -3812587.26749  -2954579.75947  21064366.523    21064372.887
       245.000         212.000
  22759839.639   -14024667.38049 -10629654.75046  22759839.711    22759848.977
       223.000         169.000
  24496626.475    17664241.24549  13759109.69645  24496625.229    24496638.264
       213.000         151.000
  21482243.427     3031998.73249   2369508.10247  21482243.482    21482251.750
       237.000         199.000
  22212991.861   -14622758.10149 -11366187.90647  22212991.016    22213000.948
       233.000         191.000
 00  1  4 20 58  0.0000000  0 10G26G31G27G11G 2G13G 8G18G19G 7
  23779816.532   -10148068.31949  -7229139.62345  23779816.606    23779827.698
       213.000         157.000
  24054939.787    10893847.90649   8491966.93545  24054939.802    24054950.841
       210.000         148.000
  20297008.239    -7265303.32449  -5634637.21148  20297007.974    20297015.330
       243.000         216.000
  24196695.897    -8685211.76649  -6741148.75845  24196695.436    24196706.047
       211.000         152.000
  21337685.570    -2614110.83149  -2016271.36548  21337685.058    21337693.033
       245.000         216.000
  21072715.784    -3768709.69049  -2920389.45847  21072716.042    21072722.683
       244.000         212.000
  22743126.434   -14112495.73049 -10698092.32046  22743126.521    22743134.920
       222.000         170.000
  24518595.635    17779689.05349  13849068.86145  24518595.819    24518610.041
       214.000         151.000
  21492630.857     3086584.77949   2412042.65747  21492630.841    21492639.271
       237.000         199.000
  22196481.875   -14709518.16049 -11433793.00947  22196481.026    22196490.877
       234.000         191.000
 00  1  4 20 58 30.0000000  0 10G26G31G27G11G 2G13G 8G18G19G 7
  23765080.052   -10225508.64949  -7289482.59945  23765080.457    23765090.060
       215.000         156.000
  24074586.919    10997093.15849   8572417.63845  24074587.810    24074598.174
       210.000         151.000
  20296983.234    -7265434.75549  -5634739.62648  20296982.971    20296990.232
       243.000         216.000
  24188778.519    -8726817.46549  -6773568.70645  24188778.127    24188789.496
       211.000         151.000
  21334312.692    -2631835.35949  -2030082.67248  21334312.093    21334319.842
       245.000         216.000
  21081163.758    -3724315.44849  -2885796.56547  21081164.104    21081170.525
       245.000         212.000
  22726422.165   -14200276.95649 -10766493.17346  22726421.186    22726430.934
       222.000         170.000
  24540558.787    17895105.40449  13939003.49145  24540557.506    24540573.732
       205.000         149.000
  21503080.348     3141497.19449   2454831.52347  21503080.377    21503088.577
       238.000         198.000
  22180033.283   -14795955.44149 -11501146.60447  22180032.283    22180042.037
       233.000         191.000
 00  1  4 20 59  0.0000000  0 10G26G31G27G11G 2G13G 8G18G19G 7
  23750408.230   -10302609.62849  -7349561.14745  23750408.554    23750417.678
       215.000         157.000
  24094273.245    11100544.31949   8653028.78445  24094273.472    24094284.243
       214.000         152.000
  20297022.648    -7265227.63349  -5634578.23548  20297022.454    20297029.570
       243.000         216.000
  24180915.330    -8768138.03049  -6805766.46545  24180914.241    24180926.029
       210.000         151.000
  21330967.491    -2649414.35549  -2043780.58448  21330966.979    21330974.862
       245.000         216.000
  21089709.084    -3679409.57649  -2850804.99847  21089709.508    21089715.962
       244.000         212.000
  22709722.109   -14288035.88849 -10834876.64146  22709720.648    22709730.632
       221.000         170.000
  24562519.448    18010508.76149  14028927.98945  24562520.811    24562531.952
       205.000         149.000
  21513593.015     3196741.46449   2497878.97647  21513593.079    21513601.609
       237.000         198.000
  22163646.682   -14882066.82549 -11568246.25647  22163646.317    22163655.473
       234.000         192.000
 00  1  4 20 59 30.0000000  0 10G26G31G27G11G 2G13G 8G18G19G 7
  23735806.242   -10379343.25949  -7409353.44745  23735805.694    23735815.843
       212.000         157.000
  24113996.476    11204189.78149   8733791.33645  24113996.488    24114008.163
       211.000         153.000
  20297133.778    -7264643.63549  -5634123.16848  20297133.587    20297140.725
       243.000         216.000
  24173102.657    -8809193.49449  -6837757.65245  24173102.040    24173113.538
       208.000         150.000
  21327649.392    -2666851.04949  -2057367.60948  21327648.666    21327656.788
       245.000         216.000
  21098353.034    -3633985.41649  -2815409.57047  21098353.394    21098360.026
       244.000         212.000
  22693025.244   -14375777.84149 -10903246.89246  22693024.216    22693034.326
       222.000         170.000
  24584477.346    18125897.47949  14118841.07145  24584478.210    24584493.392
       211.000         150.000
  21524168.072     3252313.53249   2541181.84847  21524168.049    21524176.701
       237.000         198.000
  22147320.675   -14967860.35049 -11635098.22747  22147319.919    22147329.592
       234.000         192.000
 00  1  4 21  0  0.0000000  0 10G26G31G27G11G 2G13G 8G18G19G 7
  23721279.094   -10455682.97349  -7468838.78945  23721278.531    23721289.073
       214.000         156.000
  24133757.123    11308031.85849   8814707.08645  24133756.828    24133768.183
       212.000         153.000
  20297323.685    -7263645.71749  -5633345.56948  20297323.445    20297330.749
       243.000         216.000
  24165343.293    -8849968.78249  -6869530.51745  24165343.531    24165354.685
       209.000         149.000
  21324359.579    -2684139.09149  -2070838.81048  21324359.013    21324367.126
       245.000         216.000
  21107095.505    -3588043.49449  -2779610.69247  21107095.792    21107102.465
       245.000         212.000
  22676335.087   -14463484.99249 -10971590.01046  22676334.710    22676344.558
       221.000         171.000
  24606435.790    18241289.46049  14208756.72945  24606437.078    24606449.548
       211.000         149.000
  21534806.673     3308219.44749   2584744.86547  21534806.394    21534815.023
       237.000         198.000
  22131055.089   -15053336.20249 -11701702.66947  22131054.200    22131063.924
       234.000         192.000
 00  1  4 21  0 30.0000000  0 10G26G31G27G11G 2G13G 8G18G19G 7
  23706827.146   -10531627.40549  -7528016.12245  23706826.945    23706837.576
       215.000         157.000
  24153553.213    11412060.46949   8895768.18745  24153553.443    24153564.842
       211.000         153.000
  20297593.927    -7262225.59049  -5632238.97248  20297593.708    20297600.827
       243.000         216.000
  24157642.479    -8890436.36949  -6901063.59245  24157642.252    24157654.437
       209.000         148.000
  21321099.127    -2701272.98549  -2084189.89248  21321098.591    21321106.308
       245.000         216.000
  21115939.485    -3541568.23649  -2743396.22847  21115939.939    21115946.421
       245.000         212.000
  22659655.821   -14551134.42949 -11039888.15646  22659654.618    22659664.826
       221.000         170.000
  24628399.074    18356706.16849  14298691.62445  24628400.173    24628414.795
       211.000         150.000
  21545509.569     3364463.51749   2628571.37147  21545509.524    21545518.142
       237.000         197.000
  22114848.041   -15138504.60449 -11768067.53347  22114847.749    22114856.826
       235.000         193.000
 00  1  4 21  1  0.0000000  0 10G26G31G27G11G 2G13G 8G18G19G 7
  23692447.407   -10607192.48849  -7586897.84945  23692446.501    23692456.620
       215.000         157.000
  24173388.953    11516297.55749   8976991.73345  24173389.121    24173400.647
       211.000         152.000
  20297942.966    -7260391.39749  -5630809.73148  20297942.787    20297949.833
       243.000         216.000
  24150004.674    -8930572.71049  -6932338.54545  24150004.140    24150014.739
       209.000         147.000
  21317871.241    -2718235.47449  -2097407.41648  21317870.755    21317878.669
       245.000         216.000
  21124885.258    -3494557.97549  -2706764.88047  21124885.716    21124892.143
       245.000         212.000
  22642991.275   -14638707.06849 -11108126.47146  22642990.234    22642999.850
       221.000         171.000
  24650367.704    18472151.12949  14388648.55145  24650368.845    24650381.261
       216.000         148.000
  21556276.003     3421041.47049   2672658.05147  21556276.330    21556284.443
       236.000         197.000
  22098697.148   -15223377.77549 -11834202.35047  22098696.461    22098705.502
       235.000         193.000
 00  1  4 21  1 30.0000000  0 10G26G31G27G11G 2G13G 8G18G19G 7
  23678137.202   -10682392.69749  -7645495.28145  23678137.167    23678147.732
       216.000         157.000
  24193265.866    11620751.35849   9058384.12645  24193266.020    24193277.133
       211.000         151.000
  20298367.283    -7258161.77149  -5629072.36148  20298367.083    20298374.341
       243.000         216.000
  24142436.054    -8970345.95149  -6963330.57745  24142435.550    24142446.421
       207.000         146.000
  21314678.997    -2735010.84649  -2110479.13348  21314678.385    21314686.209
       245.000         216.000
  21133932.152    -3447016.41449  -2669719.53547  21133932.463    21133939.016
       245.000         212.000
  22626344.430   -14726186.12549 -11176291.86046  22626343.358    22626353.646
       220.000         171.000
  24672338.687    18587608.28249  14478614.99545  24672336.947    24672352.970
       203.000         145.000
  21567104.245     3477943.83349   2716997.51047  21567104.444    21567112.743
       237.000         197.000
  22082600.645   -15307965.30449 -11900114.59647  22082599.794    22082609.128
       235.000         193.000
 00  1  4 21  2  0.0000000  0 10G26G31G27G11G 2G13G 8G18G19G 7
  23663892.928   -10757247.09549  -7703823.23545  23663892.708    23663902.756
       218.000         158.000
  24213183.163    11725416.81649   9139941.45945  24213182.762    24213194.444
       210.000         149.000
  20298860.861    -7255567.91849  -5627051.17648  20298860.691    20298867.868
       244.000         216.000
  24134938.376    -9009745.99749  -6994031.78345  24134938.430    24134949.392
       209.000         145.000
  21311522.374    -2751598.92449  -2123404.89948  21311521.900    21311529.651
       245.000         216.000
  21143078.642    -3398951.38549  -2632266.28747  21143079.251    21143085.591
       245.000         211.000
  22609713.401   -14813582.21349 -11244392.58746  22609712.732    22609721.766
       223.000         172.000
  24694310.930    18703072.62149  14568586.97545  24694310.235    24694323.637
       202.000         143.000
  21577993.907     3535169.21749   2761588.67147  21577993.656    21578002.460
       236.000         196.000
  22066560.150   -15392258.05349 -11965797.14147  22066559.189    22066568.523
       234.000         194.000
 00  1  4 21  2 30.0000000  0 10G26G31G27G11G 2G13G 8G18G19G 7
  23649711.285   -10831771.31149  -7761893.90945  23649711.206    23649721.351
       216.000         158.000
  24233141.685    11830298.91149   9221667.58645  24233142.315    24233153.708
       210.000         148.000
  20299422.096    -7252618.66649  -5624753.06148  20299421.963    20299429.136
       243.000         216.000
  24127510.573    -9048779.10549  -7024447.06845  24127510.772    24127520.842
       209.000         146.000
  21308401.723    -2767997.96049  -2136183.35548  21308401.181    21308408.941
       245.000         216.000
  21152324.970    -3350361.85349  -2594404.34247  21152325.450    21152331.823
       245.000         211.000
  22593094.171   -14900916.92749 -11312445.50646  22593093.227    22593102.906
       221.000         173.000
  24716279.793    18818519.01749  14658545.01145  24716279.326    24716293.955
       205.000         142.000
  21588944.138     3592712.99749   2806427.93147  21588944.055    21588952.744
       236.000         196.000
  22050575.777   -15476255.83449 -12031249.85347  22050574.645    22050584.572
       233.000         194.000
 00  1  4 21  3  0.0000000  0 10G26G31G27G11G 2G13G 8G18G19G 7
  23635594.648   -10905954.12649  -7819698.57045  23635594.488    23635605.220
       216.000         157.000
  24253141.419    11935397.73549   9303562.57845  24253140.420    24253152.311
       206.000         146.000
  20300054.890    -7249293.39649  -5622161.94048  20300054.645    20300061.719
       244.000         216.000
  24120153.565    -9087440.14949  -7054572.43445  24120152.936    24120164.264
       209.000         146.000
  21305316.158    -2784212.52749  -2148818.06248  21305315.627    21305323.650
       245.000         216.000
  21161670.802    -3301249.24049  -2556134.80147  21161671.060    21161677.846
       245.000         211.000
  22576486.479   -14988190.36549 -11380450.66646  22576485.025    22576494.941
       222.000         173.000
  24738240.123    18933920.31249  14748467.91545  24738240.113    24738253.330
       213.000         143.000
  21599954.146     3650570.81949   2851511.89847  21599954.383    21599962.910
       236.000         196.000
  22034648.610   -15559953.08449 -12096468.38247  22034647.631    22034657.116
       234.000         194.000
 00  1  4 21  3 30.0000000  0 11G26G31G15G27G11G 2G13G 8G18G19G 7
  23621546.971   -10979775.02349  -7877221.22245  23621547.173    23621557.017
       215.000         158.000
  24273178.556    12040693.04349   9385610.68645  24273180.017    24273191.232
       206.000         143.000
  24331139.582    -9540841.96949  -7412762.92745  24331139.613    24331151.789
       207.000         143.000
  20300763.148    -7245571.40849  -5619261.68648  20300763.024    20300770.198
       243.000         216.000
  24112866.192    -9125734.62849  -7084412.15145  24112865.041    24112876.830
       208.000         145.000
  21302267.428    -2800233.78449  -2161302.13548  21302266.917    21302274.884
       245.000         216.000
  21171117.397    -3251607.10949  -2517452.64747  21171117.850    21171124.390
       245.000         211.000
  22559891.178   -15075398.70049 -11448405.09546  22559890.553    22559899.699
       223.000         174.000
  24760192.572    19049280.66049  14838358.90145  24760192.026    24760203.989
       209.000         140.000
  21611025.361     3708750.21949   2896846.44447  21611025.239    21611033.792
       236.000         195.000
  22018783.363   -15643324.90749 -12161433.33447  22018782.344    22018791.998
       235.000         195.000
 00  1  4 21  4  0.0000000  0 10G26G31G15G27G11G 2G13G 8G19G 7
  23607569.811   -11053224.43749  -7934454.39645  23607569.230    23607579.694
       217.000         158.000
  24293252.770    12146182.80649   9467810.31045  24293253.281    24293263.336
       205.000         141.000
  24326547.107    -9564975.48649  -7431568.20245  24326545.683    24326559.742
       206.000         144.000
  20301549.490    -7241439.25749  -5616041.82848  20301549.350    20301556.444
       243.000         216.000
  24105644.495    -9163684.30049  -7113983.19445  24105644.060    24105656.014
       208.000         144.000
  21299252.541    -2816077.25849  -2173647.66948  21299251.965    21299259.948
       245.000         216.000
  21180663.877    -3201440.08349  -2478361.48547  21180664.321    21180670.860
       245.000         211.000
  22543307.808   -15162544.63149 -11516310.89446  22543307.143    22543317.040
       224.000         174.000
  21622159.780     3767261.91149   2942439.92347  21622160.010    21622168.643
       236.000         195.000
  22002982.734   -15726357.36049 -12226133.84947  22002981.993    22002991.151
       235.000         195.000
 00  1  4 21  4 30.0000000  0 10G26G31G15G27G11G 2G13G 8G19G 7
  23593668.245   -11126277.58949  -7991378.82745  23593668.153    23593677.523
       217.000         158.000
  24313366.037    12251878.32549   9550170.25945  24313365.727    24313378.242
       206.000         139.000
  24322047.739    -9588619.27249  -7449991.84245  24322047.207    24322059.823
       205.000         143.000
  20302418.480    -7236872.63949  -5612483.42448  20302418.178    20302425.170
       243.000         216.000
  24098490.134    -9201280.47349  -7143278.80645  24098489.723    24098499.675
       208.000         144.000
  21296270.713    -2831746.64849  -2185857.55048  21296270.049    21296278.202
       245.000         216.000
  21190309.355    -3150752.97449  -2438865.06547  21190309.754    21190316.395
       244.000         211.000
  22526742.073   -15249597.40749 -11584144.11346  22526741.811    22526750.840
       223.000         175.000
  21633358.640     3826112.13249   2988297.18047  21633358.577    21633367.282
       235.000         195.000
  21987248.791   -15809039.34249 -12290561.26847  21987248.045    21987257.311
       234.000         195.000
 00  1  4 21  5  0.0000000  0 10G26G31G15G27G11G 2G13G 8G19G 7
  23579842.891   -11198929.73149  -8047990.78045  23579842.984    23579852.929
       217.000         159.000
  24333514.787    12357759.47249   9632674.85045  24333515.048    24333526.526
       207.000         139.000
  24317642.080    -9611771.04149  -7468032.07145  24317640.888    24317653.927
       207.000         143.000
  20303367.849    -7231883.87349  -5608596.07448  20303367.681    20303374.665
       243.000         216.000
  24091404.174    -9238516.48449  -7172293.80545  24091403.828    24091413.950
       207.000         144.000
  21293318.828    -2847258.80949  -2197944.91048  21293318.352    21293326.018
       246.000         216.000
  21200052.687    -3099551.43849  -2398967.79347  21200053.159    21200059.580
       244.000         210.000
  22510196.614   -15336543.79649 -11651894.43146  22510195.846    22510205.147
       224.000         175.000
  21644621.467     3885298.41249   3034416.30747  21644621.450    21644630.530
       235.000         195.000
  21971582.873   -15891363.76849 -12354710.06947  21971582.000    21971591.355
       234.000         195.000
 00  1  4 21  5 30.0000000  0 10G26G31G15G27G11G 2G13G 8G19G 7
  23566093.624   -11271182.10249  -8104291.21645  23566093.543    23566103.102
       216.000         160.000
  24353696.527    12463814.51149   9715314.96945  24353697.496    24353708.191
       204.000         138.000
  24313328.033    -9634440.98449  -7485696.82045  24313326.874    24313339.589
       205.000         144.000
  20304392.670    -7226498.31949  -5604399.54348  20304392.372    20304399.675
       243.000         216.000
  24084383.273    -9275411.19249  -7201042.87845  24084382.629    24084394.187
       208.000         144.000
  21290393.997    -2862629.01749  -2209921.65248  21290393.457    21290401.255
       245.000         216.000
  21209890.692    -3047852.50249  -2358682.94047  21209891.148    21209897.608
       244.000         210.000
  22493668.951   -15423396.94549 -11719572.08746  22493668.617    22493677.488
       224.000         176.000
  21655948.546     3944822.41849   3080798.58947  21655948.599    21655957.529
       234.000         195.000
  21955984.527   -15973333.35049 -12418582.37347  21955983.589    21955992.783
       236.000         196.000
 00  1  4 21  6  0.0000000  0 10G26G31G15G27G11G 2G13G 8G19G 7
  23552420.499   -11343035.12449  -8160280.49545  23552420.489    23552429.880
       217.000         161.000
  24373912.680    12570050.71449   9798096.26745  24373912.681    24373924.496
       205.000         137.000
  24309104.137    -9656637.18149  -7502992.40345  24309103.398    24309116.423
       208.000         145.000
  20305489.968    -7220731.95449  -5599906.27448  20305489.762    20305496.772
       244.000         216.000
  24077427.179    -9311965.54549  -7229526.74345  24077426.155    24077438.129
       209.000         145.000
  21287492.642    -2877875.75849  -2221802.18848  21287492.096    21287499.836
       246.000         217.000
  21219820.983    -2995668.41649  -2318020.04247  21219821.413    21219827.962
       244.000         210.000
  22477155.815   -15510173.40849 -11787190.00046  22477154.879    22477164.416
       225.000         177.000
  21667338.796     4004678.20249   3127439.39647  21667338.913    21667347.577
       235.000         195.000
  21940448.627   -16054974.37949 -12482198.65647  21940447.984    21940457.161
       234.000         196.000
 00  1  4 21  6 30.0000000  0 10G26G31G15G27G11G 2G13G 8G19G 7
  23538821.156   -11414499.31449  -8215966.77945  23538821.633    23538830.623
       217.000         161.000
  24394160.157    12676451.23749   9881005.58345  24394160.484    24394173.217
       210.000         137.000
  24304970.691    -9678358.24149  -7519917.76245  24304970.219    24304983.147
       208.000         146.000
  20306656.914    -7214599.68549  -5595127.89148  20306656.674    20306664.000
       243.000         216.000
  24070536.220    -9348177.07449  -7257743.47445  24070536.324    24070546.334
       209.000         145.000
  21284616.887    -2892987.92549  -2233577.86048  21284616.277    21284624.189
       246.000         217.000
  21229842.270    -2943006.33949  -2276984.68547  21229842.756    21229849.304
       244.000         210.000
  22460656.445   -15596877.95449 -11854751.87446  22460655.772    22460664.853
       225.000         177.000
  21678789.866     4064853.85349   3174329.46747  21678789.936    21678798.415
       235.000         194.000
  21924972.185   -16136303.12349 -12545571.61047  21924971.618    21924980.736
       235.000         196.000
 00  1  4 21  7  0.0000000  0 10G26G31G15G27G11G 2G13G 8G19G 7
  23525294.148   -11485583.47049  -8271356.92645  23525294.068    23525304.023
       216.000         161.000
  24414438.074    12783011.46749   9964039.35545  24414438.506    24414449.941
       207.000         137.000
  24300926.846    -9699608.79449  -7536476.51245  24300925.509    24300938.960
       209.000         146.000
  20307892.227    -7208108.04749  -5590069.47848  20307891.969    20307899.141
       244.000         216.000
  24063709.089    -9384053.87749  -7285699.37745  24063709.001    24063720.063
       212.000         146.000
  21281768.440    -2907956.41749  -2245241.57948  21281767.769    21281775.554
       245.000         217.000
  21239955.531    -2889860.76849  -2235572.58347  21239955.865    21239962.694
       244.000         209.000
  22444168.591   -15683521.77849 -11922266.42846  22444167.696    22444176.627
       225.000         178.000
  21690302.978     4125355.55749   3221473.59547  21690302.836    21690311.520
       235.000         194.000
  21909554.169   -16217325.09249 -12608705.51847  21909553.022    21909562.426
       236.000         196.000
 00  1  4 21  7 30.0000000  0 10G26G31G15G27G11G 2G13G 8G19G 7
  23511841.619   -11556276.41149  -8326442.23445  23511840.941    23511850.966
       217.000         161.000
  24434750.424    12889752.44749  10047213.97445  24434749.895    24434762.404
       208.000         139.000
  24296973.068    -9720385.72849  -7552666.20345  24296972.326    24296985.384
       209.000         146.000
  20309198.530    -7201243.24249  -5584720.28748  20309198.315    20309205.577
       243.000         216.000
  24056944.306    -9419603.53949  -7313400.37545  24056943.944    24056954.198
       212.000         147.000
  21278950.693    -2922763.66249  -2256779.65748  21278950.229    21278957.989
       246.000         217.000
  21250161.790    -2836226.65049  -2193779.79447  21250162.209    21250168.902
       244.000         209.000
  22427692.006   -15770106.71749 -11989735.10546  22427691.342    22427699.846
       226.000         178.000
  21701878.553     4186185.25149   3268873.29047  21701878.722    21701886.911
       235.000         194.000
  21894193.628   -16298044.86649 -12671603.95447  21894192.796    21894202.388
       235.000         196.000
 00  1  4 21  8  0.0000000  0 10G26G31G15G27G11G 2G13G 8G19G 7
  23498462.334   -11626584.89949  -8381227.95945  23498462.133    23498472.186
       216.000         161.000
  24455097.963    12996678.16949  10130532.57345  24455097.798    24455108.959
       209.000         140.000
  24293112.165    -9740674.94449  -7568475.88245  24293111.539    24293124.331
       209.000         146.000
  20310580.661    -7193980.23049  -5579060.80048  20310580.598    20310587.725
       243.000         216.000
  24050247.483    -9454795.63149  -7340822.73945  24050246.641    24050258.629
       213.000         149.000
  21276167.433    -2937389.71849  -2268176.55148  21276166.716    21276174.499
       246.000         217.000
  21260463.850    -2782089.21549  -2151594.80947  21260464.247    21260470.872
       243.000         209.000
  22411229.533   -15856617.00149 -12057145.61746  22411229.199    22411237.785
       226.000         178.000
  21713514.510     4247332.23649   3316520.23047  21713514.567    21713523.171
       234.000         194.000
  21878892.516   -16378452.40449 -12734259.08947  21878891.988    21878900.906
       235.000         197.000
 00  1  4 21  8 30.0000000  0 10G26G31G15G27G11G 2G13G 8G19G 7
  23485154.752   -11696516.39849  -8435719.93545  23485155.095    23485164.214
       216.000         162.000
  24475479.357    13103782.22549  10213990.11345  24475479.398    24475490.680
       207.000         141.000
  24289345.919    -9760466.08749  -7583897.46745  24289345.126    24289357.248
       208.000         145.000
  20312041.223    -7186304.91449  -5573080.03748  20312041.067    20312048.326
       243.000         216.000
  24043620.883    -9489618.55649  -7367957.43145  24043620.898    24043631.258
       214.000         149.000
  21273420.133    -2951826.84449  -2279426.23448  21273419.388    21273427.133
       246.000         217.000
  21270863.890    -2727436.62249  -2109008.40847  21270864.317    21270871.034
       244.000         209.000
  22394785.733   -15943029.68649 -12124480.08146  22394784.743    22394794.972
       226.000         178.000
  21725212.022     4308802.89449   3364419.38247  21725211.899    21725220.966
       234.000         194.000
  21863656.737   -16458516.88949 -12796646.91047  21863655.936    21863665.337
       236.000         197.000
 00  1  4 21  9  0.0000000  0 10G26G31G15G27G11G 2G13G 8G19G 7
  23471920.117   -11766064.26349  -8489912.97145  23471919.858    23471929.808
       214.000         161.000
  24495896.035    13211072.40049  10297592.67945  24495895.474    24495908.658
       209.000         142.000
  24285674.926    -9779756.76049  -7598929.09645  24285674.048    24285686.064
       209.000         145.000
  20313582.381    -7178206.02949  -5566769.22148  20313582.270    20313589.377
       244.000         216.000
  24037067.284    -9524057.69449  -7394793.04345  24037067.375    24037077.631
       215.000         150.000
  21270708.620    -2966075.76549  -2290529.27148  21270707.945    21270715.913
       246.000         217.000
  21281363.034    -2672263.44249  -2066016.35147  21281363.589    21281370.103
       243.000         209.000
  22378358.322   -16029355.95349 -12191747.22346  22378356.836    22378366.837
       226.000         177.000
  21736971.517     4370599.28249   3412572.34947  21736971.438    21736980.533
       234.000         193.000
  21848489.258   -16538222.24049 -12858754.89247  21848488.446    21848497.907
       236.000         197.000
 00  1  4 21  9 30.0000000  0 10G26G31G15G27G11G 2G13G 8G19G 7
  23458760.498   -11835217.51549  -8543798.51445  23458760.438    23458770.087
       215.000         161.000
  24516347.248    13318543.45549  10381336.16145  24516346.746    24516359.424
       209.000         144.000
  24282100.825    -9798538.48249  -7613564.15745  24282100.642    24282113.085
       209.000         145.000
  20315205.343    -7169677.41549  -5560123.55348  20315205.046    20315212.267
       244.000         216.000
  24030593.140    -9558079.70749  -7421303.59645  24030593.536    24030603.477
       215.000         151.000
  21268031.388    -2980144.50249  -2301491.90948  21268030.889    21268038.636
       245.000         217.000
  21291959.977    -2616576.42749  -2022623.90547  21291960.383    21291966.962
       243.000         209.000
  22361948.386   -16115590.00449 -12258942.49846  22361947.846    22361956.787
       225.000         177.000
  21748792.438     4432718.31849   3460976.72447  21748792.434    21748801.168
       234.000         193.000
  21833391.161   -16617563.03149 -12920578.80347  21833390.238    21833399.430
       236.000         198.000
 00  1  4 21 10  0.0000000  0 10G26G31G15G27G11G 2G13G 8G19G 7
  23445675.507   -11903979.27749  -8597378.99845  23445675.487    23445685.402
       216.000         161.000
  24536828.063    13426170.38049  10465201.10445  24536828.297    24536840.156
       207.000         144.000
  24278623.106    -9816813.80449  -7627804.62245  24278622.659    24278634.925
       209.000         146.000
  20316908.663    -7160726.32749  -5553148.68448  20316908.557    20316915.895
       243.000         215.000
  24024198.524    -9591683.76249  -7447488.45645  24024197.884    24024208.750
       215.000         152.000
  21265385.987    -2994046.22249  -2312324.40848  21265385.430    21265393.235
       246.000         217.000
  21302652.666    -2560386.07349  -1978839.24447  21302653.080    21302659.725
       243.000         208.000
  22345558.455   -16201718.91149 -12326055.83846  22345557.652    22345566.274
       226.000         177.000
  21760676.365     4495168.43549   3509639.08747  21760676.417    21760685.596
       234.000         192.000
  21818362.303   -16696539.89549 -12982119.13947  21818361.523    21818370.392
       237.000         198.000
 00  1  4 21 10 30.0000000  0  9G26G15G27G11G 2G13G 8G19G 7
  23432669.730   -11972325.04049  -8650635.32945  23432669.291    23432679.345
       216.000         162.000
  24275243.171    -9834574.88949  -7641644.34645  24275242.589    24275256.092
       211.000         146.000
  20318690.649    -7151361.99749  -5545851.81048  20318690.403    20318697.735
       243.000         215.000
  24017879.509    -9624890.02449  -7473363.32645  24017879.218    24017889.968
       214.000         153.000
  21262773.211    -3007776.47249  -2323023.30048  21262772.679    21262780.285
       246.000         217.000
  21313441.702    -2503689.35749  -1934660.02047  21313442.071    21313448.880
       243.000         208.000
  22329190.472   -16287733.18849 -12393079.86746  22329190.153    22329199.323
       225.000         177.000
  21772628.375     4557976.42949   3558580.31747  21772628.333    21772637.580
       233.000         192.000
  21803404.240   -16775144.71749 -13043369.56847  21803403.318    21803412.557
       237.000         199.000
 00  1  4 21 11  0.0000000  0  9G26G15G27G11G 2G13G 8G19G 7
  23419743.710   -12040251.20849  -8703564.70445  23419744.578    23419752.942
       216.000         162.000
  24271957.517    -9851840.86849  -7655098.27445  24271956.294    24271969.580
       209.000         146.000
  20320548.310    -7141600.17149  -5538245.19448  20320548.157    20320555.376
       243.000         216.000
  24011631.776    -9657721.53849  -7498946.18645  24011631.513    24011641.307
       217.000         154.000
  21260188.117    -3021361.20849  -2333608.80648  21260187.568    21260195.252
       246.000         217.000
  21324321.007    -2446518.49449  -1890111.33047  21324321.599    21324328.142
       243.000         208.000
  22312839.985   -16373655.29049 -12460032.07246  22312839.533    22312848.363
       226.000         177.000
  21784643.591     4621116.62249   3607780.40847  21784643.475    21784652.184
       234.000         192.000
  21788509.621   -16853416.01749 -13104360.11947  21788509.089    21788517.761
       237.000         199.000
 00  1  4 21 11 30.0000000  0  9G26G15G27G11G 2G13G 8G19G 7
  23406897.468   -12107758.19949  -8756167.45846  23406897.722    23406907.268
       216.000         163.000
  24268765.553    -9868614.43849  -7668168.49945  24268765.094    24268777.451
       209.000         145.000
  20322481.540    -7131441.06649  -5530329.00748  20322481.339    20322488.596
       243.000         215.000
  24005450.841    -9690202.56549  -7524255.91245  24005449.703    24005460.610
       217.000         154.000
  21257628.002    -3034814.61949  -2344091.98148  21257627.341    21257635.252
       246.000         217.000
  21335288.415    -2388884.70549  -1845201.91747  21335288.817    21335295.662
       243.000         208.000
  22296511.158   -16459463.39949 -12526895.45646  22296510.617    22296519.524
       225.000         177.000
  21796721.823     4684587.94749   3657238.52447  21796722.083    21796730.402
       234.000         192.000
  21773676.389   -16931365.12649 -13165099.61447  21773675.868    21773684.541
       237.000         199.000
 00  1  4 21 12  0.0000000  0  9G26G15G27G11G 2G13G 8G19G 7
  23394130.131   -12174850.49049  -8808447.04646  23394130.311    23394140.178
       216.000         164.000
  24265667.567    -9884894.07349  -7680853.88045  24265667.038    24265679.505
       208.000         145.000
  20324490.403    -7120884.31149  -5522102.96748  20324490.248    20324497.247
       243.000         215.000
  23999331.522    -9722359.42949  -7549313.04745  23999330.489    23999341.323
       217.000         155.000
  21255095.294    -3048123.95249  -2354462.88448  21255094.814    21255102.440
       246.000         217.000
  21346345.660    -2330778.58749  -1799924.45347  21346346.212    21346352.653
       243.000         208.000
  22280203.781   -16545158.86249 -12593671.06446  22280203.226    22280212.932
       227.000         177.000
  21808863.483     4748392.31749   3706956.15547  21808863.528    21808872.305
       234.000         192.000
  21758905.247   -17008987.72249 -13225584.68947  21758904.314    21758913.572
       236.000         199.000
 00  1  4 21 12 30.0000000  0  9G26G15G27G11G 2G13G 8G19G 7
  23381442.424   -12241524.34549  -8860400.59146  23381442.494    23381453.032
       216.000         164.000
  24262666.975    -9900662.22149  -7693140.72545  24262666.446    24262679.674
       208.000         144.000
  20326579.039    -7109908.50849  -5513550.39348  20326578.842    20326586.006
       243.000         215.000
  23993278.939    -9754165.65649  -7574096.95745  23993278.459    23993288.500
       218.000         156.000
  21252591.954    -3061279.06849  -2364713.62148  21252591.427    21252599.046
       246.000         217.000
  21357493.787    -2272194.82649  -1754274.80347  21357494.294    21357500.755
       243.000         208.000
  22263915.322   -16630755.05049 -12660369.31446  22263914.783    22263923.797
       227.000         178.000
  21821065.789     4812515.59349   3756922.28147  21821065.771    21821074.382
       234.000         191.000
  21744199.822   -17086264.78849 -13285800.51347  21744198.954    21744208.200
       237.000         200.000
 00  1  4 21 13  0.0000000  0  9G26G15G27G11G 2G13G 8G19G 7
  23368836.175   -12307770.38949  -8912020.76446  23368836.221    23368845.904
       218.000         164.000
  24259766.391    -9915904.86149  -7705018.10945  24259766.223    24259778.501
       209.000         144.000
  20328752.860    -7098484.93749  -5504648.91648  20328752.637    20328759.955
       243.000         215.000
  23987300.825    -9785580.29349  -7598575.74445  23987300.507    23987310.954
       218.000         156.000
  21250120.033    -3074269.13349  -2374835.74248  21250119.428    21250127.002
       246.000         217.000
  21368732.269    -2213136.34949  -1708255.24547  21368732.644    21368739.429
       243.000         207.000
  22247647.516   -16716242.65049 -12726982.94946  22247646.665    22247655.989
       225.000         179.000
  21833328.559     4876956.81549   3807136.15347  21833328.601    21833337.756
       232.000         191.000
  21729562.499   -17163184.12349 -13345737.58847  21729561.797    21729570.662
       238.000         200.000
 00  1  4 21 13 30.0000000  0  9G26G15G27G11G 2G13G 8G19G 7
  23356308.480   -12373603.57049  -8963319.24746  23356308.194    23356318.114
       216.000         164.000
  24256966.559    -9930617.94849  -7716482.87145  24256966.402    24256979.085
       212.000         144.000
  20331010.343    -7086621.76949  -5495404.89848  20331010.284    20331017.318
       243.000         215.000
  23981400.016    -9816588.82149  -7622738.10145  23981399.183    23981409.476
       219.000         156.000
  21247680.177    -3087090.57949  -2384826.47148  21247679.747    21247687.294
       246.000         217.000
  21380061.216    -2153602.45849  -1661865.23347  21380061.591    21380068.419
       243.000         207.000
  22231400.434   -16801621.47449 -12793511.81646  22231400.612    22231409.309
       228.000         179.000
  21845652.517     4941719.57449   3857600.57747  21845652.859    21845661.465
       233.000         191.000
  21714997.623   -17239722.80349 -13405378.05447  21714996.801    21715005.815
       238.000         201.000
 00  1  4 21 14  0.0000000  0  9G26G15G27G11G 2G13G 8G19G 7
  23343859.965   -12439020.76249  -9014293.58546  23343860.002    23343868.882
       217.000         165.000
  24254268.562    -9944796.39549  -7727531.01745  24254267.730    24254280.044
       208.000         144.000
  20333350.534    -7074324.12149  -5485822.32348  20333350.344    20333357.548
       243.000         215.000
  23975580.384    -9847170.72949  -7646568.04945  23975579.762    23975590.630
       219.000         157.000
  21245272.796    -3099741.40649  -2394684.25148  21245272.144    21245279.995
       246.000         217.000
  21391479.935    -2093596.80149  -1615107.61347  21391480.146    21391487.088
       242.000         207.000
  22215172.531   -16886899.40049 -12859962.06446  22215171.347    22215180.177
       227.000         180.000
  21858036.805     5006799.27149   3908311.97747  21858036.926    21858045.798
       233.000         190.000
  21700508.164   -17315865.34149 -13464709.83947  21700507.531    21700516.358
       237.000         201.000
 00  1  4 21 14 30.0000000  0  9G26G15G27G11G 2G13G 8G19G 7
  23331491.984   -12504014.56849  -9064938.00646  23331492.004    23331501.089
       219.000         165.000
  24251671.292    -9958444.87749  -7738166.22045  24251670.508    24251683.598
       210.000         143.000
  20335772.645    -7061595.80349  -5475904.16148  20335772.548    20335779.764
       243.000         215.000
  23969844.366    -9877313.00949  -7670055.44445  23969843.593    23969854.186
       219.000         158.000
  21242894.937    -3112237.05749  -2404421.11448  21242894.490    21242902.256
       246.000         217.000
  21402984.719    -2033138.59349  -1567997.35247  21402985.372    21402991.874
       242.000         207.000
  22198963.571   -16972077.52949 -12926334.54746  22198962.348    22198972.303
       227.000         181.000
  21870479.836     5072187.43849   3959263.74947  21870479.962    21870488.875
       232.000         190.000
  21686094.281   -17391610.59149 -13523732.04547  21686093.330    21686102.226
       238.000         201.000
 00  1  4 21 15  0.0000000  0  9G26G15G27G11G 2G13G 8G19G 7
  23319203.896   -12568588.91749  -9115255.58146  23319204.201    23319212.839
       218.000         166.000
  24249171.370    -9971581.66649  -7748402.69645  24249169.849    24249183.686
       208.000         144.000
  20338269.803    -7048473.27949  -5465678.82648  20338269.549    20338276.626
       243.000         215.000
  23964187.335    -9907040.50949  -7693219.64145  23964186.989    23964198.460
       219.000         159.000
  21240545.387    -3124584.10949  -2414042.18148  21240544.717    21240552.455
       246.000         217.000
  21414575.075    -1972231.04449  -1520536.95947  21414575.558    21414582.394
       242.000         206.000
  22182775.270   -17057147.06049 -12992622.40046  22182774.545    22182783.819
       227.000         182.000
  21882982.776     5137890.62749   4010460.97847  21882982.686    21882991.536
       233.000         190.000
  21671752.885   -17466974.76449 -13582457.31047  21671752.068    21671761.247
       238.000         202.000
 00  1  4 21 15 30.0000000  0  9G26G15G27G11G 2G13G 8G19G 7
  23306991.737   -12632763.95649  -9165262.00646  23306991.436    23307000.619
       220.000         167.000
  24246765.950    -9984222.55549  -7758252.75045  24246764.914    24246778.957
       211.000         144.000
  20340837.315    -7034980.95249  -5455165.33548  20340836.972    20340844.252
       243.000         215.000
  23958603.307    -9936384.51949  -7716085.04545  23958603.864    23958612.535
       220.000         158.000
  21238218.897    -3136809.93049  -2423568.77748  21238218.567    21238226.079
       246.000         217.000
  21426251.989    -1910868.57049  -1472722.07847  21426252.324    21426259.078
       242.000         206.000
  22166607.212   -17142110.62449 -13058827.67446  22166606.648    22166615.692
       227.000         182.000
  21895543.729     5203898.74949   4061895.82247  21895543.840    21895553.159
       232.000         189.000
  21657481.932   -17541968.88249 -13640894.21547  21657481.108    21657489.936
       239.000         202.000
 00  1  4 21 16  0.0000000  0  9G26G15G27G11G 2G13G 8G19G 7
  23294855.894   -12696537.88549  -9214955.87546  23294856.616    23294865.211
       221.000         167.000
  24244452.688    -9996378.50549  -7767724.88945  24244451.805    24244464.729
       210.000         146.000
  20343475.562    -7021116.76549  -5444362.08248  20343475.385    20343482.640
       243.000         215.000
  23953088.152    -9965366.26649  -7738668.17645  23953087.563    23953097.869
       219.000         159.000
  21235914.294    -3148920.87649  -2433005.86448  21235913.853    21235921.452
       246.000         217.000
  21438016.630    -1849045.20649  -1424548.06247  21438017.170    21438023.867
       242.000         206.000
  22150457.515   -17226977.40949 -13124957.52546  22150456.948    22150465.898
       227.000         182.000
  21908160.920     5270202.13149   4113560.73547  21908161.146    21908169.814
       232.000         189.000
  21643276.791   -17616617.09249 -13699061.58247  21643275.862    21643284.791
       238.000         202.000
 00  1  4 21 16 30.0000000  0  9G26G15G27G11G 2G13G 8G19G 7
  23282797.137   -12759906.76949  -9264334.12646  23282797.435    23282806.737
       220.000         167.000
  24242231.481   -10008050.89349  -7776820.18445  24242230.253    24242244.710
       210.000         146.000
  20346186.450    -7006871.09949  -5433261.57748  20346186.318    20346193.399
       243.000         215.000
  23947641.777    -9993986.82149  -7760969.89145  23947640.963    23947651.201
       218.000         159.000
  21233632.956    -3160909.17249  -2442347.37548  21233632.372    21233640.085
       245.000         217.000
  21449871.000    -1786750.33549  -1376006.63847  21449871.293    21449878.260
       242.000         206.000
  22134327.291   -17311741.85349 -13191007.63446  22134326.974    22134335.823
       228.000         182.000
  21920835.713     5336808.30349   4165461.58347  21920835.801    21920844.529
       232.000         189.000
  21629135.008   -17690932.42449 -13756969.56147  21629134.592    21629143.342
       239.000         203.000
 00  1  4 21 17  0.0000000  0  9G26G15G27G11G 2G13G 8G19G 7
  23270814.200   -12822876.89749  -9313401.65346  23270813.951    23270823.723
       221.000         166.000
  24240103.432   -10019234.02349  -7785534.25145  24240102.476    24240114.764
       213.000         145.000
  20348973.689    -6992224.15049  -5421848.38848  20348973.219    20348980.750
       243.000         215.000
  23942265.163   -10022240.69849  -7782985.88445  23942264.995    23942274.979
       218.000         159.000
  21231376.819    -3172765.28349  -2451585.88448  21231376.434    21231383.955
       246.000         217.000
  21461817.528    -1723971.03849  -1327087.74047  21461818.023    21461824.788
       242.000         206.000
  22118219.040   -17396391.02949 -13256967.92146  22118218.106    22118227.778
       228.000         183.000
  21933569.432     5403724.41649   4217603.94747  21933569.546    21933578.805
       232.000         189.000
  21615056.403   -17764915.68749 -13814618.77747  21615055.768    21615064.820
       239.000         203.000
 00  1  4 21 17 30.0000000  0  9G26G15G27G11G 2G13G 8G19G 7
  23258911.109   -12885427.86749  -9362142.57246  23258911.021    23258920.596
       220.000         167.000
  24238071.905   -10029909.67549  -7793852.87845  24238071.622    24238082.801
       210.000         145.000
  20351844.745    -6977136.47849  -5410091.78048  20351844.571    20351851.865
       243.000         215.000
  23936962.910   -10050103.69949  -7804697.29045  23936962.386    23936973.247
       218.000         159.000
  21229148.728    -3184473.87049  -2460709.44348  21229148.137    21229155.880
       246.000         217.000
  21473855.052    -1660713.59849  -1277796.26647  21473855.529    21473862.327
       242.000         205.000
  22102133.093   -17480922.69649 -13322836.64646  22102132.442    22102141.725
       227.000         183.000
  21946364.571     5470962.98849   4269997.57647  21946364.628    21946373.829
       232.000         188.000
  21601043.132   -17838555.72949 -13872000.55247  21601042.330    21601051.314
       239.000         204.000
 00  1  4 21 18  0.0000000  0  9G26G15G27G11G 2G13G 8G19G 7
  23247094.004   -12947526.57049  -9410531.07446  23247093.832    23247103.621
       220.000         167.000
  24236140.830   -10040057.61949  -7801760.28245  24236140.599    24236152.279
       209.000         145.000
  20354802.697    -6961592.53749  -5397979.63048  20354802.473    20354809.802
       243.000         215.000
  23931741.747   -10077540.92549  -7826076.93645  23931741.050    23931751.816
       220.000         159.000
  21226957.062    -3195991.14449  -2469683.92748  21226956.564    21226964.382
       246.000         217.000
  21485981.588    -1596988.19249  -1228140.13847  21485981.894    21485988.708
       242.000         205.000
  22086069.570   -17565336.67849 -13388613.67346  22086068.753    22086077.761
       228.000         183.000
  21959223.837     5538538.45749   4322653.71847  21959224.016    21959232.909
       232.000         188.000
  21587098.716   -17911833.83049 -13929100.28647  21587098.083    21587106.974
       239.000         204.000
 00  1  4 21 18 30.0000000  0  9G26G15G27G11G 2G13G 8G19G 7
  23235365.494   -13009159.95849  -9458556.97946  23235364.782    23235374.610
       221.000         167.000
  24234313.369   -10049660.63749  -7809243.07645  24234312.734    24234325.253
       211.000         144.000
  20357848.710    -6945585.68249  -5385506.76848  20357848.515    20357855.682
       243.000         215.000
  23926606.441   -10104526.69049  -7847104.78945  23926606.355    23926616.622
       218.000         159.000
  21224804.358    -3207303.62349  -2478498.82648  21224803.724    21224811.460
       246.000         217.000
  21498195.315    -1532804.72149  -1178127.08047  21498195.499    21498202.452
       242.000         205.000
  22070031.468   -17649617.25449 -13454286.73746  22070030.306    22070040.008
       228.000         183.000
  21972148.749     5606459.19549   4375578.91847  21972148.908    21972157.953
       231.000         188.000
  21573227.008   -17984729.88249 -13985902.32347  21573226.536    21573235.146
       240.000         204.000
 00  1  4 21 19  0.0000000  0  9G26G15G27G11G 2G13G 8G19G 7
  23223727.977   -13070315.90049  -9506210.87146  23223727.948    23223737.180
       222.000         168.000
  24232590.884   -10058711.94949  -7816295.95645  24232590.337    24232602.573
       211.000         144.000
  20360980.788    -6929126.63349  -5372681.55348  20360980.536    20360988.009
       243.000         215.000
  23921557.544   -10131058.70449  -7867779.06845  23921557.101    23921567.744
       218.000         159.000
  21222691.038    -3218409.06449  -2487152.39748  21222690.487    21222698.313
       246.000         217.000
  21510494.683    -1468171.21149  -1127763.33847  21510495.054    21510502.078
       242.000         204.000
  22054019.910   -17733758.14749 -13519850.97546  22054019.320    22054027.705
       228.000         183.000
  21985138.732     5674721.85349   4428770.53147  21985138.585    21985147.797
       231.000         188.000
  21559430.915   -18057228.80249 -14042394.90547  21559430.147    21559439.042
       239.000         204.000
 00  1  4 21 19 30.0000000  0  9G26G15G27G11G 2G13G 8G19G 7
  23212181.496   -13130992.57949  -9553491.29946  23212181.081    23212189.958
       220.000         167.000
  24230973.215   -10067212.55849  -7822919.72945  24230972.807    24230985.477
       211.000         145.000
  20364194.763    -6912237.24649  -5359521.00748  20364194.611    20364201.627
       244.000         215.000
  23916593.616   -10157144.44449  -7888105.57845  23916593.107    23916603.810
       219.000         159.000
  21220615.734    -3229314.76449  -2495650.32648  21220615.234    21220622.683
       246.000         217.000
  21522876.938    -1403102.26149  -1077060.29547  21522877.262    21522884.051
       242.000         204.000
  22038033.647   -17817766.01449 -13585311.54346  22038033.367    22038041.318
       227.000         183.000
  21998192.583     5743319.93249   4482223.51347  21998192.808    21998202.225
       231.000         188.000
  21545711.653   -18129323.55149 -14098572.54747  21545710.925    21545719.577
       239.000         205.000
 00  1  4 21 20  0.0000000  0  9G26G15G27G11G 2G13G 8G19G 7
  23200722.121   -13191210.82949  -9600414.51246  23200722.504    23200731.583
       221.000         168.000
  24229458.357   -10075173.09349  -7829122.66945  24229458.855    24229470.539
       210.000         146.000
  20367487.723    -6894932.61349  -5346036.89648  20367487.682    20367494.769
       243.000         215.000
  23911711.871   -10182797.60949  -7908095.01545  23911711.167    23911722.664
       218.000         159.000
  21218573.978    -3240044.20849  -2504010.91548  21218573.377    21218581.278
       246.000         217.000
  21535343.192    -1337591.77249  -1026013.19747  21535343.832    21535350.429
       242.000         204.000
  22022074.173   -17901633.33949 -13650662.62346  22022073.915    22022082.150
       228.000         183.000
  22011306.615     5812234.15449   4535922.83846  22011307.109    22011315.732
       231.000         187.000
  21532069.319   -18201014.24049 -14154435.34347  21532068.689    21532077.379
       239.000         205.000
 00  1  4 21 20 30.0000000  0  9G26G15G27G11G 2G13G 8G19G 7
  23189346.357   -13250990.47349  -9646995.96646  23189346.280    23189355.770
       222.000         168.000
  24228044.078   -10082605.26449  -7834913.94245  24228044.014    24228056.017
       212.000         146.000
  20370859.349    -6877214.64449  -5332230.69948  20370859.238    20370866.506
       243.000         215.000
  23906908.575   -10208039.18949  -7927763.72245  23906908.432    23906918.835
       219.000         160.000
  21216559.247    -3250631.70449  -2512260.89048  21216558.562    21216566.298
       246.000         217.000
  21547893.423    -1271640.15749   -974622.36347  21547893.893    21547900.771
       242.000         204.000
  22006143.155   -17985351.19349 -13715897.21846  22006142.704    22006151.105
       229.000         184.000
  22024479.316     5881457.01449   4589862.66746  22024479.210    22024488.194
       231.000         187.000
  21518501.221   -18272314.74949 -14209994.10447  21518500.652    21518509.202
       239.000         205.000
 00  1  4 21 21  0.0000000  0  9G26G15G27G11G 2G13G 8G19G 7
  23178052.824   -13310338.34749  -9693240.98246  23178052.738    23178061.690
       220.000         168.000
  24226728.950   -10089516.36249  -7840299.20345  24226728.585    24226740.536
       211.000         146.000
  20374310.004    -6859081.45449  -5318100.95248  20374309.849    20374317.081
       243.000         215.000
  23902181.502   -10232880.29549  -7947120.35745  23902180.944    23902191.384
       220.000         160.000
  21214568.999    -3261090.47249  -2520410.55948  21214568.420    21214576.128
       245.000         217.000
  21560526.057    -1205255.52549   -922894.11447  21560526.428    21560533.176
       241.000         204.000
  21990239.619   -18068924.75849 -13781019.40346  21990239.074    21990247.506
       229.000         185.000
  22037711.377     5950991.63549   4644045.40746  22037711.540    22037720.515
       231.000         187.000
  21505005.988   -18343232.36249 -14265254.50247  21505005.225    21505013.904
       239.000         205.000
 00  1  4 21 21 30.0000000  0  9G26G15G27G11G 2G13G 8G19G 7
  23166839.946   -13369261.62449  -9739155.14546  23166840.050    23166849.138
       220.000         168.000
  24225512.870   -10095906.57149  -7845278.57345  24225513.136    24225525.232
       212.000         146.000
  20377842.807    -6840516.63549  -5303634.86948  20377842.873    20377850.093
       243.000         215.000
  23897531.961   -10257313.69149  -7966159.26745  23897531.193    23897541.832
       219.000         160.000
  21212600.153    -3271436.72849  -2528472.55848  21212599.533    21212607.308
       246.000         217.000
  21573240.465    -1138440.92349   -870830.82447  21573240.986    21573247.751
       242.000         204.000
  21974363.106   -18152356.07049 -13846030.74446  21974362.306    21974370.783
       230.000         185.000
  22051003.686     6020842.59049   4698474.66046  22051004.068    22051013.044
       232.000         187.000
  21491582.361   -18413773.67449 -14320221.68247  21491581.598    21491590.365
       240.000         205.000
 00  1  4 21 22  0.0000000  0  9G26G15G27G11G 2G13G 8G19G 7
  23155710.457   -13427747.32549  -9784728.32346  23155710.765    23155719.678
       220.000         168.000
  24224395.948   -10101776.05649  -7849852.19645  24224395.900    24224407.724
       212.000         146.000
  20381458.853    -6821514.23249  -5288827.80948  20381458.790    20381465.964
       244.000         215.000
  23892960.775   -10281335.18649  -7984877.21245  23892960.138    23892970.144
       219.000         160.000
  21210652.800    -3281670.10049  -2536446.59348  21210652.351    21210660.037
       246.000         217.000
  21586037.277    -1071193.43149   -818430.21647  21586037.777    21586044.715
       242.000         204.000
  21958513.290   -18235646.94049 -13910932.65946  21958512.248    21958521.081
       229.000         185.000
  22064357.030     6091014.50649   4753154.01446  22064356.824    22064366.310
       231.000         186.000
  21478228.724   -18483947.27849 -14374902.34547  21478228.212    21478236.563
       240.000         206.000
 00  1  4 21 22 30.0000000  0  9G26G15G27G11G 2G13G 8G19G 7
  23144666.878   -13485781.54749  -9829949.71346  23144667.190    23144675.090
       221.000         168.000
  24223378.842   -10107120.69149  -7854016.86245  24223379.034    24223390.434
       212.000         146.000
  20385156.391    -6802083.63749  -5273687.09448  20385156.250    20385163.562
       243.000         215.000
  23888468.517   -10304941.99849  -8003272.01545  23888467.508    23888478.566
       219.000         160.000
  21208728.713    -3291781.27749  -2544325.41448  21208728.223    21208735.865
       246.000         217.000
  21598914.846    -1003521.58849   -765698.94747  21598915.092    21598922.333
       241.000         203.000
  21942689.014   -18318803.83649 -13975730.17046  21942688.903    21942696.700
       230.000         185.000
  22077772.944     6161515.42349   4808089.72146  22077772.956    22077782.105
       231.000         186.000
  21464943.468   -18553761.47449 -14429302.94847  21464942.699    21464951.421
       240.000         206.000
 00  1  4 21 23  0.0000000  0  9G26G15G27G11G 2G13G 8G19G 7
  23133709.962   -13543359.88349  -9874815.87546  23133710.256    23133719.453
       221.000         168.000
  24222461.814   -10111939.64849  -7857771.91545  24222461.399    24222473.420
       211.000         146.000
  20388931.684    -6782244.36149  -5258227.92948  20388931.566    20388938.695
       243.000         214.000
  23884056.925   -10328124.66149  -8021336.30445  23884056.332    23884067.119
       218.000         160.000
  21206829.218    -3301763.11049  -2552103.44948  21206828.528    21206836.232
       246.000         217.000
  21611873.047     -935425.93949   -712637.44447  21611873.381    21611880.471
       241.000         203.000
  21926887.729   -18401840.25249 -14040433.80046  21926886.782    21926895.184
       230.000         186.000
  22091249.860     6232336.69949   4863275.05946  22091249.946    22091258.912
       230.000         186.000
  21451726.781   -18623215.39649 -14483422.82547  21451726.199    21451734.599
       240.000         206.000
 00  1  4 21 23 30.0000000  0  9G26G15G27G11G 2G13G 8G19G 7
  23122837.198   -13600496.62149  -9919337.92946  23122836.933    23122845.990
       220.000         168.000
  24221643.841   -10116238.47749  -7861121.68745  24221643.565    24221656.043
       212.000         145.000
  20392780.538    -6762018.48149  -5242467.51848  20392780.542    20392787.747
       243.000         214.000
  23879724.548   -10350891.17249  -8039076.32245  23879723.821    23879734.290
       216.000         160.000
  21204955.269    -3311610.71549  -2559776.89048  21204954.675    21204962.329
       246.000         217.000
  21624912.993     -866900.68049   -659241.17947  21624913.454    21624920.107
       241.000         203.000
  21911107.996   -18484762.89049 -14105048.77746  21911107.056    21911115.628
       230.000         186.000
  22104784.585     6303461.84949   4918697.18346  22104784.346    22104793.488
       231.000         185.000
  21438578.657   -18692308.86149 -14537261.82747  21438578.111    21438586.526
       241.000         206.000
 00  1  4 21 24  0.0000000  0  9G26G15G27G11G 2G13G 8G19G 7
  23112048.357   -13657191.29349  -9963515.51246  23112048.392    23112057.174
       220.000         169.000
  24220924.217   -10120020.40249  -7864068.69545  24220924.453    24220936.047
       210.000         145.000
  20396700.293    -6741420.26449  -5226416.97348  20396700.208    20396707.378
       243.000         214.000
  23875469.319   -10373252.13949  -8056500.33145  23875468.657    23875478.653
       217.000         160.000
  21203109.412    -3321310.59749  -2567335.22548  21203108.793    21203116.347
       246.000         217.000
  21638035.594     -797941.29449   -605506.63547  21638035.939    21638042.990
       241.000         202.000
  21895349.047   -18567576.30349 -14169578.64446  21895348.166    21895357.197
       230.000         187.000
  22118375.519     6374882.50749   4974349.58246  22118375.707    22118384.633
       230.000         185.000
  21425499.731   -18761039.11149 -14590817.80747  21425499.066    21425507.682
       241.000         207.000
 00  1  4 21 24 30.0000000  0  9G26G15G27G11G 2G13G 8G19G 7
  23101342.458   -13713451.00249 -10007354.15146  23101342.234    23101351.634
       221.000         169.000
  24220302.879   -10123285.22649  -7866612.74345  24220303.313    24220314.063
       210.000         145.000
  20400692.394    -6720441.75249  -5210070.09748  20400692.155    20400699.521
       243.000         214.000
  23871290.610   -10395210.85449  -8073610.92045  23871290.899    23871300.057
       218.000         160.000
  21201290.398    -3330869.43049  -2574783.65248  21201289.773    21201297.545
       246.000         217.000
  21651241.149     -728545.81049   -551432.27347  21651241.617    21651248.695
       241.000         202.000
  21879610.794   -18650281.19349 -14234023.95346  21879609.931    21879618.745
       230.000         187.000
  22132021.779     6446593.82949   5030228.46846  22132021.420    22132031.076
       230.000         185.000
  21412491.675   -18829396.57349 -14644083.30447  21412491.041    21412499.442
       241.000         207.000
 00  1  4 21 25  0.0000000  0  9G26G15G27G11G 2G13G 8G19G 7
  23090718.084   -13769282.18349 -10050858.89146  23090717.859    23090727.483
       220.000         170.000
  24219779.842   -10126033.89449  -7868754.60645  24219779.156    24219790.611
       211.000         144.000
  20404762.017    -6699055.65449  -5193405.62648  20404761.837    20404769.129
       243.000         214.000
  23867189.265   -10416763.24849  -8090404.89945  23867188.779    23867198.999
       217.000         160.000
  21199497.084    -3340293.26849  -2582126.89448  21199496.654    21199504.328
       246.000         217.000
  21664530.483     -658709.91849   -497014.73547  21664530.907    21664538.001
       241.000         202.000
  21863893.726   -18732874.63449 -14298382.41946  21863893.012    21863901.764
       231.000         187.000
  22145720.721     6518582.05349   5086323.12346  22145720.377    22145730.148
       230.000         185.000
  21399559.656   -18897354.48549 -14697037.46647  21399559.074    21399567.653
       241.000         207.000
 00  1  4 21 25 30.0000000  0  9G26G15G27G11G 2G13G 8G19G 7
  23080177.838   -13824671.23349 -10094019.10446  23080177.755    23080187.253
       221.000         170.000
  24219356.900   -10128256.51949  -7870486.56745  24219356.388    24219368.858
       211.000         144.000
  20408916.951    -6677221.60349  -5176392.10148  20408916.781    20408924.026
       244.000         214.000
  23863164.882   -10437910.78549  -8106883.41345  23863164.755    23863174.552
       217.000         160.000
  21197729.548    -3349581.62049  -2589364.56548  21197729.048    21197736.649
       246.000         217.000
  21677903.569     -588433.96149   -442254.29447  21677903.899    21677910.859
       240.000         202.000
  21848202.067   -18815334.67849 -14362636.94347  21848201.275    21848209.294
       231.000         188.000
  22159474.132     6590856.55349   5142640.85446  22159474.105    22159483.070
       231.000         185.000
  21386707.527   -18964892.72149 -14749664.60647  21386706.761    21386715.485
       240.000         207.000
 00  1  4 21 26  0.0000000  0  9G26G15G27G11G 2G13G 8G19G 7
  23069727.208   -13879589.41849 -10136812.42046  23069726.421    23069736.447
       220.000         171.000
  24219036.147   -10129942.54449  -7871800.36045  24219035.401    24219048.165
       210.000         144.000
  20413161.210    -6654917.92549  -5159012.62848  20413161.033    20413168.275
       243.000         214.000
  23859221.803   -10458631.35749  -8123029.23045  23859221.315    23859232.267
       218.000         160.000
  21195988.649    -3358730.20249  -2596493.32948  21195988.183    21195995.693
       246.000         217.000
  21691359.147     -517724.70449   -387156.21447  21691359.514    21691366.499
       241.000         201.000
  21832537.929   -18897649.98349 -14426778.68047  21832537.239    21832546.120
       230.000         188.000
  22173283.889     6663426.98649   5199189.17746  22173283.745    22173293.128
       230.000         185.000
  21373937.906   -19031997.10349 -14801953.67447  21373937.221    21373945.893
       241.000         207.000
 00  1  4 21 26 30.0000000  0  9G26G15G27G11G 2G13G 8G19G 7
  23059366.150   -13934036.10749 -10179238.33246  23059367.152    23059375.294
       222.000         171.000
  24218819.401   -10131081.48149  -7872687.85545  24218819.070    24218831.800
       210.000         145.000
  20417497.834    -6632128.87949  -5141254.94848  20417497.680    20417504.782
       243.000         214.000
  23855363.187   -10478908.41849  -8138829.47845  23855362.536    23855373.373
       218.000         161.000
  21194275.005    -3367735.44349  -2603510.40148  21194274.539    21194282.152
       246.000         217.000
  21704895.025     -446593.31349   -331729.20047  21704895.504    21704902.266
       240.000         201.000
  21816904.724   -18979802.84249 -14490793.83347  21816904.202    21816911.934
       231.000         188.000
  22187150.603     6736296.59649   5255970.61646  22187151.245    22187159.648
       230.000         185.000
  21361253.855   -19098651.91349 -14853892.43147  21361253.002    21361261.447
       240.000         208.000
 00  1  4 21 27  0.0000000  0  9G26G15G27G11G 2G13G 8G19G 7
  23049096.879   -13988001.69049 -10221289.35746  23049097.042    23049105.480
       221.000         172.000
  24218709.460   -10131659.56549  -7873138.32145  24218709.796    24218721.610
       210.000         144.000
  20421926.496    -6608856.09449  -5123120.32848  20421926.395    20421933.431
       243.000         214.000
  23851592.673   -10498722.33849  -8154268.83345  23851592.826    23851602.225
       217.000         161.000
  21192593.661    -3376571.27349  -2610395.46548  21192593.303    21192600.879
       246.000         217.000
  21718507.840     -375057.65849   -275987.17247  21718508.449    21718515.333
       240.000         201.000
  21801306.327   -19061772.93949 -14554666.57947  21801305.670    21801314.030
       232.000         189.000
  22201076.098     6809475.20349   5312992.83746  22201076.305    22201084.982
       229.000         184.000
  21348655.846   -19164854.66749 -14905478.93647  21348655.333    21348663.755
       241.000         208.000
 00  1  4 21 27 30.0000000  0  9G26G15G27G11G 2G13G 8G19G 7
  23038921.710   -14041472.68549 -10262954.99246  23038921.816    23038930.322
       221.000         172.000
  24218708.897   -10131662.87949  -7873140.90845  24218708.567    24218721.010
       209.000         144.000
  20426443.870    -6585117.34049  -5104622.61948  20426443.817    20426450.812
       244.000         214.000
  23847912.713   -10518060.13449  -8169337.19945  23847912.454    23847921.850
       217.000         161.000
  21190949.051    -3385213.72349  -2617129.85048  21190948.552    21190956.226
       246.000         217.000
  21732195.889     -303126.64249   -219937.07047  21732196.673    21732203.147
       241.000         201.000
  21785744.373   -19143551.45949 -14618390.04547  21785743.803    21785751.785
       232.000         189.000
  22215065.437     6882989.24149   5370276.43546  22215065.280    22215074.693
       230.000         184.000
  21336140.569   -19230622.74949 -14956726.73247  21336140.168    21336148.587
       242.000         208.000
 00  1  4 21 28  0.0000000  0  9G26G15G27G11G 2G13G 8G19G 7
  23028838.852   -14094457.94049 -10304242.13046  23028838.837    23028848.219
       222.000         172.000
  24218817.985   -10131089.89449  -7872694.41945  24218817.871    24218829.763
       210.000         144.000
  20431046.386    -6560931.02249  -5085776.16248  20431046.351    20431053.460
       243.000         214.000
  23844324.487   -10536916.27049  -8184030.23945  23844324.058    23844334.190
       218.000         161.000
  21189341.820    -3393659.73349  -2623711.16348  21189341.214    21189348.891
       246.000         217.000
  21745959.213     -230800.25849   -163578.89547  21745959.605    21745966.387
       241.000         200.000
  21770218.973   -19225137.62949 -14681963.62647  21770218.242    21770226.524
       232.000         189.000
  22229120.152     6956847.03749   5427827.88846  22229120.180    22229129.527
       229.000         183.000
  21323705.568   -19295969.00149 -15007645.82747  21323704.926    21323713.236
       241.000         208.000
 00  1  4 21 28 30.0000000  0  9G26G15G27G11G 2G13G 8G19G 7
  23018847.440   -14146962.90249 -10345155.01846  23018847.863    23018856.239
       222.000         172.000
  24219035.977   -10129944.02749  -7871801.52745  24219035.850    24219047.778
       210.000         144.000
  20435733.517    -6536299.94849  -5066583.13648  20435733.546    20435740.627
       243.000         214.000
  23840826.678   -10555296.97249  -8198352.80745  23840826.529    23840836.526
       217.000         161.000
  21187769.107    -3401924.25649  -2630151.06148  21187768.533    21187776.282
       246.000         217.000
  21759797.025     -158082.42849   -106915.69547  21759797.546    21759804.194
       241.000         200.000
  21754731.542   -19306524.65149 -14745382.02747  21754731.053    21754739.258
       232.000         189.000
  22243240.432     7031049.48749   5485647.90646  22243240.765    22243249.596
       229.000         183.000
  21311347.362   -19360911.44549 -15058250.26747  21311346.822    21311355.412
       241.000         208.000
 00  1  4 21 29  0.0000000  0  9G26G15G27G11G 2G13G 8G19G 7
  23008948.480   -14198981.92349 -10385689.24646  23008948.446    23008957.422
       223.000         172.000
  24219360.939   -10128236.16449  -7870470.70445  24219360.915    24219373.025
       209.000         143.000
  20440503.716    -6511232.56549  -5047050.12848  20440503.694    20440510.723
       244.000         214.000
  23837417.321   -10573212.85249  -8212313.18745  23837416.600    23837427.558
       218.000         161.000
  21186227.550    -3410025.10749  -2636463.42848  21186227.180    21186234.828
       246.000         217.000
  21773710.723      -84965.65949    -49941.63647  21773711.183    21773718.048
       240.000         200.000
  21739280.201   -19387721.94049 -14808652.58547  21739279.630    21739287.837
       233.000         190.000
  22257427.074     7105600.51449   5543739.53446  22257427.034    22257436.464
       229.000         183.000
  21299060.722   -19425477.98849 -15108561.79847  21299060.187    21299068.435
       241.000         209.000
 00  1  4 21 29 30.0000000  0  9G26G15G27G11G 2G13G 8G19G 7
  22999141.187   -14250519.72049 -10425848.50146  22999141.396    22999149.926
       223.000         173.000
  24219788.534   -10125988.70849  -7868719.42545  24219788.749    24219799.730
       210.000         143.000
  20445355.145    -6485738.39749  -5027184.56448  20445355.025    20445362.089
       243.000         214.000
  23834091.773   -10590688.89949  -8225930.84645  23834091.602    23834101.454
       217.000         161.000
  21184710.784    -3417996.02449  -2642674.54648  21184710.350    21184717.916
       246.000         217.000
  21787701.868      -11441.74749      7349.67847  21787702.318    21787709.215
       240.000         199.000
  21723861.108   -19468749.80849 -14871791.11547  21723860.344    21723868.304
       232.000         190.000
  22271677.219     7180485.12749   5602091.11546  22271677.159    22271686.472
       229.000         182.000
  21286844.086   -19489676.58749 -15158586.62047  21286843.225    21286851.607
       241.000         209.000
 00  1  4 21 30  0.0000000  0  9G26G15G27G11G 2G13G 8G19G 7
  22989424.949   -14301578.60049 -10465634.56946  22989424.792    22989433.933
       225.000         174.000
  24220315.361   -10123220.52949  -7866562.38145  24220314.675    24220327.115
       210.000         142.000
  20450288.178    -6459815.20549  -5006984.69848  20450288.170    20450295.180
       243.000         214.000
  23830847.289   -10607738.51649  -8239216.22045  23830846.768    23830856.728
       216.000         161.000
  21183212.682    -3425868.69849  -2648809.10948  21183212.287    21183219.732
       246.000         217.000
  21801769.120       62481.94049     64952.50847  21801769.509    21801776.439
       239.000         199.000
  21708473.576   -19549611.55449 -14934800.19947  21708472.897    21708481.207
       233.000         190.000
  22285984.584     7255670.50049   5660677.03946  22285984.574    22285993.872
       229.000         182.000
  21274697.690   -19553506.10249 -15208323.84147  21274697.044    21274705.391
       241.000         209.000
 00  1  4 21 30 30.0000000  0  9G26G15G27G11G 2G13G 8G19G 7
  22979800.060   -14352157.65249 -10505046.74646  22979799.266    22979808.618
       223.000         174.000
  24220939.452   -10119940.95349  -7864006.86845  24220938.303    24220951.758
       209.000         143.000
  20455302.980    -6433462.42049  -4986450.07848  20455302.978    20455310.014
       243.000         214.000
  23827683.505   -10624364.07149  -8252171.15045  23827683.178    23827693.123
       217.000         161.000
  21181732.749    -3433646.04849  -2654869.39148  21181732.242    21181739.910
       246.000         217.000
  21815910.105      136793.28349    122857.40547  21815910.599    21815917.640
       239.000         199.000
  21693114.888   -19630321.50749 -14997691.00047  21693114.319    21693122.270
       232.000         190.000
  22300345.342     7331136.45449   5719481.60846  22300345.532    22300355.195
       228.000         182.000
  21262621.768   -19616965.43749 -15257772.61347  21262621.074    21262629.441
       242.000         209.000
 00  1  4 21 31  0.0000000  0  9G26G15G27G11G 2G13G 8G19G 7
  22970265.762   -14402260.47049 -10544087.84246  22970266.286    22970274.896
       224.000         174.000
  24221662.008   -10116144.49649  -7861048.58845  24221661.523    24221673.467
       210.000         143.000
  20460400.136    -6406676.69849  -4965578.10448  20460399.870    20460407.126
       243.000         214.000
  23824600.168   -10640567.15949  -8264796.87845  23824600.053    23824610.375
       216.000         161.000
  21180274.041    -3441311.76149  -2660842.68448  21180273.512    21180281.140
       246.000         217.000
  21830125.098      211493.47249    181065.29247  21830125.798    21830132.350
       239.000         198.000
  21677784.673   -19710881.98049 -15060465.32047  21677783.922    21677791.907
       233.000         191.000
  22314758.856     7406879.70149   5778502.24446  22314759.284    22314768.194
       228.000         181.000
  21250619.953   -19680035.00049 -15306917.67447  21250619.362    21250627.470
       242.000         210.000
 00  1  4 21 31 30.0000000  0  9G26G15G27G11G 2G13G 8G19G 7
  22960822.587   -14451884.41349 -10582755.77746  22960822.673    22960831.595
       224.000         174.000
  24222485.513   -10111816.64049  -7857676.24445  24222484.753    24222497.611
       210.000         142.000
  20465580.432    -6379454.21149  -4944365.79448  20465580.404    20465587.745
       243.000         214.000
  23821599.377   -10656335.75949  -8277084.05345  23821599.340    23821608.760
       216.000         160.000
  21178839.726    -3448849.15449  -2666715.98248  21178839.305    21178847.033
       246.000         217.000
  21844412.770      286575.61049    239570.80247  21844412.948    21844420.103
       239.000         198.000
  21662485.626   -19791278.74549 -15123112.07247  21662485.453    21662493.184
       233.000         191.000
  22329222.932     7482888.77349   5837730.01246  22329223.071    22329231.738
       228.000         180.000
  21238698.593   -19742682.01549 -15355733.47447  21238697.965    21238706.396
       242.000         210.000
 00  1  4 21 32  0.0000000  0  9G26G15G27G11G 2G13G 8G19G 7
  22951469.486   -14501035.15449 -10621054.98846  22951469.868    22951477.983
       224.000         175.000
  24223414.120   -10106936.65149  -7853873.70545  24223413.690    24223425.476
       210.000         142.000
  20470846.465    -6351781.22349  -4922802.44348  20470846.348    20470853.512
       243.000         214.000
  23818686.211   -10671644.37149  -8289012.78345  23818686.347    23818695.019
       217.000         160.000
  21177433.192    -3456240.49949  -2672475.47848  21177432.618    21177440.201
       246.000         217.000
  21858774.397      362046.20749    298379.00947  21858774.895    21858782.100
       239.000         197.000
  21647219.631   -19871501.62549 -15185623.32747  21647218.702    21647226.797
       233.000         192.000
  22343738.460     7559168.20749   5897168.44946  22343737.732    22343748.032
       228.000         180.000
  21226858.870   -19804900.03649 -15404214.99547  21226858.262    21226866.447
       242.000         210.000
 00  1  4 21 32 30.0000000  0  9G26G15G27G11G 2G13G 8G19G 7
  22942205.835   -14549715.93249 -10658987.99546  22942205.442    22942213.802
       225.000         175.000
  24224450.954   -10101487.68849  -7849627.80245  24224450.222    24224462.681
       209.000         143.000
  20476198.580    -6323655.57149  -4900886.37348  20476198.243    20476205.612
       243.000         213.000
  23815861.500   -10686487.93249  -8300579.15545  23815861.762    23815871.310
       217.000         160.000
  21176058.194    -3463466.22149  -2678105.91648  21176057.620    21176065.467
       246.000         217.000
  21873212.378      437918.19249    357499.98347  21873212.600    21873220.039
       238.000         197.000
  21631987.773   -19951545.29749 -15247994.94447  21631987.417    21631995.403
       234.000         192.000
  22358310.574     7635744.87249   5956838.48746  22358310.883    22358320.230
       227.000         179.000
  21215102.120   -19866681.97649 -15452356.71547  21215101.601    21215109.914
       242.000         210.000
 00  1  4 21 33  0.0000000  0  9G26G15G27G11G 2G13G 8G19G 7
  22933032.533   -14597921.78949 -10696550.94946  22933032.302    22933040.665
       225.000         175.000
  24225597.373   -10095463.40449  -7844933.59445  24225596.029    24225608.470
       210.000         143.000
  20481635.455    -6295084.80749  -4878623.45948  20481635.219    20481642.465
       243.000         213.000
  23813126.164   -10700862.29749  -8311779.91245  23813125.886    23813135.975
       217.000         160.000
  21174714.959    -3470524.88449  -2683606.17048  21174714.490    21174722.106
       246.000         217.000
  21887728.493      514200.74849    416940.88247  21887729.150    21887736.232
       238.000         196.000
  21616791.727   -20031400.83649 -15310219.96247  21616791.117    21616799.243
       233.000         192.000
  22372939.193     7712618.46349   6016739.90346  22372939.286    22372948.708
       227.000         179.000
  21203429.583   -19928021.46649 -15500153.66947  21203428.942    21203437.080
       242.000         211.000
 00  1  4 21 33 30.0000000  0  9G26G15G27G11G 2G13G 8G19G 7
  22923950.671   -14645646.97749 -10733739.34946  22923950.749    22923959.288
       225.000         175.000
  24226852.141   -10088869.28649  -7839795.37145  24226850.960    24226865.076
       210.000         143.000
  20487156.548    -6266071.32949  -4856015.57348  20487156.407    20487163.657
       243.000         213.000
  23810480.356   -10714765.55949  -8322613.58045  23810480.008    23810489.746
       216.000         160.000
  21173401.990    -3477424.76349  -2688982.69048  21173401.519    21173409.100
       246.000         217.000
  21902322.832      590894.51049    476702.20047  21902323.317    21902330.422
       238.000         196.000
  21601628.458   -20111084.03649 -15372310.69147  21601627.704    21601635.970
       234.000         193.000
  22387625.006     7789792.60549   6076875.51646  22387625.160    22387634.490
       228.000         180.000
  21191840.011   -19988924.82249 -15547610.78047  21191839.355    21191847.687
       243.000         211.000
 00  1  4 21 34  0.0000000  0  9G26G15G27G11G 2G13G 8G19G 7
  22914961.662   -14692884.13049 -10770547.45746  22914961.502    22914970.486
       224.000         175.000
  24228213.374   -10081715.98349  -7834221.40145  24228212.977    24228225.463
       209.000         143.000
  20492763.504    -6236606.64249  -4833056.09648  20492763.095    20492770.518
       243.000         213.000
  23807922.249   -10728208.23049  -8333088.37145  23807921.819    23807931.883
       216.000         160.000
  21172118.848    -3484167.55749  -2694236.80348  21172118.317    21172126.203
       247.000         217.000
  21916992.659      667984.77149    536772.48347  21916993.061    21917000.299
       238.000         196.000
  21586496.151   -20190604.42249 -15434274.55047  21586495.170    21586503.286
       234.000         193.000
  22402370.591     7867281.06849   6137256.05446  22402370.781    22402380.397
       227.000         180.000
  21180331.765   -20049400.90849 -15594734.95747  21180330.862    21180339.220
       244.000         211.000
 00  1  4 21 34 30.0000000  0  9G26G15G27G11G 2G13G 8G19G 7
  22906069.776   -14739610.84649 -10806957.83346  22906069.478    22906078.235
       224.000         175.000
  24229679.445   -10074012.01549  -7828218.35445  24229678.513    24229691.908
       209.000         143.000
  20498455.288    -6206696.11449  -4809749.21548  20498455.165    20498462.411
       242.000         213.000
  23805449.916   -10741200.49149  -8343212.18645  23805448.951    23805459.255
       216.000         160.000
  21170866.027    -3490750.92749  -2699366.68748  21170865.485    21170873.241
       247.000         217.000
  21931735.024      745456.01949    597139.63447  21931735.386    21931742.303
       239.000         196.000
  21571396.498   -20269953.26149 -15496104.74647  21571395.823    21571403.986
       234.000         193.000
  22417177.594     7945092.17149   6197887.99846  22417177.561    22417187.489
       228.000         179.000
  21168906.825   -20109439.15049 -15641517.95647  21168906.041    21168914.182
       244.000         212.000
 00  1  4 21 35  0.0000000  0  9G26G15G27G11G 2G13G 8G19G 7
  22897276.616   -14785819.15649 -10842964.24846  22897276.655    22897285.004
       225.000         175.000
  24231249.467   -10065761.52749  -7821789.45545  24231249.395    24231261.569
       210.000         143.000
  20504233.774    -6176330.15349  -4786087.44548  20504233.544    20504240.953
       243.000         213.000
  23803064.565   -10753735.26049  -8352979.51845  23803064.701    23803074.416
       216.000         160.000
  21169642.125    -3497182.59649  -2704378.36048  21169641.642    21169649.463
       247.000         217.000
  21946546.182      823288.88849    657788.57447  21946546.512    21946553.908
       238.000         196.000
  21556331.229   -20349121.31349 -15557794.08547  21556330.833    21556338.766
       234.000         193.000
  22432044.088     8023215.90149   6258763.53646  22432044.779    22432053.941
       227.000         179.000
  21157566.131   -20169034.48249 -15687955.83447  21157565.672    21157573.742
       244.000         212.000
 00  1  4 21 35 30.0000000  0  9G26G15G27G11G 2G13G 8G19G 7
  22888581.552   -14831511.86849 -10878568.90746  22888581.745    22888589.708
       224.000         175.000
  24232924.020   -10056961.86949  -7814932.64445  24232923.376    24232935.883
       209.000         143.000
  20510101.349    -6145495.73549  -4762060.65248  20510101.142    20510108.261
       243.000         213.000
  23800766.514   -10765811.48149  -8362389.56645  23800766.342    23800776.751
       216.000         160.000
  21168445.690    -3503469.92449  -2709277.56248  21168445.110    21168452.685
       247.000         217.000
  21961423.605      901469.94949    718708.82547  21961424.162    21961431.353
       238.000         196.000
  21541303.999   -20428089.60749 -15619327.77547  21541303.316    21541311.301
       234.000         194.000
  22446973.000     8101667.34949   6319894.44746  22446972.434    22446981.726
       227.000         179.000
  21146310.281   -20228184.53049 -15734046.73347  21146309.724    21146317.892
       244.000         212.000
 00  1  4 21 36  0.0000000  0  9G26G15G27G11G 2G13G 8G19G 7
  22879983.018   -14876697.21649 -10913778.20646  22879983.457    22879992.501
       225.000         174.000
  24234703.751   -10047609.85349  -7807645.39845  24234703.214    24234716.099
       211.000         143.000
  20516055.853    -6114204.89449  -4737678.20148  20516055.740    20516062.878
       243.000         213.000
  23798556.683   -10777424.53049  -8371438.70545  23798555.703    23798566.651
       215.000         160.000
  21167275.176    -3509620.95349  -2714070.55348  21167274.481    21167282.117
       246.000         217.000
  21976365.939      979992.16749    779894.91947  21976366.508    21976373.404
       237.000         196.000
  21526320.420   -20506828.64249 -15680682.81347  21526319.929    21526327.884
       234.000         194.000
  22461962.982     8180439.84749   6381275.53946  22461962.237    22461972.801
       227.000         178.000
  21135138.411   -20286892.84449 -15779793.42147  21135137.749    21135146.115
       245.000         212.000
 00  1  4 21 36 30.0000000  0  9G26G15G27G11G 2G13G 8G19G 7
  22871477.908   -14921391.79549 -10948605.10046  22871478.915    22871486.905
       224.000         175.000
  24236588.710   -10037704.81949  -7799927.21345  24236588.549    24236600.608
       210.000         145.000
  20522093.969    -6082474.42849  -4712953.18447  20522093.860    20522101.089
       241.000         212.000
  23796436.303   -10788566.85749  -8380121.05545  23796436.020    23796446.015
       216.000         160.000
  21166127.258    -3515653.05849  -2718770.87848  21166126.815    21166134.361
       247.000         217.000
  21991375.261     1058866.52949    841355.40747  21991375.498    21991382.480
       238.000         195.000
  21511380.724   -20585337.28849 -15741858.33847  21511380.161    21511387.995
       235.000         194.000
  22477011.671     8259521.04149   6442897.16646  22477011.519    22477021.116
       227.000         178.000
  21124047.056   -20345178.16849 -15825210.51048  21124046.327    21124054.554
       243.000         213.000
 00  1  4 21 37  0.0000000  0  9G26G15G27G11G 2G13G 8G19G 7
  22863062.501   -14965614.39549 -10983064.21446  22863062.871    22863070.806
       225.000         175.000
  24238577.694   -10027252.37149  -7791782.45645  24238577.492    24238590.011
       212.000         145.000
  20528213.306    -6050317.23149  -4687895.65147  20528213.074    20528220.388
       242.000         212.000
  23794406.645   -10799232.73649  -8388432.14245  23794405.886    23794416.817
       215.000         160.000
  21164997.667    -3521589.19949  -2723396.42748  21164996.987    21165004.729
       247.000         217.000
  22006450.431     1138086.82349    903085.44647  22006450.891    22006458.262
       237.000         195.000
  21496481.606   -20663632.66049 -15802867.67147  21496480.956    21496489.239
       235.000         194.000
  22492114.869     8338888.60349   6504741.95146  22492114.643    22492124.324
       227.000         178.000
  21113033.131   -20403056.53649 -15870310.49048  21113032.552    21113040.589
       244.000         213.000
 00  1  4 21 37 30.0000000  0  9G26G15G27G11G 2G13G 8G19G 7
  22854737.570   -15009362.48049 -11017153.56646  22854737.395    22854746.345
       224.000         175.000
  24240668.561   -10016265.17649  -7783220.99645  24240667.435    24240680.639
       210.000         145.000
  20534410.927    -6017748.51249  -4662517.45347  20534410.803    20534418.098
       243.000         212.000
  23792465.563   -10809432.99349  -8396380.40445  23792466.498    23792475.156
       216.000         160.000
  21163885.391    -3527434.04549  -2727950.83548  21163884.787    21163892.587
       247.000         217.000
  22021591.841     1217655.12449    965086.66647  22021592.719    22021599.399
       237.000         195.000
  21481617.955   -20741741.47049 -15863731.63947  21481617.306    21481625.750
       235.000         195.000
  22507269.662     8418527.03849   6566797.78646  22507269.302    22507279.621
       227.000         177.000
  21102092.149   -20460551.73649 -15915111.89248  21102091.416    21102099.765
       245.000         213.000
 00  1  4 21 38  0.0000000  0  9G26G15G27G11G 2G13G 8G19G 7
  22846503.360   -15052632.92449 -11050870.73246  22846502.935    22846511.640
       225.000         175.000
  24242859.610   -10004751.02349  -7774248.94345  24242860.027    24242871.276
       212.000         145.000
  20540686.079    -5984772.50949  -4636821.88847  20540686.059    20540693.411
       242.000         212.000
  23790613.057   -10819168.42249  -8403966.47245  23790613.181    23790623.144
       216.000         160.000
  21162792.948    -3533174.86049  -2732424.17948  21162792.404    21162800.053
       246.000         217.000
  22036799.040     1297569.15149   1027357.28347  22036799.481    22036806.470
       237.000         194.000
  21466785.858   -20819684.22049 -15924466.21247  21466785.284    21466793.284
       235.000         195.000
  22522472.043     8498415.79149   6629048.68546  22522472.497    22522482.040
       226.000         177.000
  21091222.694   -20517671.03649 -15959620.38548  21091222.321    21091230.146
       245.000         213.000
 00  1  4 21 38 30.0000000  0  9G26G15G27G11G 2G13G 8G19G 7
  22838361.959   -15095416.02349 -11084208.15846  22838362.521    22838370.223
       225.000         175.000
  24245151.162    -9992709.30549  -7764865.78945  24245151.131    24245162.623
       207.000         145.000
  20547042.236    -5951370.65149  -4610794.49747  20547042.019    20547049.406
       242.000         212.000
  23788851.248   -10828426.67849  -8411180.70845  23788850.402    23788861.409
       216.000         160.000
  21161723.077    -3538797.06349  -2736805.10648  21161722.444    21161730.086
       246.000         217.000
  22052071.480     1377826.15349   1089895.14747  22052072.138    22052079.336
       237.000         194.000
  21451983.603   -20897470.54249 -15985078.89747  21451983.211    21451990.923
       235.000         195.000
  22537721.252     8578550.44349   6691491.18146  22537721.770    22537730.793
       227.000         176.000
  21080426.673   -20574404.25749 -16003828.03748  21080426.015    21080434.034
       245.000         213.000
 00  1  4 21 39  0.0000000  0  9G26G15G27G11G 2G13G 8G19G 7
  22830315.615   -15137699.63249 -11117156.36846  22830315.791    22830324.626
       224.000         175.000
  24247544.170    -9980133.66449  -7755066.61045  24247543.805    24247555.024
       212.000         145.000
  20553483.887    -5917519.69649  -4584417.15947  20553483.809    20553491.198
       243.000         212.000
  23787180.462   -10837206.76649  -8418022.35245  23787180.408    23787190.346
       217.000         160.000
  21160680.580    -3544275.12749  -2741073.72048  21160680.156    21160687.732
       247.000         217.000
  22067410.072     1458430.65749   1152703.80047  22067411.019    22067417.910
       237.000         194.000
  21437212.582   -20975092.51649 -16045563.51847  21437211.867    21437220.012
       235.000         195.000
  22553018.386     8658937.23749   6754130.14846  22553019.280    22553028.126
       225.000         176.000
  21069709.965   -20630720.76149 -16047710.97648  21069709.454    21069717.576
       245.000         213.000
 00  1  4 21 39 30.0000000  0  9G26G15G27G11G 2G13G 8G19G 7
  22822365.842   -15179475.95749 -11149709.29646  22822365.445    22822374.420
       224.000         175.000
  24250042.063    -9967008.00549  -7744838.83645  24250041.586    24250054.027
       211.000         145.000
  20560015.596    -5883195.38949  -4557670.97647  20560015.597    20560022.883
       242.000         212.000
  23785599.878   -10845513.05049  -8424494.78845  23785599.542    23785609.774
       216.000         160.000
  21159671.049    -3549580.43049  -2745207.71848  21159670.455    21159678.069
       247.000         217.000
  22082817.716     1539397.94249   1215795.13747  22082818.463    22082825.308
       237.000         193.000
  21422479.572   -21052514.83249 -16105892.56347  21422478.896    21422486.932
       235.000         196.000
  22568369.094     8739605.46649   6816988.41246  22568369.523    22568379.203
       226.000         176.000
  21059075.526   -20686605.07749 -16091257.14348  21059074.946    21059083.147
       244.000         213.000
 00  1  4 21 40  0.0000000  0  9G26G15G27G11G 2G13G 8G19G 7
  22814511.194   -15220752.05049 -11181872.43346  22814511.452    22814519.161
       224.000         175.000
  24252647.615    -9953315.74449  -7734169.56945  24252647.621    24252659.721
       209.000         144.000
  20566639.123    -5848388.67649  -4530548.89847  20566638.762    20566646.316
       242.000         212.000
  23784112.457   -10853329.70649  -8430585.70145  23784112.332    23784121.933
       217.000         160.000
  21158695.303    -3554708.20449  -2749203.38348  21158694.750    21158702.459
       247.000         217.000
  22098295.724     1620735.22049   1279174.77747  22098296.148    22098303.601
       236.000         193.000
  21407790.304   -21129707.36249 -16166042.55047  21407789.875    21407797.777
       235.000         196.000
  22583777.718     8820578.00049   6880083.80946  22583777.476    22583787.583
       226.000         175.000
  21048530.250   -20742020.51449 -16134437.94748  21048529.536    21048537.639
       244.000         214.000
 00  1  4 21 40 30.0000000  0  9G26G15G27G11G 2G13G 8G19G 7
  22806755.240   -15261509.60349 -11213631.52346  22806755.552    22806763.329
       225.000         175.000
  24255362.393    -9939049.42449  -7723052.98145  24255362.332    24255373.948
       211.000         144.000
  20573355.230    -5813095.46949  -4503047.73147  20573355.103    20573362.569
       243.000         212.000
  23782716.097   -10860667.65549  -8436303.58945  23782715.958    23782725.684
       217.000         161.000
  21157750.208    -3559674.77049  -2753073.43348  21157749.505    21157757.217
       246.000         217.000
  22113843.524     1702439.38049   1342840.30447  22113843.954    22113851.158
       236.000         193.000
  21393147.263   -21206657.07849 -16226003.33547  21393146.873    21393155.053
       236.000         197.000
  22599247.832     8901873.30649   6943430.69646  22599247.397    22599257.690
       225.000         175.000
  21038075.607   -20796959.86649 -16177247.77748  21038075.024    21038083.146
       245.000         214.000
 00  1  4 21 41  0.0000000  0  9G26G15G27G11G 2G13G 8G19G 7
  22799099.155   -15301742.46949 -11244981.76746  22799099.212    22799107.334
       226.000         176.000
  24258185.591    -9924213.68949  -7711492.69345  24258184.368    24258197.286
       210.000         145.000
  20580160.181    -5777335.33049  -4475182.71947  20580160.002    20580167.282
       242.000         212.000
  23781407.022   -10867547.31149  -8441664.36345  23781406.795    23781416.217
       217.000         161.000
  21156831.438    -3564502.76949  -2756835.50548  21156830.971    21156838.548
       246.000         217.000
  22129458.165     1784494.65949   1406779.41947  22129458.495    22129465.774
       236.000         192.000
  21378551.254   -21283359.47849 -16285771.39147  21378550.727    21378558.735
       235.000         197.000
  22614780.887     8983499.89849   7007035.74146  22614780.783    22614790.916
       225.000         175.000
  21027709.891   -20851431.85549 -16219693.42648  21027709.160    21027717.477
       244.000         214.000
 00  1  4 21 41 30.0000000  0  9G26G15G27G11G 2G13G 8G19G 7
  22791543.372   -15341448.58649 -11275921.55446  22791543.543    22791551.945
       226.000         176.000
  24261115.416    -9908817.04549  -7699495.35945  24261114.900    24261127.927
       208.000         145.000
  20587048.700    -5741136.07949  -4446975.54647  20587048.543    20587056.034
       242.000         212.000
  23780184.297   -10873972.88149  -8446671.28845  23780184.391    23780194.453
       218.000         161.000
  21155934.374    -3569216.84349  -2760508.80748  21155933.902    21155941.479
       247.000         217.000
  22145134.074     1866872.08049   1470969.55647  22145134.732    22145141.711
       237.000         192.000
  21364001.055   -21359821.38249 -16345352.05647  21364000.630    21364008.847
       236.000         197.000
  22630373.925     9065441.54249   7070886.27346  22630373.708    22630383.728
       226.000         175.000
  21017428.647   -20905459.93049 -16261793.17448  21017427.897    21017436.060
       244.000         214.000
